[[{"header":{"parameterUnit":"m.s-1","parameterCategory":1,"la1":31.0,"la2":29.5877,"lo1":-88.7671,"lo2":-86.6584,"dy":0.0162,"dx":0.0185,"nx":115,"ny":88,"refTime":"2024-02-28T06:00:00:Z","depth":0,"parameterNumber":2,"parameterNumberName":"U-component_of_WINDS"},"data":[0.0,0.0,0.0,0.0,0.0,0.0,0.0,0.0,0.0,0.0,0.0,0.0,0.0,0.0,0.0,0.0,0.0,0.0,0.0,0.0,0.0,0.0,0.0,0.0,0.0,0.0,0.0,0.0,0.0,0.0,0.0,0.0,0.0,0.0,0.0,0.0,0.0,0.0,0.0,0.0,0.0,0.0,0.0,0.0,0.0,0.0,0.0,0.0,0.0,0.0,0.0,0.0,0.0,0.0,0.0,0.0,0.0,0.0,0.0,0.0,0.0,0.0,0.0,0.0,0.0,0.0,0.0,0.0,0.0,0.0,0.0,0.0,0.0,0.0,0.0,0.0,0.0,0.0,0.0,0.0,0.0,0.0,0.0,0.0,0.0,0.0,0.0,0.0,0.0,0.0,0.0,0.0,0.0,0.0,0.0,0.0,0.0,0.0,0.0,0.0,0.0,0.0,0.0,0.0,0.0,0.0,0.0,0.0,0.0,0.0,0.0,0.0,0.0,0.0,0.0,0.0,0.0,0.0,0.0,0.0,0.0,0.0,0.0,0.0,0.0,0.0,0.0,0.0,0.0,0.0,0.0,0.0,0.0,0.0,0.0,0.0,0.0,0.0,0.0,0.0,0.0,0.0,0.0,0.0,0.0,0.0,0.0,0.0,0.0,0.0,0.0,0.0,0.0,0.0,0.0,0.0,0.0,0.0,0.0,0.0,0.0,0.0,0.0,0.0,0.0,0.0,0.0,0.0,0.0,0.0,0.0,0.0,0.0,0.0,0.0,0.0,0.0,0.0,0.0,0.0,0.0,0.0,0.0,0.0,0.0,0.0,0.0,0.0,0.0,0.0,0.0,0.0,0.0,0.0,0.0,0.0,0.0,0.0,0.0,0.0,0.0,0.0,0.0,0.0,0.0,0.0,0.0,0.0,0.0,0.0,0.0,0.0,0.0,0.0,0.0,0.0,0.0,0.0,0.0,0.0,0.0,0.0,0.0,0.0,0.0,0.0,0.0,0.0,0.0,0.0,0.0,0.0,0.0,0.0,0.0,0.0,0.0,0.0,0.0,0.0,0.0,0.0,0.0,0.0,0.0,0.0,0.0,0.0,0.0,0.0,0.0,0.0,0.0,0.0,0.0,0.0,0.0,0.0,0.0,0.0,0.0,0.0,0.0,0.0,0.0,0.0,0.0,0.0,0.0,0.0,0.0,0.0,0.0,0.0,0.0,0.0,0.0,0.0,0.0,0.0,0.0,0.0,0.0,0.0,0.0,0.0,0.0,0.0,0.0,0.0,0.0,0.0,0.0,0.0,0.0,0.0,0.0,0.0,0.0,0.0,0.0,0.0,0.0,0.0,0.0,0.0,0.0,0.0,0.0,0.0,0.0,0.0,0.0,0.0,0.0,0.0,0.0,0.0,0.0,0.0,0.0,0.0,0.0,0.0,0.0,0.0,0.0,0.0,0.0,0.0,0.0,0.0,0.0,0.0,0.0,0.0,0.0,0.0,0.0,0.0,0.0,0.0,0.0,0.0,0.0,0.0,0.0,0.0,0.0,0.0,0.0,0.0,0.0,0.0,0.0,0.0,0.0,0.0,0.0,0.0,0.0,0.0,0.0,0.0,0.0,0.0,0.0,0.0,0.0,0.0,0.0,0.0,0.0,0.0,0.0,0.0,0.0,0.0,0.0,0.0,0.0,0.0,0.0,0.0,0.0,0.0,0.0,0.0,0.0,0.0,0.0,0.0,0.0,0.0,0.0,0.0,0.0,0.0,0.0,0.0,0.0,0.0,0.0,0.0,0.0,0.0,0.0,0.0,0.0,0.0,0.0,0.0,0.0,0.0,0.0,0.0,0.0,0.0,0.0,0.0,0.0,0.0,0.0,0.0,0.0,0.0,0.0,0.0,0.0,0.0,0.0,0.0,0.0,0.0,0.0,0.0,0.0,0.0,0.0,0.0,0.0,0.0,0.0,0.0,0.0,0.0,0.0,0.0,0.0,0.0,0.0,0.0,0.0,0.0,0.0,0.0,0.0,0.0,0.0,0.0,0.0,0.0,0.0,0.0,0.0,0.0,0.0,0.0,0.0,0.0,0.0,0.0,0.0,0.0,0.0,0.0,0.0,0.0,0.0,0.0,0.0,0.0,0.0,0.0,0.0,0.0,0.0,0.0,0.0,0.0,0.0,0.0,0.0,0.0,0.0,0.0,0.0,0.0,0.0,0.0,0.0,0.0,0.0,0.0,0.0,0.0,0.0,0.0,0.0,0.0,0.0,0.0,0.0,0.0,0.0,0.0,0.0,0.0,0.0,0.0,0.0,0.0,0.0,0.0,0.0,0.0,0.0,0.0,0.0,0.0,0.0,0.0,0.0,0.0,0.0,0.0,0.0,0.0,0.0,0.0,0.0,0.0,0.0,0.0,0.0,0.0,0.0,0.0,0.0,0.0,0.0,0.0,0.0,0.0,0.0,0.0,0.0,0.0,0.0,0.0,0.0,0.0,0.0,0.0,0.0,0.0,0.0,0.0,0.0,0.0,0.0,0.0,0.0,0.0,0.0,0.0,0.0,0.0,0.0,0.0,0.0,0.0,0.0,0.0,0.0,0.0,0.0,0.0,0.0,0.0,0.0,0.0,0.0,0.0,0.0,0.0,0.0,0.0,0.0,0.0,0.0,0.0,0.0,0.0,0.0,0.0,0.0,0.0,0.0,0.0,0.0,0.0,0.0,0.0,0.0,0.0,0.0,0.0,0.0,0.0,0.0,0.0,0.0,0.0,0.0,0.0,0.0,0.0,0.0,0.0,0.0,0.0,0.0,0.0,0.0,0.0,0.0,0.0,0.0,0.0,0.0,0.0,0.0,0.0,0.0,0.0,0.0,0.0,0.0,0.0,0.0,0.0,0.0,0.0,0.0,0.0,0.0,0.0,0.0,0.0,0.0,0.0,0.0,0.0,0.0,0.0,0.0,0.0,0.0,0.0,0.0,0.0,0.0,0.0,0.0,0.0,0.0,0.0,0.0,0.0,0.0,0.0,0.0,0.0,0.0,0.0,0.0,0.0,0.0,0.0,0.0,0.0,0.0,0.0,0.0,0.0,0.0,0.0,0.0,0.0,0.0,0.0,0.0,0.0,0.0,0.0,0.0,0.0,0.0,0.0,0.0,0.0,0.0,0.0,0.0,0.0,0.0,0.0,0.0,0.0,0.0,0.0,0.0,0.0,0.0,0.0,0.0,0.0,0.0,0.0,0.0,0.0,0.0,0.0,0.0,0.0,0.0,0.0,0.0,0.0,0.0,0.0,0.0,0.0,0.0,0.0,0.0,0.0,0.0,0.0,0.0,0.0,0.0,0.0,0.0,0.0,0.0,0.0,0.0,0.0,0.0,0.0,0.0,0.0,0.0,0.0,0.0,0.0,0.0,0.0,0.0,0.0,0.0,0.0,0.0,0.0,0.0,0.0,0.0,0.0,0.0,0.0,0.0,0.0,0.0,0.0,0.0,0.0,0.0,0.0,0.0,0.0,0.0,0.0,0.0,0.0,0.0,0.0,0.0,0.0,0.0,0.0,0.0,0.0,0.0,0.0,0.0,0.0,0.0,0.0,0.0,0.0,0.0,0.0,0.0,0.0,0.0,0.0,0.0,0.0,0.0,0.0,0.0,0.0,0.0,0.0,0.0,0.0,0.0,0.0,0.0,0.0,0.0,0.0,0.0,0.0,0.0,0.0,0.0,0.0,0.0,0.0,0.0,0.0,0.0,0.0,0.0,0.0,0.0,0.0,0.0,0.0,0.0,0.0,0.0,0.0,0.0,0.0,0.0,0.0,0.0,0.0,0.0,0.0,0.0,0.0,0.0,0.0,0.0,0.0,0.0,0.0,0.0,0.0,0.0,0.0,0.0,0.0,0.0,0.0,0.0,0.0,0.0,0.0,0.0,0.0,0.0,0.0,0.0,0.0,0.0,0.0,0.0,0.0,0.0,0.0,0.0,0.0,0.0,0.0,0.0,0.0,0.0,0.0,0.0,0.0,0.0,0.0,0.0,0.0,0.0,0.0,0.0,0.0,0.0,0.0,0.0,0.0,0.0,0.0,0.0,0.0,0.0,0.0,0.0,0.0,0.0,0.0,0.0,0.0,0.0,0.0,0.0,0.0,0.0,0.0,0.0,0.0,0.0,0.0,0.0,0.0,0.0,0.0,0.0,0.0,0.0,0.0,0.0,0.0,0.0,0.0,0.0,0.0,0.0,0.0,0.0,0.0,0.0,0.0,0.0,0.0,0.0,0.0,0.0,0.0,0.6212,0.0,0.0,0.0,0.0,0.0,0.0,0.0,0.0,0.0,0.0,0.0,0.0,0.0,0.0,0.0,0.0,0.0,0.0,0.0,0.0,0.0,0.0,0.0,0.0,0.0,0.0,0.0,0.0,0.0,0.0,0.0,0.0,0.0,0.0,0.0,0.0,0.0,0.0,0.0,0.0,0.0,0.0,0.0,0.0,0.0,0.0,0.0,0.0,0.0,0.0,0.0,0.0,0.0,0.0,0.0,0.0,0.0,0.0,0.0,0.0,0.0,0.0,0.0,0.0,0.0,0.0,0.0,0.0,0.0,0.0,0.0,0.0,0.0,0.0,0.0,0.0,0.0,0.0,0.0,0.0,0.0,0.0,0.0,0.0,0.0,0.0,0.0,0.0,0.0,0.0,0.0,0.0,0.0,0.0,0.0,0.0,0.0,0.0,0.0,0.0,0.0,0.0,0.0,0.0,0.0,0.0,0.0,0.0,0.0,0.0,0.6983,0.6983,0.6745,0.652,0.6357,0.0,0.0,0.0,0.0,0.0,0.0,0.0,0.0,0.0,0.0,0.0,0.0,0.0,0.0,0.0,0.0,0.0,0.0,0.0,0.0,0.0,0.0,0.0,0.0,0.0,0.0,0.0,0.0,0.0,0.0,0.0,0.0,0.0,0.0,0.0,0.0,0.0,0.0,0.0,0.0,0.0,0.0,0.0,0.0,0.0,0.0,0.0,0.0,0.0,0.0,0.0,0.0,0.0,0.0,0.0,0.0,0.0,0.0,0.0,0.0,0.0,0.0,0.0,0.0,0.0,0.0,0.0,0.0,0.0,0.0,0.0,0.0,0.0,0.0,0.0,0.0,0.0,0.0,0.0,0.0,0.0,0.0,0.0,0.0,0.0,0.0,0.0,0.0,0.0,0.0,0.0,0.0,0.0,0.0,0.0,0.0,0.0,0.0,0.0,0.0,0.0,0.0,0.0,0.0,0.0,0.0,0.0,0.0,0.0,0.0,0.0,0.0,0.6822,0.6585,0.6379,0.0,0.0,0.0,0.0,0.0,0.0,0.0,0.0,0.0,0.0,0.0,0.0,0.0,0.0,0.0,0.0,0.0,0.0,0.0,0.0,0.0,0.0,0.0,0.0,0.0,0.0,0.0,0.0,0.0,0.0,0.0,0.0,0.0,0.0,0.0,0.0,0.0,0.0,0.0,0.0,0.0,0.0,0.0,0.0,0.0,0.0,0.0,0.0,0.0,0.0,0.0,0.0,0.0,0.0,0.0,0.0,0.0,0.0,0.0,0.0,0.0,0.0,0.0,0.0,0.0,0.0,0.0,0.0,0.0,0.0,0.0,0.0,0.0,0.0,0.0,0.0,0.0,0.0,0.0,0.0,0.0,0.0,0.0,0.0,0.0,0.0,0.0,0.0,0.0,0.0,0.0,0.0,0.0,0.0,0.0,0.0,0.0,0.0,0.0,0.0,0.0,0.0,0.0,0.0,0.0,0.0,0.0,0.0,0.0,0.0,0.7384,0.7274,0.7232,0.0,0.608,0.0,0.0,0.0,0.0,0.0,0.0,0.0,0.0,0.0,0.0,0.0,0.0,0.0,0.0,0.0,0.0,0.0,0.0,0.0,0.0,0.0,0.0,0.0,0.0,0.0,0.0,0.0,0.0,0.0,0.0,0.0,0.0,0.0,0.0,0.0,0.0,0.0,0.0,0.0,0.0,0.0,0.0,0.0,0.0,0.0,0.0,0.0,0.0,0.0,0.0,0.0,0.0,0.0,0.0,0.0,0.0,0.0,0.0,0.0,0.0,0.0,0.0,0.0,0.0,0.0,0.0,0.0,0.0,0.0,0.0,0.0,0.0,0.0,0.0,0.0,0.0,0.0,0.0,0.0,0.0,0.0,0.0,0.0,0.0,0.0,0.0,0.0,0.0,0.0,0.0,0.0,0.0,0.0,0.0,0.0,0.0,0.0,0.0,0.0,0.0,0.0,0.0,0.0,0.0,0.0,0.0,0.0,0.0,0.0,0.0,0.7435,0.7289,0.7134,0.663,0.0,0.0,0.0,0.0,0.0,0.0,0.0,0.0,0.0,0.0,0.0,0.0,0.0,0.0,0.0,0.0,0.0,0.0,0.0,0.0,0.0,0.0,0.0,0.0,0.0,0.0,0.0,0.0,0.0,0.0,0.0,0.0,0.0,0.0,0.0,0.0,0.0,0.0,0.0,0.0,0.0,0.0,0.0,0.0,0.0,0.0,0.0,0.0,0.0,0.0,0.0,0.0,0.0,0.0,0.0,0.0,0.0,0.0,0.0,0.0,0.0,0.0,0.0,0.0,0.0,0.0,0.0,0.0,0.0,0.0,0.0,0.0,0.0,0.0,0.0,0.0,0.0,0.0,0.0,0.0,0.0,0.0,0.0,0.0,0.0,0.0,0.0,0.0,0.0,0.0,0.0,0.0,0.0,0.0,0.0,0.0,0.0,0.0,0.0,0.0,0.0,0.0,0.0,0.0,0.0,0.0,0.0,0.0,0.0,0.0,0.7402,0.7565,0.7453,0.704,0.6403,0.5527,0.0,0.0,0.0,0.0,0.0,0.0,0.0,0.0,0.0,0.0,0.0,0.0,0.0,0.0,0.0,0.0,0.0,0.0,0.0,0.0,0.0,0.0,0.0,0.0,0.0,0.0,0.0,0.0,0.0,0.0,0.0,0.0,0.0,0.0,0.0,0.0,0.0,0.0,0.0,0.0,0.0,0.0,0.0,0.0,0.0,0.0,0.0,0.0,0.0,0.0,0.0,0.0,0.0,0.0,0.0,0.0,0.0,0.0,0.0,0.0,0.0,0.0,0.0,0.0,0.0,0.0,0.0,0.0,0.0,0.0,0.0,0.0,0.0,0.0,0.0,0.0,0.0,0.0,0.0,0.0,0.0,0.0,0.0,0.0,0.0,0.0,0.0,0.0,0.0,0.0,0.0,0.0,0.0,0.0,0.0,0.0,0.0,0.0,0.0,0.0,0.0,0.0,0.0,0.0,0.0,0.0,0.0,0.0,0.702,0.7568,0.7881,0.7847,0.7071,0.636,0.0,0.0,0.0,0.0,0.0,0.0,0.0,0.0,0.0,0.0,0.0,0.0,0.0,0.0,0.0,0.0,0.0,0.0,0.0,0.0,0.0,0.0,0.0,0.0,0.0,0.0,0.0,0.0,0.0,0.0,0.0,0.0,0.0,0.0,0.0,0.0,0.0,0.0,0.0,0.0,0.0,0.0,0.0,0.0,0.0,0.0,0.0,0.0,0.0,0.0,0.0,0.0,0.0,0.0,0.0,0.0,0.0,0.0,0.0,0.0,0.0,0.0,0.0,0.0,0.0,0.0,0.0,0.0,0.0,0.0,0.0,0.0,0.0,0.0,0.0,0.0,0.0,0.0,0.0,0.0,0.0,0.0,0.0,0.0,0.0,0.0,0.0,0.0,0.0,0.0,0.0,0.0,0.0,0.0,0.0,0.0,0.0,0.0,0.0,0.0,0.0,0.0,0.0,0.0,0.0,0.0,0.0,0.0,0.0,0.7009,0.7341,0.7561,0.7616,0.6885,0.6118,0.0,0.0,0.0,0.0,0.0,0.0,0.0,0.0,0.0,0.0,0.0,0.0,0.0,0.0,0.0,0.0,0.0,0.0,0.0,0.0,0.0,0.0,0.0,0.0,0.0,0.0,0.0,0.0,0.0,0.0,0.0,0.0,0.0,0.0,0.0,0.0,0.0,0.0,0.0,0.0,0.0,0.0,0.0,0.0,0.0,0.0,0.0,0.0,0.0,0.0,0.0,0.0,0.0,0.0,0.0,0.0,0.0,0.0,0.0,0.0,0.0,0.0,0.0,0.0,0.0,0.0,0.0,0.0,0.0,0.0,0.0,0.0,0.0,0.0,0.0,0.0,0.0,0.0,0.0,0.0,0.0,0.0,0.0,0.0,0.0,0.0,0.0,0.0,0.0,0.0,0.0,0.0,0.0,0.0,0.0,0.0,0.0,0.0,0.0,0.0,0.0,0.0,0.0,0.0,0.0,0.0,0.0,0.0,0.0,0.7035,0.0,0.7358,0.7347,0.6589,0.5821,0.0,0.0,0.0,0.0,0.0,0.0,0.0,0.0,0.0,0.0,0.0,0.0,0.0,0.0,0.0,0.0,0.0,0.0,0.0,0.0,0.0,0.0,0.0,0.0,0.0,0.0,0.0,0.0,0.0,0.0,0.0,0.0,0.0,0.0,0.0,0.0,0.0,0.0,0.0,0.0,0.0,0.0,0.0,0.0,0.0,0.0,0.0,0.0,0.0,0.0,0.0,0.0,0.0,0.0,0.0,0.0,0.0,0.0,0.0,0.0,0.0,0.0,0.0,0.0,0.0,0.0,0.0,0.0,0.0,0.0,0.0,0.0,0.0,0.0,0.0,0.0,0.0,0.0,0.0,0.0,0.0,0.0,0.0,0.0,0.0,0.0,0.0,0.0,0.0,0.0,0.0,0.0,0.0,0.0,0.0,0.0,0.0,0.0,0.0,0.0,0.0,0.0,0.0,0.0,0.0,0.0,0.0,0.0,0.6683,0.7086,0.7337,0.7341,0.7077,0.6197,0.5466,0.0,0.0,0.0,0.0,0.0,0.0,0.0,0.0,0.0,0.0,0.0,0.0,0.0,0.0,0.0,0.0,0.0,0.0,0.0,0.0,0.0,0.0,0.0,0.0,0.0,0.0,0.0,0.0,0.0,0.0,0.0,0.0,0.0,0.0,0.0,0.0,0.0,0.0,0.0,0.0,0.0,0.0,0.0,0.0,0.0,0.0,0.0,0.0,0.0,0.0,0.0,0.0,0.0,0.0,0.0,0.0,0.0,0.0,0.0,0.0,0.0,0.0,0.0,0.0,0.0,0.0,0.0,0.0,0.0,0.0,0.0,0.0,0.0,0.0,0.0,0.0,0.0,0.0,0.0,0.0,0.0,0.0,0.0,0.0,0.0,0.0,0.0,0.0,0.0,0.0,0.0,0.0,0.0,0.0,0.0,0.0,0.0,0.0,0.0,0.0,0.0,0.0,0.0,0.0,0.0,0.0,0.0,0.0,0.0,0.7143,0.7026,0.6912,0.6813,0.604,0.5392,0.0,0.0,0.0,0.0,0.0,0.0,0.0,0.0,0.0,0.0,0.0,0.0,0.0,0.0,0.0,0.0,0.0,0.0,0.0,0.0,0.0,0.0,0.0,0.0,0.0,0.0,0.0,0.0,0.0,0.0,0.0,0.0,0.0,0.0,0.0,0.0,0.0,0.0,0.0,0.0,0.0,0.0,0.0,0.0,0.0,0.0,0.0,0.0,0.0,0.0,0.0,0.0,0.0,0.0,0.0,0.0,0.0,0.0,0.0,0.0,0.0,0.0,0.0,0.0,0.0,0.0,0.0,0.0,0.0,0.0,0.0,0.0,0.0,0.0,0.0,0.0,0.0,0.0,0.0,0.0,0.0,0.0,0.0,0.0,0.0,0.0,0.0,0.0,0.0,0.0,0.0,0.0,0.0,0.0,0.0,0.0,0.0,0.0,0.0,0.0,0.0,0.0,0.0,0.0,0.0,0.0,0.0,0.0,0.0,0.6894,0.6783,0.664,0.6564,0.5817,0.5227,0.4841,0.0,0.0,0.0,0.0,0.0,0.0,0.0,0.0,0.0,0.0,0.0,0.0,0.0,0.0,0.0,0.0,0.0,0.0,0.0,0.0,0.0,0.0,0.0,0.0,0.0,0.0,0.0,0.0,0.0,0.0,0.0,0.0,0.0,0.0,0.0,0.0,0.0,0.0,0.0,0.0,0.0,0.0,0.0,0.0,0.0,0.0,0.0,0.0,0.0,0.0,0.0,0.0,0.0,0.0,0.0,0.0,0.0,0.0,0.0,0.0,0.0,0.0,0.0,0.0,0.0,0.0,0.0,0.0,0.0,0.0,0.0,0.0,0.0,0.0,0.0,0.0,0.0,0.0,0.0,0.0,0.0,0.0,0.0,0.0,0.0,0.0,0.0,0.0,0.0,0.0,0.0,0.0,0.0,0.0,0.0,0.0,0.0,0.0,0.0,0.0,0.0,0.0,0.0,0.0,0.0,0.0,0.0,0.0,0.6486,0.6611,0.6575,0.6323,0.5562,0.4998,0.0,0.0,0.0,0.0,0.0,0.0,0.0,0.0,0.0,0.0,0.0,0.0,0.0,0.0,0.0,0.0,0.0,0.0,0.0,0.0,0.0,0.0,0.0,0.0,0.0,0.0,0.0,0.0,0.0,0.0,0.0,0.0,0.0,0.0,0.0,0.0,0.0,0.0,0.0,0.0,0.0,0.0,0.0,0.0,0.0,0.0,0.0,0.0,0.0,0.0,0.0,0.0,0.0,0.0,0.0,0.0,0.0,0.0,0.0,0.0,0.0,0.0,0.0,0.0,0.0,0.0,0.0,0.0,0.0,0.0,0.0,0.0,0.0,0.0,0.0,0.0,0.0,0.0,0.0,0.0,0.0,0.0,0.0,0.0,0.0,0.0,0.0,0.0,0.0,0.0,0.0,0.0,0.0,0.0,0.0,0.0,0.0,0.0,0.0,0.0,0.0,0.0,0.0,0.0,0.0,0.0,0.0,0.0,0.0,0.6344,0.6489,0.6531,0.6499,0.5837,0.5323,0.0,0.0,0.0,0.0,0.0,0.0,0.0,0.0,0.0,0.0,0.0,0.0,0.0,0.0,0.0,0.0,0.0,0.0,0.0,0.0,0.0,0.0,0.0,0.0,0.0,0.0,0.0,0.0,0.0,0.0,0.0,0.0,0.0,0.0,0.0,0.0,0.0,0.0,0.0,0.0,0.0,0.0,0.0,0.0,0.0,0.0,0.0,0.0,0.0,0.0,0.0,0.0,0.0,0.0,0.0,0.0,0.0,0.0,0.0,0.0,0.0,0.0,0.0,0.0,0.0,0.0,0.0,0.0,0.0,0.0,0.0,0.0,0.0,0.0,0.0,0.0,0.0,0.0,0.0,0.0,0.0,0.0,0.0,0.0,0.0,0.0,0.0,0.0,0.0,0.0,0.0,0.0,0.0,0.0,0.0,0.0,0.0,0.0,0.0,0.0,0.0,0.0,0.0,0.0,0.0,0.0,0.0,0.0,0.6019,0.6452,0.6545,0.6646,0.6708,0.6005,0.5443,0.0,0.0,0.0,0.0,0.0,0.0,0.0,0.0,0.0,0.0,0.0,0.0,0.0,0.0,0.0,0.0,0.0,0.0,0.0,0.0,0.0,0.0,0.0,0.0,0.0,0.0,0.0,0.0,0.0,0.0,0.0,0.0,0.0,0.0,0.0,0.0,0.0,0.0,0.0,0.0,0.0,0.0,0.0,0.0,0.0,0.0,0.0,0.0,0.0,0.0,0.0,0.0,0.0,0.0,0.0,0.0,0.0,0.0,0.0,0.0,0.0,0.0,0.0,0.0,0.0,0.0,0.0,0.0,0.0,0.0,0.0,0.0,0.0,0.0,0.0,0.0,0.0,0.0,0.0,0.0,0.0,0.0,0.0,0.0,0.0,0.0,0.0,0.0,0.0,0.0,0.0,0.0,0.0,0.0,0.0,0.0,0.0,0.0,0.0,0.0,0.0,0.0,0.0,0.0,0.0,0.0,0.0,0.0,0.6093,0.6688,0.6708,0.6789,0.6876,0.6079,0.5481,0.0,0.0,0.0,0.0,0.0,0.0,0.0,0.0,0.0,0.0,0.0,0.0,0.0,0.0,0.0,0.0,0.0,0.0,0.0,0.0,0.0,0.0,0.0,0.0,0.0,0.0,0.0,0.0,0.0,0.0,0.0,0.0,0.0,0.0,0.0,0.0,0.0,0.0,0.0,0.0,0.0,0.0,0.0,0.0,0.0,0.0,0.0,0.0,0.0,0.0,0.0,0.0,0.0,0.0,0.0,0.0,0.0,0.0,0.0,0.0,0.0,0.0,0.0,0.0,0.0,0.0,0.0,0.0,0.0,0.0,0.0,0.0,0.0,0.0,0.0,0.0,0.0,0.0,0.0,0.0,0.0,0.0,0.0,0.0,0.0,0.0,0.0,0.0,0.0,0.0,0.0,0.0,0.0,0.0,0.0,0.0,0.0,0.0,0.0,0.0,0.0,0.0,0.0,0.0,0.0,0.0,0.0,0.0,0.6194,0.6688,0.6904,0.7018,0.7045,0.6323,0.5721,0.0,0.0,0.0,0.0,0.0,0.0,0.0,0.0,0.0,0.0,0.0,0.0,0.0,0.0,0.0,0.0,0.0,0.0,0.0,0.0,0.0,0.0,0.0,0.0,0.0,0.0,0.0,0.0,0.0,0.0,0.0,0.0,0.0,0.0,0.0,0.0,0.0,0.0,0.0,0.0,0.0,0.0,0.0,0.0,0.0,0.0,0.0,0.0,0.4835,0.0,0.0,0.0,0.0,0.0,0.0,0.0,0.0,0.0,0.0,0.0,0.0,0.0,0.0,0.0,0.0,0.0,0.0,0.0,0.0,0.0,0.0,0.0,0.0,0.0,0.0,0.0,0.0,0.0,0.0,0.0,0.0,0.0,0.0,0.0,0.0,0.0,0.0,0.0,0.0,0.0,0.0,0.0,0.0,0.0,0.0,0.0,0.0,0.0,0.0,0.0,0.0,0.0,0.0,0.0,0.0,0.0,0.0,0.0,0.6559,0.7,0.7148,0.7188,0.7078,0.6485,0.5947,0.0,0.0,0.0,0.0,0.0,0.0,0.0,0.0,0.0,0.0,0.0,0.0,0.0,0.0,0.0,0.0,0.0,0.0,0.0,0.0,0.0,0.0,0.0,0.0,0.0,0.0,0.0,0.0,0.0,0.0,0.0,0.0,0.0,0.0,0.0,0.0,0.0,0.0,0.0,0.0,0.0,0.0,0.0,0.0,0.0,0.0,0.0,0.0,0.0,0.0,0.0,0.0,0.0,0.0,0.0,0.0,0.0,0.0,0.0,0.0,0.0,0.0,0.0,0.0,0.0,0.0,0.0,0.0,0.0,0.0,0.0,0.0,0.0,0.0,0.0,0.0,0.0,0.0,0.0,0.0,0.0,0.0,0.0,0.0,0.0,0.0,0.0,0.0,0.0,0.0,0.0,0.0,0.0,0.0,0.0,0.0,0.0,0.0,0.0,0.0,0.0,0.0,0.0,0.0,0.0,0.0,0.0,0.6322,0.6919,0.7376,0.7396,0.7312,0.7125,0.662,0.6108,0.562,0.0,0.0,0.0,0.0,0.0,0.0,0.0,0.0,0.0,0.0,0.0,0.0,0.0,0.0,0.0,0.0,0.0,0.0,0.0,0.0,0.0,0.0,0.0,0.0,0.0,0.0,0.0,0.0,0.0,0.0,0.0,0.0,0.0,0.0,0.0,0.0,0.0,0.0,0.4634,0.4999,0.0,0.0,0.0,0.0,0.0,0.0,0.0,0.0,0.5467,0.0,0.0,0.0,0.0,0.0,0.0,0.0,0.0,0.0,0.0,0.0,0.0,0.0,0.0,0.0,0.0,0.0,0.0,0.0,0.0,0.0,0.0,0.0,0.0,0.0,0.0,0.0,0.0,0.0,0.0,0.0,0.0,0.0,0.0,0.0,0.0,0.0,0.0,0.0,0.0,0.0,0.0,0.0,0.0,0.0,0.0,0.0,0.0,0.0,0.0,0.0,0.0,0.0,0.0,0.0,0.0,0.5607,0.6322,0.694,0.7382,0.7396,0.7382,0.7342,0.677,0.6192,0.5627,0.0,0.0,0.0,0.0,0.0,0.0,0.0,0.0,0.0,0.0,0.0,0.0,0.0,0.0,0.0,0.0,0.0,0.0,0.0,0.0,0.0,0.0,0.0,0.0,0.0,0.0,0.0,0.0,0.0,0.0,0.0,0.0,0.0,0.0,0.0,0.0,0.0,0.0,0.0,0.5667,0.5845,0.0,0.0,0.0,0.0,0.0,0.0,0.0,0.0,0.5623,0.0,0.0,0.0,0.0,0.0,0.0,0.0,0.0,0.0,0.0,0.0,0.0,0.0,0.0,0.0,0.0,0.0,0.0,0.0,0.0,0.0,0.0,0.0,0.0,0.0,0.0,0.0,0.0,0.0,0.0,0.0,0.0,0.0,0.0,0.0,0.0,0.0,0.0,0.0,0.0,0.0,0.0,0.0,0.0,0.0,0.0,0.0,0.0,0.0,0.0,0.0,0.0,0.0,0.0,0.0,0.5809,0.6532,0.7115,0.7475,0.7512,0.7437,0.7251,0.6695,0.6115,0.0,0.0,0.0,0.0,0.0,0.0,0.0,0.0,0.0,0.0,0.0,0.0,0.0,0.0,0.0,0.0,0.0,0.0,0.0,0.0,0.0,0.0,0.0,0.0,0.0,0.0,0.0,0.0,0.0,0.0,0.0,0.0,0.0,0.0,0.0,0.0,0.0,0.0,0.0,0.0,0.6042,0.628,0.6261,0.0,0.0,0.0,0.0,0.0,0.0,0.62,0.6069,0.0,0.0,0.0,0.0,0.0,0.0,0.0,0.0,0.0,0.0,0.0,0.0,0.0,0.0,0.0,0.0,0.0,0.0,0.0,0.0,0.0,0.0,0.0,0.0,0.0,0.0,0.0,0.0,0.0,0.0,0.0,0.0,0.0,0.0,0.0,0.0,0.0,0.0,0.0,0.0,0.0,0.0,0.0,0.0,0.0,0.0,0.0,0.0,0.0,0.0,0.0,0.0,0.0,0.0,0.0,0.6059,0.6816,0.7344,0.7631,0.7648,0.7492,0.7098,0.66,0.6047,0.0,0.0,0.0,0.0,0.0,0.0,0.0,0.0,0.0,0.0,0.0,0.0,0.0,0.0,0.0,0.0,0.0,0.0,0.0,0.0,0.0,0.0,0.0,0.0,0.0,0.0,0.0,0.0,0.0,0.0,0.0,0.0,0.0,0.0,0.0,0.0,0.0,0.0,0.0,0.0,0.0,0.6573,0.6607,0.6736,0.0,0.0,0.0,0.0,0.677,0.6661,0.0,0.0,0.0,0.0,0.0,0.0,0.0,0.0,0.0,0.0,0.0,0.0,0.0,0.0,0.0,0.0,0.0,0.0,0.0,0.0,0.0,0.0,0.0,0.0,0.0,0.0,0.0,0.0,0.0,0.0,0.0,0.0,0.0,0.0,0.0,0.0,0.0,0.0,0.0,0.0,0.0,0.0,0.0,0.0,0.0,0.0,0.0,0.0,0.0,0.0,0.0,0.0,0.0,0.0,0.0,0.0,0.6286,0.7102,0.7624,0.7756,0.7891,0.7671,0.7112,0.6688,0.6143,0.0,0.0,0.0,0.0,0.0,0.0,0.0,0.0,0.0,0.0,0.0,0.0,0.0,0.0,0.0,0.0,0.0,0.0,0.0,0.0,0.0,0.0,0.0,0.0,0.0,0.0,0.0,0.0,0.0,0.0,0.0,0.0,0.0,0.0,0.0,0.0,0.0,0.0,0.0,0.0,0.0,0.6904,0.7004,0.7197,0.7231,0.0,0.0,0.7046,0.7066,0.6945,0.0,0.0,0.0,0.0,0.0,0.0,0.0,0.0,0.0,0.0,0.0,0.0,0.0,0.0,0.0,0.0,0.0,0.0,0.0,0.0,0.0,0.0,0.0,0.0,0.0,0.0,0.0,0.0,0.0,0.0,0.0,0.0,0.0,0.0,0.0,0.0,0.0,0.0,0.0,0.0,0.0,0.0,0.0,0.0,0.0,0.0,0.0,0.0,0.0,0.0,0.0,0.0,0.0,0.0,0.0,0.5872,0.6422,0.7206,0.7682,0.7905,0.7979,0.781,0.7407,0.6818,0.6185,0.0,0.0,0.0,0.0,0.0,0.0,0.0,0.0,0.0,0.0,0.0,0.0,0.0,0.0,0.0,0.0,0.0,0.0,0.0,0.0,0.0,0.0,0.0,0.0,0.0,0.0,0.0,0.0,0.0,0.0,0.0,0.0,0.0,0.0,0.0,0.0,0.0,0.0,0.0,0.0,0.0,0.0,0.7465,0.7726,0.0,0.0,0.0,0.7661,0.7767,0.0,0.0,0.0,0.0,0.0,0.0,0.0,0.0,0.0,0.0,0.0,0.0,0.0,0.0,0.0,0.0,0.0,0.0,0.0,0.0,0.0,0.0,0.0,0.0,0.0,0.0,0.0,0.0,0.0,0.0,0.0,0.0,0.0,0.0,0.0,0.0,0.0,0.0,0.0,0.0,0.0,0.0,0.0,0.0,0.0,0.0,0.0,0.0,0.0,0.0,0.0,0.0,0.0,0.0,0.0,0.0,0.0,0.6607,0.7326,0.7824,0.8115,0.8162,0.7993,0.7604,0.6973,0.0,0.0,0.0,0.0,0.0,0.0,0.0,0.0,0.0,0.0,0.0,0.0,0.0,0.0,0.0,0.0,0.0,0.0,0.0,0.0,0.0,0.0,0.0,0.0,0.0,0.0,0.0,0.3117,0.0,0.0,0.0,0.0,0.0,0.0,0.0,0.0,0.0,0.0,0.0,0.0,0.0,0.0,0.755,0.7882,0.8187,0.835,0.0,0.0,0.8263,0.837,0.8126,0.7814,0.0,0.0,0.0,0.0,0.0,0.0,0.0,0.0,0.0,0.0,0.0,0.0,0.0,0.0,0.0,0.0,0.0,0.0,0.0,0.0,0.0,0.0,0.0,0.0,0.0,0.0,0.0,0.0,0.0,0.0,0.0,0.0,0.0,0.0,0.0,0.0,0.0,0.0,0.0,0.0,0.0,0.0,0.0,0.0,0.0,0.0,0.0,0.0,0.0,0.0,0.0,0.0,0.0,0.0,0.0,0.687,0.7607,0.8128,0.8445,0.8594,0.8323,0.7624,0.7249,0.66,0.0,0.0,0.0,0.0,0.0,0.0,0.0,0.0,0.0,0.0,0.0,0.0,0.0,0.0,0.0,0.0,0.0,0.0,0.0,0.0,0.0,0.0,0.0,0.0,0.0,0.0,0.0,0.0,0.0,0.0,0.0,0.0,0.0,0.0,0.0,0.0,0.0,0.0,0.0,0.0,0.0,0.777,0.8206,0.8492,0.873,0.0,0.0,0.8804,0.8676,0.8457,0.8117,0.7658,0.0,0.0,0.0,0.0,0.0,0.0,0.0,0.0,0.0,0.0,0.0,0.0,0.0,0.0,0.0,0.0,0.0,0.0,0.0,0.0,0.0,0.0,0.0,0.0,0.0,0.0,0.0,0.0,0.0,0.0,0.0,0.0,0.0,0.0,0.0,0.0,0.0,0.0,0.0,0.0,0.0,0.0,0.0,0.0,0.0,0.0,0.0,0.0,0.0,0.0,0.0,0.0,0.0,0.6173,0.6904,0.7634,0.825,0.8737,0.8703,0.8526,0.8179,0.7465,0.6762,0.0,0.0,0.0,0.0,0.0,0.0,0.0,0.0,0.0,0.0,0.0,0.0,0.0,0.0,0.0,0.0,0.0,0.0,0.0,0.0,0.0,0.0,0.0,0.0,0.0,0.0,0.0,0.0,0.4018,0.4105,0.4293,0.0,0.0,0.0,0.0,0.0,0.0,0.0,0.0,0.0,0.0,0.8174,0.8595,0.8933,0.0,0.0,0.9211,0.9157,0.9001,0.8757,0.8418,0.8097,0.7539,0.0,0.0,0.0,0.0,0.0,0.0,0.0,0.0,0.0,0.0,0.0,0.0,0.0,0.0,0.0,0.0,0.0,0.0,0.0,0.0,0.0,0.0,0.0,0.0,0.0,0.0,0.0,0.0,0.0,0.0,0.0,0.0,0.0,0.0,0.0,0.0,0.0,0.0,0.0,0.0,0.0,0.0,0.0,0.0,0.0,0.0,0.0,0.0,0.0,0.0,0.0,0.0,0.6085,0.6902,0.7396,0.7917,0.8512,0.8339,0.8179,0.8047,0.733,0.6716,0.0,0.0,0.0,0.0,0.0,0.0,0.0,0.0,0.0,0.0,0.0,0.0,0.0,0.0,0.0,0.0,0.0,0.0,0.0,0.0,0.0,0.0,0.0,0.0,0.0,0.0,0.0,0.0,0.4355,0.4389,0.4484,0.0,0.0,0.0,0.0,0.0,0.0,0.0,0.0,0.0,0.0,0.8567,0.898,0.9286,0.9462,0.9503,0.951,0.9442,0.9281,0.9036,0.875,0.8417,0.0,0.0,0.0,0.0,0.0,0.0,0.0,0.0,0.0,0.0,0.0,0.0,0.0,0.0,0.0,0.0,0.0,0.0,0.0,0.0,0.0,0.0,0.0,0.0,0.0,0.0,0.0,0.0,0.0,0.0,0.6797,0.0,0.0,0.0,0.0,0.0,0.0,0.0,0.0,0.0,0.0,0.0,0.0,0.0,0.0,0.0,0.0,0.0,0.0,0.0,0.0,0.0,0.0,0.597,0.6868,0.6846,0.7096,0.7614,0.7376,0.7176,0.7041,0.6754,0.6442,0.611,0.0,0.0,0.0,0.0,0.0,0.0,0.0,0.0,0.0,0.0,0.0,0.0,0.0,0.0,0.0,0.0,0.0,0.0,0.0,0.0,0.0,0.0,0.0,0.0,0.0,0.0,0.466,0.468,0.4626,0.0,0.0,0.0,0.0,0.0,0.0,0.0,0.0,0.0,0.0,0.8235,0.8866,0.9306,0.951,0.9652,0.9758,0.9808,0.9707,0.9422,0.9274,0.905,0.0,0.0,0.0,0.0,0.0,0.0,0.0,0.0,0.0,0.0,0.0,0.0,0.0,0.0,0.0,0.0,0.0,0.0,0.0,0.0,0.0,0.0,0.0,0.0,0.0,0.0,0.0,0.7624,0.7314,0.0,0.0,0.0,0.0,0.0,0.0,0.0,0.0,0.0,0.0,0.0,0.7317,0.7018,0.0,0.0,0.0,0.0,0.0,0.0,0.0,0.0,0.0,0.0,0.0,0.0,0.6054,0.6595,0.6609,0.6764,0.7111,0.6801,0.6659,0.6791,0.6538,0.6264,0.5969,0.0,0.0,0.0,0.0,0.0,0.0,0.0,0.0,0.0,0.0,0.0,0.0,0.0,0.0,0.0,0.0,0.0,0.0,0.0,0.0,0.0,0.0,0.0,0.0,0.0,0.4674,0.0,0.0,0.0,0.0,0.0,0.0,0.0,0.0,0.0,0.0,0.0,0.7577,0.8145,0.8777,0.9245,0.9496,0.9659,0.9768,0.0,0.0,0.0,0.0,0.0,0.0,0.0,0.0,0.0,0.0,0.0,0.0,0.0,0.0,0.7875,0.7158,0.6974,0.6926,0.6919,0.0,0.0,0.0,0.0,0.0,0.0,0.0,0.0,0.0,0.0,0.0,0.0,0.0,0.0,0.0,0.0,0.7115,0.0,0.0,0.0,0.0,0.0,0.0,0.0,0.0,0.7413,0.7525,0.7563,0.7312,0.7066,0.0,0.6565,0.6153,0.0,0.0,0.0,0.0,0.0,0.0,0.0,0.0,0.6056,0.6456,0.6216,0.6165,0.6364,0.5934,0.5829,0.618,0.6256,0.6218,0.6008,0.5762,0.5402,0.0,0.0,0.0,0.0,0.0,0.0,0.0,0.0,0.0,0.0,0.0,0.0,0.0,0.0,0.0,0.0,0.0,0.0,0.0,0.0,0.0,0.0,0.0,0.5035,0.0,0.0,0.0,0.0,0.0,0.0,0.0,0.0,0.0,0.6804,0.7464,0.8131,0.8668,0.922,0.9591,0.971,0.0,0.0,0.0,0.0,0.0,0.0,0.0,0.9564,0.9437,0.9225,0.9178,0.9451,0.9662,0.9734,0.9632,0.0,0.0,0.8099,0.7852,0.7777,0.7784,0.7923,0.8067,0.8155,0.8364,0.8554,0.0,0.0,0.0,0.0,0.0,0.0,0.0,0.0,0.8428,0.807,0.0,0.757,0.0,0.0,0.0,0.0,0.0,0.6673,0.0,0.0,0.7781,0.7835,0.772,0.7644,0.7347,0.6942,0.6852,0.6785,0.6669,0.5981,0.0,0.0,0.0,0.0,0.0,0.0,0.5981,0.6435,0.5703,0.5324,0.5389,0.4815,0.4747,0.5262,0.5937,0.6305,0.6236,0.6093,0.5847,0.5416,0.4982,0.0,0.0,0.0,0.0,0.0,0.0,0.0,0.0,0.0,0.0,0.0,0.0,0.0,0.0,0.0,0.0,0.0,0.0,0.0,0.0,0.542,0.0,0.0,0.0,0.0,0.0,0.0,0.0,0.0,0.0,0.0,0.7485,0.8097,0.8702,0.9145,0.0,0.0,0.0,0.0,1.0308,1.0301,1.0308,1.0222,1.0049,0.999,0.9974,0.9832,0.0,0.0,1.0084,1.0349,1.0419,1.0109,1.0157,1.0019,0.9129,0.8743,0.854,0.856,0.8764,0.8933,0.896,0.9184,0.9429,1.0692,0.0,0.0,0.0,0.0,0.8931,0.8667,0.855,0.8493,0.8235,0.791,0.7743,0.0,0.0,0.0,0.0,0.0,0.0,0.7387,0.7717,0.8142,0.8232,0.8066,0.7941,0.7609,0.711,0.7061,0.7021,0.6967,0.6792,0.6461,0.6054,0.0,0.0,0.0,0.0,0.6293,0.6297,0.5613,0.518,0.5039,0.4704,0.4997,0.5972,0.6417,0.6679,0.677,0.6687,0.639,0.5842,0.543,0.0,0.0,0.0,0.0,0.0,0.0,0.0,0.0,0.0,0.0,0.0,0.0,0.0,0.0,0.0,0.0,0.0,0.0,0.0,0.5552,0.5684,0.5766,0.0,0.0,0.0,0.0,0.0,0.0,0.0,0.0,0.0,0.8777,0.9015,0.9252,0.0,0.0,1.0168,1.0209,1.0249,1.0308,1.0308,0.0,0.0,0.0,1.0215,1.0236,1.029,1.0447,1.061,1.065,1.0846,1.0975,1.0853,1.0704,1.05,1.0263,0.9788,0.9433,0.942,0.9568,0.9697,0.968,0.989,1.0063,1.1009,1.0716,1.0105,0.9713,0.9468,0.9155,0.8931,0.8733,0.87,0.8517,0.8255,0.8034,0.7834,0.7678,0.737,0.0,0.0,0.0,0.794,0.8243,0.8621,0.8558,0.814,0.7911,0.737,0.6568,0.6459,0.6496,0.6574,0.6552,0.653,0.6435,0.0,0.0,0.6754,0.6663,0.6486,0.6132,0.5606,0.5178,0.4948,0.5051,0.5551,0.6458,0.6726,0.69,0.7052,0.6961,0.6715,0.6296,0.5867,0.5453,0.0,0.0,0.0,0.0,0.0,0.0,0.0,0.0,0.0,0.0,0.0,0.3839,0.0,0.0,0.0,0.0,0.5365,0.5711,0.6037,0.6125,0.0,0.0,0.0,0.0,0.0,0.0,0.0,0.7902,0.8498,0.9015,0.9496,0.9713,0.9869,0.9992,1.0215,1.0365,1.0365,0.0,1.0453,1.0453,1.0507,1.0548,1.0548,1.0595,1.0689,1.0778,1.0955,1.1083,1.1097,1.1246,1.1356,1.1246,1.1056,1.088,1.0786,1.0427,1.0103,1.0001,1.012,1.0191,1.0191,1.0344,1.0453,1.13,1.1128,1.0719,1.0158,0.958,0.9492,0.9334,0.9131,0.903,0.8899,0.8737,0.8505,0.8269,0.8049,0.7828,0.0,0.8094,0.8308,0.8554,0.8897,0.9115,0.8781,0.7938,0.7591,0.6764,0.5554,0.5379,0.5475,0.5765,0.5696,0.5962,0.6558,0.7058,0.7218,0.7054,0.69,0.6532,0.5873,0.5556,0.5234,0.4965,0.5633,0.6239,0.6775,0.6853,0.6978,0.7137,0.6983,0.6821,0.6695,0.6276,0.5863,0.545,0.0,0.0,0.0,0.0,0.0,0.0,0.0,0.0,0.0,0.0,0.0,0.0,0.0,0.0,0.0,0.6056,0.0,0.6546,0.6688,0.0,0.0,0.0,0.7179,0.72,0.7743,0.8216,0.856,0.0,0.0,0.9836,0.0,1.0453,1.0351,1.0439,1.0514,1.0527,1.0649,1.0704,1.0751,1.0833,1.0928,1.0907,1.105,1.1179,1.1186,1.1342,1.1396,1.1402,1.1504,1.1509,1.1436,1.1308,1.1152,1.0955,1.0779,1.0636,1.0358,1.0426,1.0527,1.0507,1.0622,1.0684,1.1157,1.0965,1.0846,1.0604,1.0241,0.9881,0.9669,0.9617,0.9598,0.9501,0.9381,0.9198,0.8974,0.8662,0.8622,0.8628,0.871,0.8994,0.9036,0.8839,0.9247,0.8757,0.7562,0.7048,0.6229,0.5173,0.476,0.4847,0.5319,0.5394,0.5691,0.628,0.646,0.6607,0.6706,0.6438,0.6027,0.5516,0.4892,0.4591,0.465,0.529,0.5979,0.6775,0.6753,0.6786,0.6891,0.6792,0.67,0.6623,0.6372,0.6107,0.5876,0.5538,0.0,0.0,0.0,0.0,0.0,0.0,0.0,0.0,0.0,0.4842,0.5355,0.0,0.5749,0.0,0.6423,0.677,0.7166,0.7212,0.0,0.0,0.7665,0.7891,0.814,0.8621,0.9029,0.9306,0.9636,0.9974,1.0297,1.0426,1.0568,1.0718,1.0684,1.0711,1.0786,1.0833,1.0901,1.1029,1.1084,1.1111,1.1124,1.124,1.137,1.137,1.1463,1.1565,1.1529,1.1592,1.1606,1.1552,1.1341,1.1206,1.1152,1.09,1.0684,1.0603,1.0704,1.0765,1.0697,1.0752,1.0826,1.1381,1.1293,1.1164,1.1056,1.0885,1.0408,1.0181,1.012,1.012,1.0039,0.9897,0.9747,0.9462,0.9109,0.9074,0.8933,0.874,0.8915,0.8805,0.8484,0.8602,0.8001,0.6805,0.6217,0.5223,0.3883,0.3631,0.3602,0.3782,0.391,0.419,0.4664,0.4734,0.4809,0.4922,0.5487,0.5354,0.4488,0.4042,0.4118,0.4746,0.5142,0.5682,0.6363,0.6294,0.6297,0.6296,0.6282,0.6277,0.6374,0.6218,0.6145,0.6126,0.5875,0.5605,0.0,0.0,0.0,0.0,0.0,0.0,0.0,0.0,0.0,0.0,0.0,0.6403,0.0,0.7007,0.7285,0.775,0.7852,0.7981,0.8187,0.8439,0.8703,0.8866,0.9279,0.9618,0.9758,1.0035,1.0299,1.0561,1.0623,1.0745,1.1016,1.0968,1.0948,1.1023,1.1043,1.1077,1.1186,1.1254,1.1329,1.1355,1.1436,1.1491,1.1497,1.1565,1.1584,1.1584,1.1584,1.1584,1.1599,1.1369,1.12,1.1186,1.0921,1.0724,1.0711,1.086,1.0975,1.0853,1.0941,1.1009,1.1827,1.1837,1.1514,1.1393,1.1345,1.0859,1.0592,1.0509,1.0509,1.0357,1.0132,0.9885,0.9553,0.9148,0.9112,0.8835,0.8381,0.8335,0.8181,0.7836,0.7589,0.6855,0.5795,0.5146,0.398,0.2427,0.2328,0.2165,0.1934,0.2105,0.2371,0.2683,0.2718,0.2677,0.2685,0.4155,0.4321,0.3105,0.3007,0.3522,0.4644,0.4744,0.5016,0.5532,0.5477,0.5412,0.5479,0.5471,0.5634,0.588,0.5829,0.5932,0.6222,0.6035,0.5931,0.0,0.591,0.0,0.0,0.0,0.0,0.0,0.0,0.0,0.0,0.6695,0.7109,0.7665,0.7712,0.7896,0.8369,0.8539,0.8655,0.8818,0.9211,0.9469,0.9483,0.9819,1.0051,1.0071,1.0346,1.0609,1.0765,1.086,1.0995,1.1193,1.122,1.1234,1.1254,1.124,1.1234,1.1247,1.137,1.1457,1.1565,1.157,1.1613,1.1577,1.1613,1.1584,1.1584,1.1584,1.1584,1.1556,1.1389,1.124,1.1227,1.0975,1.0759,1.0806,1.0989,1.1097,1.0955,1.1043,1.1213,1.2057,1.2013,1.1589,1.1386,1.1269,1.054,1.0343,1.0592,1.0592,1.0112,0.9306,0.8876,0.8563,0.8324,0.8033,0.7885,0.7747,0.7582,0.7178,0.6545,0.6621,0.5793,0.4264,0.3768,0.2918,0.1805,0.1444,0.1402,0.1613,0.1635,0.1825,0.2152,0.2203,0.2068,0.177,0.0,0.0,0.0,0.1819,0.197,0.2419,0.2787,0.3268,0.3851,0.3845,0.0,0.4235,0.4356,0.4512,0.4718,0.5069,0.0,0.0,0.0,0.0,0.0,0.0,0.0,0.0,0.0,0.0,0.0,0.7231,0.7326,0.7212,0.7519,0.7905,0.8275,0.8342,0.8526,0.8968,0.9152,0.9273,0.9429,0.9697,0.9893,0.9907,1.0184,1.0453,1.0549,1.0718,1.088,1.105,1.1145,1.1213,1.1321,1.1348,1.1402,1.1511,1.1416,1.1396,1.1511,1.1473,1.1543,1.1613,1.1548,1.144,1.1584,1.1584,1.1584,1.1584,1.1584,1.1584,1.1584,1.147,1.1383,1.1376,1.1234,1.1091,1.1111,1.1159,1.1152,1.0955,1.113,1.1314,1.2277,0.0,1.1634,1.1381,0.0,1.0501,0.9981,0.9769,0.9613,0.914,0.8418,0.8158,0.7799,0.7304,0.7134,0.6646,0.5981,0.5859,0.5414,0.4718,0.4618,0.4029,0.2991,0.2623,0.1943,0.1066,0.0832,0.073,0.0758,0.0752,0.085,0.0988,0.1021,0.0966,0.0782,0.0827,0.1031,0.1346,0.1049,0.1129,0.1606,0.18,0.2102,0.2551,0.0,0.0,0.0,0.0,0.0,0.0,0.0,0.0,0.0,0.0,0.0,0.6825,0.7087,0.7251,0.7258,0.7438,0.7628,0.777,0.8221,0.8342,0.7974,0.8243,0.8547,0.8818,0.8907,0.9104,0.9442,0.9618,0.9744,0.993,1.0134,1.0258,1.0353,1.0549,1.0772,1.0914,1.1002,1.1111,1.1253,1.1308,1.1335,1.1477,1.1469,1.1496,1.1599,1.1558,1.1467,1.1319,1.0966,1.075,1.075,1.057,1.057,1.0678,1.075,1.0894,1.126,1.1296,1.1368,1.1541,1.1497,1.1431,1.1382,1.1302,1.12,1.1206,1.1261,1.1184,1.0943,1.1147,1.1396,1.2569,1.2483,1.1745,1.139,1.1277,1.0338,0.9286,0.827,0.0,0.0,0.0,0.6965,0.6533,0.5951,0.5848,0.5158,0.4049,0.3946,0.3571,0.2926,0.2657,0.2286,0.1882,0.1547,0.1077,0.0404,0.0404,0.0269,0.0,0.0,0.0,0.0,0.0,0.0,0.0,0.0,0.0309,0.0854,0.0546,0.0583,0.1141,0.109,0.1181,0.1472,0.1583,0.1791,0.2116,0.2573,0.3063,0.357,0.4164,0.4839,0.5576,0.6187,0.6756,0.7249,0.7693,0.797,0.7977,0.8108,0.8338,0.8689,0.907,0.9111,0.8662,0.8886,0.9088,0.9288,0.9437,0.9612,0.9876,1.0008,1.0143,1.0342,1.0473,1.0622,1.0711,1.086,1.1036,1.1206,1.1234,1.1295,1.1409,1.1359,1.1364,1.1442,1.1283,1.126,1.126,1.1289,1.1319,1.093,1.0353,0.9807,0.9657,0.9374,0.923,0.9518,0.9663,0.9915,1.0426,1.0642,1.0822,1.1002,1.1077,1.0989,1.0999,1.085,1.0864,1.0857,1.0929,1.0895,1.0648,1.0735,1.0972,1.282,1.2613,1.1834,1.1372,1.1042,0.9475,0.7697,0.5903,0.566,0.5347,0.4905,0.4148,0.3774,0.3662,0.3351,0.312,0.2909,0.2634,0.2245,0.0,0.1784,0.1413,0.074,0.0673,0.0471,0.0101,0.0,0.0067,0.0,0.0,0.0,0.0,0.0,0.0,0.0,0.0,0.0068,0.0135,0.0097,0.0093,0.0207,0.0171,0.0332,0.0573,0.0613,0.087,0.1398,0.1943,0.2492,0.3069,0.403,0.4893,0.5565,0.6487,0.7177,0.7554,0.819,0.8581,0.8587,0.8873,0.9158,0.9422,0.9595,0.9537,0.9145,0.934,0.9548,0.9713,0.9825,0.9994,1.0202,1.0337,1.0432,1.0473,1.0684,1.086,1.0887,1.1043,1.1192,1.1335,1.1362,1.1416,1.1473,1.125,1.1041,1.0966,1.0498,1.0023,0.9921,1.0462,1.0858,1.057,0.9879,0.9302,0.8719,0.8502,0.8177,0.8321,0.8533,0.8755,0.9044,0.9302,0.9518,0.9627,0.9676,0.9629,0.9629,0.9557,0.9589,0.9614,0.9574,0.9452,0.9417,0.9309,0.9502,1.3037,1.2882,1.221,1.1819,1.1468,0.928,0.7247,0.541,0.4171,0.3671,0.3644,0.2987,0.2601,0.2372,0.223,0.1934,0.1493,0.1354,0.1073,0.0757,0.0723,0.0551,0.0241,0.0239,0.0136,0.0,0.0,0.0,0.0,0.0,0.0,0.0,0.0,0.0,0.0,0.0,0.0,0.0,0.0,0.0,0.0,0.0,0.0056,0.0166,0.0191,0.0458,0.1067,0.1599,0.2238,0.2986,0.4067,0.4978,0.5625,0.6526,0.7247,0.7682,0.8333,0.8737,0.8816,0.926,0.9612,0.9798,0.9985,1.0022,0.9812,0.989,0.9998,1.0073,1.0202,1.0317,1.0392,1.0527,1.0616,1.0616,1.0786,1.0941,1.1063,1.1192,1.1376,1.1484,1.1518,1.1467,1.1289,1.0966,1.0534,1.0137,0.941,0.8863,0.861,0.8688,0.8863,0.8791,0.7887,0.7014,0.658,0.6,0.5818,0.6181,0.6395,0.6865,0.7521,0.796,0.8177,0.8574,0.8652,0.8646,0.861,0.8646,0.8646,0.8646,0.8616,0.8463,0.8126,0.7593,0.7825,1.3207,1.3159,1.2606,1.2115,1.1528,0.9192,0.7212,0.5462,0.3366,0.2495,0.2545,0.2028,0.1602,0.1334,0.1331,0.0998,0.0423,0.0388,0.0246,0.0,0.0,0.0,0.0,0.0,0.0,0.0,0.0,0.0,0.0,0.0,0.0,0.0,0.0,0.0,0.0,0.0,0.0,0.0,0.0,0.0,0.0,0.0,0.0,0.0,0.0,0.0304,0.0874,0.1364,0.2072,0.3028,0.4032,0.4873,0.5545,0.6411,0.7086,0.7531,0.8135,0.8603,0.886,0.9364,0.9682,0.9758,0.997,1.0069,1.0064,1.0135,1.0263,1.0326,1.0487,1.0595,1.0622,1.0738,1.0819,1.0826,1.0955,1.1097,1.124,1.1278,1.1342,1.1456,1.1325,1.1074,1.075,1.0275,0.9477,0.843,0.7779,0.7308,0.705,0.6471,0.6253,0.6148,0.5531,0.4987,0.4478,0.3823,0.3678,0.4112,0.4293,0.4875,0.5709,0.6108,0.6362,0.6761,0.6942,0.6869,0.6978,0.6978,0.6906,0.6833,0.6789,0.6741,0.6216,0.5689,0.5996,1.3302,1.3139,1.2752,1.181,1.0466,0.8985,0.735,0.5545,0.3418,0.2076,0.1456,0.0563,0.0,0.0148,0.0,0.0,0.0,0.0,0.0,0.0,0.0,0.0,0.0,0.0,0.0,0.0,0.0,0.0,0.0,0.0,0.0,0.0,0.0,0.0,0.0,0.0,0.0,0.0,0.0,0.0,0.0,0.0,0.0,0.0,0.0,0.0293,0.0843,0.1227,0.1984,0.318,0.387,0.4519,0.514,0.6013,0.6589,0.6737,0.7426,0.8105,0.8669,0.9076,0.9142,0.9048,0.9266,0.9446,0.9423,0.9654,1.0019,1.0333,1.0645,1.0752,1.088,1.0954,1.1022,1.1022,1.1163,1.1355,1.127,1.1184,1.1031,1.1038,1.0462,1.0023,0.9807,0.8899,0.7562,0.6036,0.5456,0.4947,0.4402,0.3894,0.3457,0.3278,0.3462,0.3896,0.3532,0.2914,0.2478,0.255,0.2841,0.3203,0.3567,0.3785,0.393,0.4475,0.4221,0.4257,0.4187,0.3932,0.4078,0.4402,0.4325,0.3977,0.3784,0.3632,0.4378,1.3197,1.2897,1.2725,1.1658,0.9983,0.8339,0.6625,0.4865,0.2965,0.1687,0.0895,0.0268,0.0,0.0,0.0,0.0,0.0,0.0,0.0,0.0,0.0,0.0,0.0,0.0,0.0,0.0,0.0,0.0,0.0,0.0,0.0,0.0,0.0,0.0,0.0,0.0,0.0,0.0,0.0,0.0,0.0,0.0,0.0,0.0,0.0,0.018,0.059,0.0913,0.1501,0.2384,0.3174,0.3834,0.4385,0.5092,0.5548,0.5663,0.6329,0.7077,0.7833,0.8005,0.8084,0.8138,0.8249,0.8423,0.8673,0.8832,0.8989,0.9234,0.9707,1.0082,1.0294,1.0235,1.0231,1.0452,1.0601,1.0613,1.0395,1.0376,1.0209,0.9735,0.9368,0.8899,0.8104,0.6761,0.5422,0.4296,0.3678,0.3136,0.2806,0.244,0.2149,0.1968,0.2078,0.1932,0.1822,0.1349,0.1131,0.124,0.1422,0.1604,0.2113,0.2295,0.2513,0.2732,0.2732,0.2732,0.2877,0.2806,0.2806,0.2733,0.2548,0.2426,0.2382,0.2153,0.2634,1.2593,1.2237,1.2039,1.0973,0.9273,0.766,0.5969,0.427,0.2606,0.1433,0.0592,0.0156,0.0,0.0,0.0,0.0,0.0,0.0,0.0,0.0,0.0,0.0,0.0,0.0,0.0,0.0,0.0,0.0,0.0,0.0,0.0,0.0,0.0,0.0,0.0,0.0,0.0,0.0,0.0,0.0,0.0,0.0,0.0,0.0,0.0,0.0124,0.0424,0.0665,0.1088,0.169,0.2379,0.2929,0.3367,0.3875,0.4273,0.4529,0.5137,0.5787,0.644,0.6663,0.6735,0.6732,0.6872,0.7065,0.7253,0.7449,0.7568,0.7626,0.7947,0.8329,0.9306,0.9305,0.9356,0.9608,0.973,0.9669,0.9462,0.9289,0.8863,0.8316,0.777,0.7173,0.5986,0.4601,0.3502,0.2913,0.2285,0.1768,0.1657,0.1401,0.1217,0.1216,0.0774,0.0588,0.0512,0.0401,0.0219,0.0292,0.0511,0.0729,0.113,0.1203,0.1276,0.1458,0.1604,0.164,0.1531,0.1604,0.0,0.0,0.0,0.0,0.1253,0.0,0.0,1.1299,1.0915,1.0399,0.9341,0.8081,0.6959,0.5566,0.3781,0.2464,0.14,0.0558,0.0158,0.0,0.0,0.0,0.0,0.0,0.0,0.0,0.0,0.0,0.0,0.0,0.0,0.0,0.0,0.0,0.0,0.0,0.0,0.0,0.0,0.0,0.0,0.0,0.0,0.0,0.0,0.0,0.0,0.0,0.0,0.0,0.0,0.0,0.0161,0.0417,0.0514,0.0802,0.1476,0.1571,0.1735,0.2091,0.2446,0.2788,0.322,0.3927,0.4359,0.4504,0.5058,0.5174,0.4675,0.5109,0.5344,0.4944,0.5389,0.574,0.5906,0.5443,0.5889,0.7447,0.805,0.8462,0.8616,0.8698,0.8672,0.8605,0.7647,0.72,0.6748,0.5743,0.4646,0.3385,0.268,0.2147,0.1544,0.0981,0.0641,0.0,0.0,0.0,0.0,0.0,0.015,0.0441,0.0257,0.0037,0.0,0.0,0.0,0.0,0.0109,0.0,0.0,0.0,0.0,0.0,0.0,0.0,0.0,0.0,0.0,0.0,0.0,0.0,0.9786,0.8984,0.7669,0.663,0.5831,0.4639,0.3411,0.2232,0.1477,0.0774,0.0283,0.0,0.0,0.0,0.0,0.0,0.0,0.0,0.0,0.0,0.0,0.0,0.0,0.0,0.0,0.0,0.0,0.0,0.0,0.0,0.0,0.0,0.0,0.0,0.0,0.0,0.0,0.0,0.0,0.0,0.0,0.0,0.0,0.0,0.0,0.0033,0.0194,0.0194,0.029,0.0548,0.0748,0.0915,0.108,0.1385,0.1759,0.2104,0.2402,0.2658,0.2934,0.3208,0.3244,0.3028,0.3217,0.3496,0.3499,0.3714,0.3887,0.3868,0.3751,0.3941,0.4327,0.5387,0.6348,0.6832,0.6917,0.668,0.6244,0.5738,0.5255,0.4439,0.3411,0.2598,0.2231,0.1628,0.1135,0.0871,0.0492,0.0,0.0,0.0,0.0,0.0,0.0,0.0038,0.015,0.0112,0.0,0.0,0.0,0.0,0.0,0.0,0.0,0.0,0.0,0.0,0.0,0.0,0.0,0.0,0.0,0.0,0.0,0.0,0.0,0.7346,0.644,0.5296,0.4383,0.374,0.2858,0.1926,0.1123,0.0829,0.0453,0.0,0.0,0.0,0.0,0.0,0.0,0.0,0.0,0.0,0.0,0.0,0.0,0.0,0.0,0.0,0.0,0.0,0.0,0.0,0.0,0.0,0.0,0.0,0.0,0.0,0.0,0.0,0.0,0.0,0.0,0.0,0.0,0.0,0.0,0.0,0.0,0.0,0.0,0.0,0.0,0.0231,0.0332,0.0367,0.0573,0.0849,0.1058,0.1204,0.1348,0.1627,0.1785,0.1809,0.1653,0.1806,0.2001,0.2173,0.2267,0.2351,0.232,0.2218,0.2043,0.2152,0.2831,0.381,0.4694,0.4926,0.4716,0.419,0.3893,0.3257,0.2393,0.1788,0.1411,0.0,0.0728,0.046,0.0383,0.0,0.0,0.0,0.0,0.0,0.0,0.0,0.0,0.0,0.0,0.0,0.0,0.0,0.0,0.0,0.0,0.0,0.0,0.0,0.0,0.0,0.0,0.0,0.0,0.0,0.0,0.0,0.0,0.0,0.3965,0.3557,0.3375,0.2844,0.2149,0.1935,0.1473,0.0755,0.0666,0.0373,0.0,0.0,0.0,0.0,0.0,0.0,0.0,0.0,0.0,0.0,0.0,0.0,0.0,0.0,0.0,0.0,0.0,0.0,0.0,0.0,0.0,0.0,0.0,0.0,0.0,0.0,0.0,0.0,0.0,0.0,0.0,0.0,0.0,0.0,0.0,0.0,0.0,0.0,0.0,0.0,0.0,0.0,0.0,0.0,0.0,0.0,0.035,0.0526,0.0598,0.0889,0.0938,0.0767,0.0959,0.1081,0.0902,0.1058,0.1249,0.1211,0.0986,0.0797,0.1064,0.1061,0.1513,0.261,0.3064,0.299,0.2768,0.216,0.1446,0.0884,0.0656,0.0465,0.0,0.0,0.0,0.0,0.0,0.0,0.0,0.0,0.0,0.0,0.0,0.0,0.0,0.0,0.0,0.0,0.0,0.0,0.0,0.0,0.0,0.0,0.0,0.0,0.0,0.0,0.0,0.0,0.0,0.0,0.0,0.0,0.0,0.2639,0.2444,0.1806,0.1366,0.1063,0.076,0.0463,0.0,0.0,0.0,0.0,0.0,0.0,0.0,0.0,0.0,0.0,0.0,0.0,0.0,0.0,0.0,0.0,0.0,0.0,0.0,0.0,0.0,0.0,0.0,0.0,0.0,0.0,0.0,0.0,0.0,0.0,0.0,0.0,0.0,0.0,0.0,0.0,0.0,0.0,0.0,0.0,0.0,0.0,0.0,0.0,0.0,0.0,0.0,0.0,0.0,0.0071,0.0179,0.0,0.0,0.0,0.0,0.0,0.0302,0.0189,0.0,0.0,0.0,0.0,0.0272,0.0311,0.0272,0.0696,0.1611,0.1726,0.1615,0.1431,0.0931,0.0505,0.0273,0.0195,0.0117,0.0,0.0,0.0,0.0,0.0,0.0,0.0,0.0,0.0,0.0,0.0,0.0,0.0,0.0,0.0,0.0,0.0,0.0,0.0,0.0,0.0,0.0,0.0,0.0,0.0,0.0,0.0,0.0,0.0,0.0,0.0,0.0,0.0,0.133,0.1235,0.0697,0.0431,0.0428,0.0127,0.0,0.0,0.0,0.0,0.0,0.0,0.0,0.0,0.0,0.0,0.0,0.0,0.0,0.0,0.0,0.0,0.0,0.0,0.0,0.0,0.0,0.0,0.0,0.0,0.0,0.0,0.0,0.0,0.0,0.0,0.0,0.0,0.0,0.0,0.0,0.0,0.0,0.0,0.0,0.0,0.0,0.0,0.0,0.0,0.0,0.0,0.0,0.0,0.0,0.0,0.0,0.0,0.0,0.0,0.0,0.0,0.0,0.0,0.0,0.0,0.0,0.0,0.0,0.0,0.0,0.0,0.0,0.0661,0.0776,0.0623,0.0353,0.0157,0.0,0.0,0.0,0.0,0.0,0.0,0.0,0.0,0.0,0.0,0.0,0.0,0.0,0.0,0.0,0.0,0.0,0.0,0.0,0.0,0.0,0.0,0.0,0.0,0.0,0.0,0.0,0.0,0.0,0.0,0.0,0.0,0.0,0.0,0.0,0.0,0.0,0.0,0.0,0.0,0.0,0.0,0.0,0.0,0.0,0.0,0.0,0.0,0.0,0.0,0.0,0.0,0.0,0.0,0.0,0.0,0.0,0.0,0.0,0.0,0.0,0.0,0.0,0.0,0.0,0.0,0.0,0.0,0.0,0.0,0.0,0.0,0.0,0.0,0.0,0.0,0.0,0.0,0.0,0.0,0.0,0.0,0.0,0.0,0.0,0.0,0.0,0.0,0.0,0.0,0.0,0.0,0.0,0.0,0.0,0.0,0.0,0.0,0.0,0.0,0.0,0.0,0.0,0.0,0.0,0.0,0.0,0.0,0.0,0.0,0.0,0.0,0.0,0.0,0.0,0.0,0.0,0.0,0.0,0.0,0.0,0.0,0.0,0.0,0.0,0.0,0.0,0.0,0.0,0.0,0.0,0.0,0.0,0.0,0.0,0.0,0.0,0.0,0.0,0.0,0.0,0.0,0.0,0.0,0.0,0.0,0.0,0.0,0.0,0.0,0.0,0.0,0.0,0.0,0.0,0.0,0.0,0.0,0.0,0.0,0.0,0.0,0.0,0.0,0.0,0.0,0.0,0.0,0.0,0.0,0.0,0.0,0.0,0.0,0.0,0.0,0.0,0.0,0.0,0.0,0.0,0.0,0.0,0.0,0.0,0.0,0.0,0.0,0.0,0.0,0.0,0.0,0.0,0.0,0.0,0.0,0.0,0.0,0.0,0.0,0.0,0.0,0.0,0.0,0.0,0.0,0.0,0.0,0.0,0.0,0.0,0.0,0.0,0.0,0.0,0.0,0.0,0.0,0.0,0.0,0.0,0.0,0.0,0.0,0.0,0.0,0.0,0.0,0.0,0.0,0.0,0.0,0.0,0.0,0.0,0.0,0.0,0.0,0.0,0.0,0.0,0.0,0.0,0.0,0.0,0.0,0.0,0.0,0.0,0.0,0.0,0.0,0.0,0.0,0.0,0.0,0.0,0.0,0.0,0.0,0.0,0.0,0.0,0.0,0.0,0.0,0.0,0.0,0.0,0.0,0.0,0.0,0.0,0.0,0.0,0.0,0.0,0.0,0.0,0.0,0.0,0.0,0.0,0.0,0.0,0.0,0.0,0.0,0.0,0.0,0.0,0.0,0.0,0.0,0.0,0.0,0.0,0.0,0.0,0.0,0.0,0.0,0.0,0.0,0.0,0.0,0.0,0.0,0.0,0.0,0.0,0.0,0.0,0.0,0.0,0.0,0.0,0.0,0.0,0.0,0.0,0.0,0.0,0.0,0.0,0.0,0.0,0.0,0.0,0.0,0.0,0.0,0.0,0.0,0.0,0.0,0.0,0.0,0.0,0.0,0.0,0.0,0.0,0.0,0.0,0.0,0.0,0.0,0.0,0.0,0.0,0.0,0.0,0.0,0.0,0.0,0.0,0.0,0.0,0.0,0.0,0.0,0.0,0.0,0.0,0.0,0.0,0.0,0.0,0.0,0.0,0.0,0.0,0.0,0.0,0.0,0.0,0.0,0.0,0.0,0.0,0.0,0.0,0.0,0.0,0.0,0.0,0.0,0.0,0.0,0.0,0.0,0.0,0.0,0.0,0.0,0.0,0.0,0.0,0.0,0.0,0.0,0.0,0.0,0.0,0.0,0.0,0.0,0.0,0.0,0.0,0.0,0.0,0.0,0.0,0.0,0.0,0.0,0.0,0.0,0.0,0.0,0.0,0.0,0.0,0.0,0.0,0.0,0.0,0.0,0.0,0.0,0.0,0.0,0.0,0.0,0.0,0.0,0.0,0.0,0.0,0.0,0.0,0.0,0.0,0.0,0.0,0.0,0.0,0.0,0.0,0.0,0.0,0.0,0.0,0.0,0.0,0.0,0.0,0.0,0.0,0.0,0.0,0.0,0.0,0.0,0.0,0.0,0.0,0.0,0.0,0.0,0.0,0.0,0.0,0.0,0.0,0.0,0.0,0.0,0.0,0.0,0.0,0.0,0.0,0.0,0.0,0.0,0.0,0.0,0.0,0.0,0.0,0.0,0.0,0.0,0.0,0.0,0.0,0.0,0.0,0.0,0.0,0.0,0.0,0.0,0.0,0.0,0.0,0.0,0.0,0.0,0.0,0.0,0.0,0.0,0.0,0.0,0.0,0.0,0.0,0.0,0.0,0.0,0.0,0.0,0.0,0.0,0.0,0.0,0.0,0.0,0.0,0.0,0.0,0.0,0.0,0.0,0.0,0.0,0.0,0.0,0.0,0.0,0.0,0.0,0.0,0.0,0.0,0.0,0.0,0.0,0.0,0.0,0.0,0.0,0.0,0.0,0.0,0.0,0.0,0.0,0.0,0.0,0.0,0.0,0.0,0.0,0.0,0.0,0.0,0.0,0.0,0.0,0.0,0.0,0.0,0.0,0.0,0.0,0.0,0.0,0.0,0.0,0.0,0.0,0.0,0.0,0.0,0.0,0.0,0.0,0.0,0.0,0.0,0.0,0.0,0.0,0.0,0.0,0.0,0.0,0.0,0.0,0.0,0.0,0.0,0.0,0.0,0.0,0.0,0.0,0.0,0.0,0.0,0.0,0.0,0.0,0.0,0.0,0.0,0.0,0.0,0.0,0.0,0.0,0.0,0.0,0.0,0.0,0.0,0.0,0.0,0.0,0.0,0.0,0.0,0.0,0.0,0.0,0.0,0.0,0.0,0.0,0.0,0.0,0.0,0.0,0.0,0.0,0.0,0.0,0.0,0.0,0.0,0.0,0.0,0.0,0.0,0.0,0.0,0.0,0.0,0.0,0.0,0.0,0.0,0.0,0.0,0.0,0.0,0.0,0.0,0.0,0.0,0.0,0.0,0.0,0.0,0.0,0.0,0.0,0.0,0.0,0.0,0.0,0.0,0.0,0.0,0.0,0.0,0.0,0.0,0.0,0.0,0.0,0.0,0.0,0.0,0.0,0.0,0.0,0.0,0.0,0.0,0.0,0.0,0.0,0.0,0.0,0.0,0.0,0.0,0.0,0.0,0.0,0.0,0.0,0.0,0.0,0.0,0.0,0.0,0.0,0.0,0.0,0.0,0.0,0.0,0.0,0.0,0.0,0.0,0.0,0.0,0.0,0.0,0.0,0.0,0.0,0.0,0.0,0.0,0.0,0.0,0.0,0.0,0.0,0.0,0.0,0.0,0.0,0.0,0.0,0.0,0.0,0.0,0.0,0.0,0.0,0.0,0.0,0.0,0.0,0.0,0.0,0.0,0.0,0.0,0.0,0.0,0.0,0.0,0.0,0.0,0.0,0.0,0.0,0.0,0.0,0.0,0.0,0.0,0.0,0.0,0.0,0.0,0.0,0.0,0.0,0.0,0.0,0.0,0.0,0.0,0.0,0.0,0.0,0.0,0.0,0.0,0.0,0.0,0.0,0.0,0.0,0.0,0.0,0.0,0.0,0.0,0.0,0.0,0.0,0.0,0.0,0.0,0.0,0.0,0.0,0.0,0.0,0.0,0.0,0.0,0.0,0.0,0.0,0.0,0.0,0.0,0.0,0.0,0.0,0.0,0.0,0.0,0.0,0.0,0.0,0.0,0.0,0.0,0.0,0.0,0.0,0.0,0.0,0.0,0.0,0.0,0.0,0.0,0.0,0.0,0.0,0.0,0.0,0.0,0.0,0.0,0.0,0.0,0.0,0.0,0.0,0.0,0.0,0.0,0.0,0.0,0.0,0.0,0.0,0.0,0.0,0.0,0.0,0.0,0.0,0.0,0.0,0.0,0.0,0.0,0.0,0.0,0.0,0.0,0.0,0.0,0.0,0.0,0.0,0.0,0.0,0.0,0.0,0.0,0.0,0.0,0.0,0.0,0.0,0.0,0.0,0.0,0.0,0.0,0.0,0.0,0.0,0.0,0.0,0.0,0.0,0.0,0.0,0.0,0.0,0.0,0.0,0.0,0.0,0.0,0.0,0.0,0.0,0.0,0.0,0.0,0.0,0.0,0.0,0.0,0.0,0.0,0.0,0.0,0.0,0.0,0.0,0.0,0.0,0.0,0.0,0.0,0.0,0.0,0.0,0.0,0.0,0.0,0.0,0.0,0.0,0.0,0.0,0.0,0.0,0.0,0.0,0.0,0.0,0.0,0.0,0.0,0.0,0.0,0.0,0.0,0.0,0.0,0.0,0.0,0.0,0.0,0.0,0.0,0.0,0.0,0.0,0.0,0.0,0.0,0.0,0.0,0.0,0.0,0.0,0.0,0.0,0.0,0.0,0.0,0.0,0.0,0.0,0.0,0.0,0.0,0.0,0.0,0.0,0.0,0.0,0.0,0.0,0.0,0.0,0.0,0.0,0.0,0.0,0.0,0.0,0.0,0.0,0.0,0.0,0.0,0.0,0.0,0.0,0.0,0.0,0.0,0.0,0.0,0.0,0.0,0.0,0.0,0.0,0.0,0.0,0.0,0.0,0.0,0.0,0.0,0.0,0.0,0.0,0.0,0.0,0.0,0.0,0.0,0.0,0.0,0.0,0.0,0.0,0.0,0.0,0.0,0.0,0.0,0.0,0.0,0.0,0.0,0.0,0.0,0.0,0.0,0.0,0.0,0.0,0.0,0.0,0.0,0.0,0.0,0.0,0.0,0.0,0.0,0.0,0.0,0.0,0.0,0.0,0.0,0.0,0.0,0.0,0.0,0.0,0.0,0.0,0.0,0.0,0.0,0.0,0.0,0.0,0.0,0.0,0.0,0.0,0.0,0.0,0.0,0.0,0.0,0.0,0.0,0.0,0.0,0.0,0.0,0.0,0.0,0.0,0.0,0.0,0.0,0.0,0.0,0.0,0.0,0.0,0.0,0.0,0.0,0.0,0.0,0.0,0.0,0.0,0.0,0.0,0.0,0.0,0.0,0.0,0.0,0.0,0.0,0.0,0.0,0.0,0.0,0.0,0.0,0.0,0.0,0.0,0.0,0.0,0.0,0.0,0.0,0.0,0.0,0.0,0.0,0.0,0.0,0.0,0.0,0.0,0.0,0.0,0.0,0.0,0.0,0.0,0.0,0.0,0.0,0.0,0.0,0.0,0.0,0.0,0.0,0.0,0.0,0.0,0.0,0.0,0.0,0.0,0.0,0.0,0.0,0.0,0.0,0.0,0.0,0.0,0.0,0.0,0.0,0.0,0.0,0.0,0.0,0.0,0.0,0.0,0.0,0.0,0.0,0.0,0.0,0.0,0.0,0.0,0.0,0.0,0.0,0.0,0.0,0.0,0.0,0.0,0.0,0.0,0.0,0.0,0.0,0.0,0.0,0.0,0.0,0.0,0.0,0.0,0.0,0.0,0.0,0.0,0.0,0.0,0.0,0.0,0.0,0.0,0.0,0.0,0.0,0.0,0.0,0.0,0.0,0.0,0.0,0.0,0.0,0.0,0.0,0.0,0.0,0.0,0.0,0.0,0.0,0.0,0.0,0.0,0.0,0.0,0.0,0.0,0.0,0.0,0.0,0.0,0.0,0.0,0.0,0.0,0.0,0.0,0.0,0.0,0.0,0.0,0.0,0.0,0.0,0.0,0.0,0.0,0.0,0.0,0.0,0.0,0.0,0.0,0.0,0.0,0.0,0.0,0.0,0.0,0.0,0.0,0.0,0.0,0.0,0.0,0.0,0.0,0.0,0.0,0.0,0.0,0.0,0.0,0.0,0.0,0.0,0.0,0.0,0.0,0.0,0.0,0.0,0.0,0.0,0.0,0.0,0.0,0.0,0.0,0.0,0.0,0.0,0.0,0.0,0.0,0.0,0.0,0.0,0.0,0.0,0.0,0.0,0.0,0.0,0.0,0.0,0.0,0.0,0.0,0.0,0.0,0.0,0.0,0.0,0.0,0.0,0.0,0.0,0.0,0.0,0.0,0.0,0.0,0.0,0.0,0.0,0.0,0.0,0.0,0.0,0.0,0.0,0.0,0.0,0.0,0.0,0.0,0.0,0.0,0.0,0.0,0.0,0.0,0.0,0.0,0.0,0.0,0.0,0.0,0.0,0.0,0.0,0.0,0.0,0.0,0.0,0.0,0.0,0.0,0.0,0.0,0.0,0.0,0.0,0.0,0.0,0.0,0.0,0.0,0.0,0.0,0.0,0.0,0.0,0.0,0.0,0.0,0.0,0.0,0.0,0.0,0.0,0.0,0.0,0.0,0.0,0.0,0.0,0.0,0.0,0.0,0.0,0.0,0.0,0.0,0.0,0.0,0.0,0.0,0.0,0.0,0.0,0.0,0.0,0.0,0.0,0.0,0.0,0.0,0.0,0.0,0.0,0.0,0.0,0.0,0.0,0.0,0.0,0.0,0.0,0.0,0.0,0.0,0.0,0.0,0.0,0.0,0.0,0.0,0.0,0.0,0.0,0.0,0.0,0.0,0.0,0.0,0.0,0.0,0.0,0.0,0.0,0.0,0.0,0.0,0.0,0.0,0.0,0.0,0.0,0.0,0.0,0.0,0.0,0.0,0.0,0.0,0.0,0.0,0.0,0.0,0.0,0.0,0.0,0.0,0.0,0.0,0.0,0.0,0.0,0.0,0.0,0.0,0.0,0.0,0.0,0.0,0.0,0.0,0.0,0.0,0.0,0.0,0.0,0.0,0.0,0.0,0.0,0.0,0.0,0.0,0.0,0.0,0.0,0.0,0.0,0.0,0.0,0.0,0.0,0.0,0.0,0.0,0.0,0.0,0.0,0.0,0.0,0.0,0.0,0.0,0.0,0.0,0.0,0.0,0.0,0.0,0.0,0.0,0.0,0.0,0.0,0.0,0.0,0.0,0.0,0.0,0.0,0.0,0.0,0.0,0.0,0.0,0.0,0.0,0.0,0.0,0.0,0.0,0.0,0.0,0.0,0.0,0.0,0.0,0.0,0.0,0.0,0.0,0.0,0.0,0.0,0.0,0.0,0.0,0.0,0.0,0.0,0.0,0.0,0.0,0.0,0.0,0.0,0.0,0.0,0.0,0.0,0.0,0.0,0.0,0.0,0.0,0.0,0.0,0.0,0.0,0.0,0.0,0.0,0.0,0.0,0.0,0.0,0.0,0.0,0.0,0.0,0.0,0.0,0.0,0.0,0.0,0.0,0.0,0.0,0.0,0.0,0.0,0.0,0.0,0.0,0.0,0.0,0.0,0.0,0.0,0.0,0.0,0.0,0.0,0.0,0.0,0.0,0.0,0.0,0.0,0.0,0.0,0.0,0.0,0.0,0.0,0.0,0.0,0.0,0.0,0.0,0.0,0.0,0.0,0.0,0.0,0.0,0.0,0.0,0.0,0.0,0.0,0.0,0.0,0.0,0.0,0.0,0.0,0.0,0.0,0.0,0.0,0.0,0.0,0.0,0.0,0.0,0.0,0.0,0.0,0.0,0.0,0.0,0.0,0.0,0.0,0.0,0.0,0.0,0.0,0.0,0.0,0.0,0.0,0.0,0.0,0.0,0.0,0.0,0.0,0.0,0.0,0.0,0.0,0.0,0.0,0.0,0.0,0.0,0.0,0.0,0.0,0.0,0.0,0.0,0.0,0.0,0.0,0.0,0.0,0.0,0.0,0.0,0.0,0.0,0.0,0.0,0.0,0.0,0.0,0.0,0.0,0.0,0.0,0.0,0.0,0.0,0.0,0.0,0.0,0.0,0.0,0.0,0.0,0.0,0.0,0.0,0.0,0.0,0.0,0.0,0.0,0.0,0.0,0.0,0.0,0.0,0.0,0.0,0.0,0.0,0.0,0.0,0.0,0.0,0.0,0.0,0.0,0.0,0.0,0.0,0.0,0.0,0.0,0.0,0.0,0.0,0.0,0.0,0.0,0.0,0.0,0.0,0.0,0.0,0.0,0.0,0.0,0.0,0.0,0.0,0.0,0.0,0.0,0.0,0.0,0.0,0.0,0.0,0.0,0.0,0.0,0.0,0.0,0.0,0.0,0.0,0.0,0.0,0.0,0.0,0.0,0.0,0.0,0.0,0.0,0.0,0.0,0.0,0.0,0.0,0.0,0.0,0.0,0.0,0.0,0.0,0.0,0.0,0.0,0.0,0.0,0.0,0.0,0.0,0.0,0.0,0.0,0.0,0.0,0.0,0.0,0.0,0.0,0.0,0.0,0.0,0.0,0.0,0.0,0.0,0.0,0.0,0.0,0.0,0.0,0.0,0.0,0.0,0.0,0.0,0.0,0.0,0.0,0.0,0.0,0.0,0.0,0.0,0.0,0.0,0.0,0.0,0.0,0.0,0.0,0.0,0.0,0.0,0.0,0.0,0.0,0.0,0.0,0.0,0.0,0.0,0.0,0.0,0.0,0.0,0.0,0.0,0.0,0.0,0.0,0.0,0.0,0.0,0.0,0.0,0.0,0.0,0.0,0.0,0.0,0.0,0.0,0.0,0.0,0.0,0.0,0.0,0.0,0.0,0.0,0.0,0.0,0.0,0.0,0.0,0.0,0.0,0.0,0.0,0.0,0.0,0.0,0.0,0.0,0.0,0.0,0.0,0.0,0.0,0.0,0.0,0.0,0.0,0.0,0.0,0.0,0.0,0.0,0.0,0.0,0.0,0.0,0.0,0.0,0.0,0.0,0.0,0.0,0.0,0.0,0.0,0.0,0.0,0.0,0.0,0.0,0.0,0.0,0.0,0.0,0.0,0.0,0.0,0.0,0.0,0.0,0.0,0.0,0.0,0.0,0.0,0.0,0.0,0.0,0.0,0.0,0.0,0.0,0.0,0.0,0.0,0.0,0.0,0.0,0.0,0.0,0.0,0.0,0.0,0.0,0.0,0.0,0.0,0.0,0.0,0.0,0.0,0.0,0.0,0.0,0.0,0.0,0.0,0.0,0.0,0.0,0.0,0.0,0.0,0.0,0.0,0.0,0.0,0.0,0.0,0.0,0.0,0.0,0.0,0.0,0.0,0.0,0.0,0.0,0.0,0.0,0.0,0.0,0.0,0.0,0.0,0.0,0.0,0.0,0.0,0.0,0.0,0.0,0.0,0.0,0.0,0.0,0.0,0.0,0.0,0.0,0.0,0.0,0.0,0.0,0.0,0.0,0.0,0.0,0.0,0.0,0.0,0.0,0.0,0.0,0.0,0.0,0.0,0.0,0.0,0.0,0.0,0.0,0.0,0.0,0.0,0.0,0.0,0.0,0.0,0.0,0.0,0.0,0.0,0.0,0.0,0.0,0.0,0.0,0.0,0.0,0.0,0.0,0.0,0.0,0.0,0.0,0.0,0.0,0.0,0.0,0.0,0.0,0.0,0.0,0.0,0.0,0.0,0.0,0.0,0.0,0.0,0.0,0.0,0.0,0.0,0.0,0.0,0.0,0.0,0.0,0.0,0.0,0.0,0.0,0.0,0.0,0.0,0.0,0.0,0.0,0.0,0.0,0.0,0.0,0.0,0.0,0.0,0.0,0.0,0.0,0.0,0.0,0.0,0.0,0.0,0.0,0.0,0.0,0.0,0.0,0.0,0.0,0.0,0.0,0.0,0.0,0.0,0.0,0.0,0.0,0.0,0.0,0.0,0.0,0.0,0.0,0.0,0.0,0.0,0.0,0.0,0.0,0.0,0.0,0.0,0.0,0.0,0.0,0.0,0.0,0.0,0.0,0.0,0.0,0.0,0.0,0.0,0.0,0.0,0.0,0.0,0.0,0.0,0.0,0.0,0.0,0.0,0.0,0.0,0.0,0.0,0.0,0.0,0.0,0.0,0.0,0.0,0.0,0.0,0.0,0.0,0.0,0.0,0.0,0.0,0.0,0.0,0.0,0.0,0.0,0.0,0.0,0.0,0.0,0.0,0.0,0.0,0.0,0.0,0.0,0.0,0.0,0.0,0.0,0.0,0.0,0.0,0.0,0.0,0.0,0.0,0.0,0.0,0.0,0.0,0.0,0.0,0.0,0.0,0.0,0.0,0.0,0.0,0.0,0.0,0.0,0.0,0.0,0.0,0.0,0.0,0.0,0.0,0.0,0.0,0.0,0.0,0.0,0.0,0.0,0.0,0.0,0.0,0.0,0.0,0.0,0.0,0.0,0.0,0.0,0.0,0.0,0.0,0.0,0.0,0.0,0.0,0.0,0.0,0.0,0.0,0.0,0.0,0.0,0.0,0.0,0.0,0.0,0.0,0.0,0.0,0.0,0.0,0.0,0.0,0.0,0.0,0.0,0.0,0.0,0.0,0.0,0.0,0.0,0.0,0.0,0.0,0.0,0.0,0.0,0.0,0.0,0.0,0.0,0.0,0.0,0.0,0.0,0.0,0.0,0.0,0.0,0.0,0.0,0.0,0.0,0.0,0.0,0.0,0.0,0.0,0.0,0.0,0.0,0.0,0.0,0.0,0.0,0.0,0.0,0.0,0.0,0.0,0.0,0.0,0.0,0.0,0.0,0.0,0.0,0.0,0.0,0.0,0.0,0.0,0.0,0.0,0.0,0.0,0.0,0.0,0.0,0.0,0.0,0.0,0.0,0.0,0.0,0.0,0.0,0.0,0.0,0.0,0.0,0.0,0.0,0.0,0.0,0.0,0.0,0.0,0.0,0.0,0.0,0.0,0.0,0.0,0.0,0.0,0.0,0.0,0.0,0.0,0.0,0.0,0.0,0.0,0.0,0.0,0.0,0.0,0.0,0.0,0.0,0.0,0.0,0.0,0.0,0.0,0.0,0.0,0.0,0.0,0.0,0.0,0.0,0.0,0.0,0.0,0.0,0.0,0.0,0.0,0.0,0.0,0.0,0.0,0.0,0.0,0.0,0.0,0.0,0.0,0.0,0.0,0.0,0.0,0.0,0.0,0.0,0.0,0.0,0.0,0.0,0.0,0.0,0.0,0.0,0.0,0.0,0.0,0.0,0.0,0.0,0.0,0.0,0.0,0.0,0.0,0.0,0.0,0.0,0.0,0.0,0.0,0.0,0.0,0.0,0.0,0.0,0.0,0.0,0.0,0.0,0.0,0.0,0.0,0.0,0.0,0.0,0.0,0.0,0.0,0.0,0.0,0.0,0.0,0.0,0.0,0.0,0.0,0.0,0.0,0.0,0.0,0.0,0.0,0.0,0.0,0.0,0.0,0.0,0.0,0.0,0.0,0.0,0.0,0.0,0.0,0.0,0.0,0.0,0.0,0.0,0.0,0.0,0.0,0.0,0.0,0.0,0.0,0.0,0.0,0.0,0.0,0.0,0.0,0.0,0.0,0.0,0.0,0.0,0.0,0.0,0.0,0.0,0.0,0.0,0.0,0.0,0.0,0.0,0.0,0.0,0.0,0.0,0.0,0.0,0.0,0.0,0.0,0.0,0.0,0.0,0.0,0.0,0.0,0.0,0.0,0.0,0.0,0.0,0.0,0.0,0.0,0.0,0.0,0.0,0.0,0.0,0.0,0.0,0.0,0.0,0.0,0.0,0.0,0.0,0.0,0.0,0.0,0.0,0.0,0.0,0.0,0.0,0.0,0.0,0.0,0.0,0.0,0.0,0.0,0.0,0.0,0.0,0.0,0.0,0.0,0.0,0.0,0.0,0.0,0.0,0.0,0.0,0.0,0.0,0.0,0.0,0.0,0.0,0.0,0.0,0.0,0.0,0.0,0.0,0.0,0.0,0.0,0.0,0.0,0.0,0.0,0.0,0.0,0.0,0.0,0.0,0.0,0.0,0.0,0.0,0.0,0.0,0.0,0.0,0.0,0.0,0.0,0.0,0.0,0.0,0.0,0.0,0.0,0.0,0.0,0.0,0.0,0.0,0.0,0.0,0.0,0.0,0.0,0.0,0.0,0.0,0.0,0.0,0.0,0.0,0.0,0.0,0.0,0.0,0.0,0.0,0.0,0.0,0.0,0.0,0.0,0.0,0.0,0.0,0.0,0.0,0.0,0.0,0.0,0.0,0.0,0.0,0.0,0.0,0.0,0.0,0.0,0.0,0.0,0.0,0.0,0.0,0.0,0.0,0.0,0.0,0.0,0.0,0.0,0.0,0.0,0.0,0.0,0.0,0.0,0.0,0.0,0.0,0.0,0.0,0.0,0.0,0.0,0.0,0.0,0.0,0.0,0.0,0.0,0.0,0.0,0.0,0.0,0.0,0.0,0.0,0.0,0.0,0.0,0.0,0.0,0.0,0.0,0.0,0.0,0.0,0.0,0.0,0.0,0.0,0.0,0.0,0.0,0.0,0.0,0.0,0.0,0.0,0.0,0.0,0.0,0.0,0.0,0.0,0.0,0.0,0.0,0.0,0.0,0.0,0.0,0.0,0.0,0.0,0.0,0.0,0.0,0.0,0.0,0.0,0.0,0.0,0.0,0.0,0.0,0.0,0.0,0.0,0.0,0.0,0.0,0.0,0.0,0.0,0.0,0.0,0.0,0.0,0.0,0.0,0.0,0.0,0.0,0.0,0.0,0.0,0.0,0.0,0.0,0.0,0.0,0.0,0.0,0.0,0.0,0.0,0.0,0.0,0.0,0.0,0.0,0.0,0.0,0.0,0.0,0.0,0.0,0.0,0.0,0.0,0.0,0.0,0.0,0.0,0.0,0.0,0.0,0.0,0.0,0.0,0.0,0.0,0.0,0.0,0.0,0.0,0.0,0.0,0.0,0.0,0.0,0.0,0.0,0.0,0.0,0.0,0.0,0.0,0.0,0.0,0.0,0.0,0.0,0.0,0.0,0.0,0.0,0.0,0.0,0.0,0.0,0.0,0.0,0.0,0.0,0.0,0.0,0.0,0.0,0.0,0.0,0.0,0.0,0.0,0.0,0.0,0.0,0.0,0.0,0.0,0.0,0.0,0.0,0.0,0.0,0.0,0.0,0.0,0.0,0.0,0.0,0.0,0.0,0.0,0.0,0.0,0.0,0.0,0.0,0.0,0.0,0.0,0.0,0.0,0.0,0.0,0.0,0.0,0.0,0.0,0.0,0.0,0.0,0.0,0.0,0.0,0.0,0.0,0.0,0.0,0.0,0.0,0.0,0.0,0.0,0.0,0.0,0.0,0.0,0.0,0.0,0.0,0.0,0.0,0.0,0.0,0.0,0.0,0.0,0.0,0.0,0.0,0.0,0.0,0.0,0.0,0.0,0.0,0.0,0.0,0.0,0.0,0.0,0.0,0.0,0.0,0.0,0.0,0.0,0.0,0.0,0.0,0.0,0.0,0.0,0.0,0.0,0.0,0.0,0.0,0.0,0.0,0.0,0.0,0.0,0.0,0.0,0.0,0.0,0.0,0.0,0.0,0.0,0.0,0.0,0.0,0.0,0.0,0.0,0.0,0.0,0.0,0.0,0.0,0.0,0.0,0.0,0.0,0.0,0.0,0.0,0.0,0.0,0.0,0.0,0.0,0.0,0.0,0.0,0.0,0.0,0.0,0.0,0.0,0.0,0.0,0.0,0.0,0.0,0.0,0.0,0.0,0.0,0.0,0.0,0.0,0.0,0.0,0.0,0.0,0.0,0.0,0.0,0.0,0.0,0.0,0.0,0.0,0.0,0.0,0.0,0.0,0.0,0.0,0.0,0.0,0.0,0.0,0.0,0.0,0.0,0.0,0.0,0.0,0.0,0.0,0.0,0.0,0.0,0.0,0.0,0.0,0.0,0.0,0.0,0.0,0.0,0.0,0.0,0.0,0.0,0.0,0.0,0.0,0.0,0.0,0.0,0.0,0.0,0.0,0.0,0.0,0.0,0.0,0.0,0.0,0.0,0.0,0.0,0.0,0.0,0.0,0.0,0.0,0.0,0.0,0.0,0.0,0.0,0.0,0.0,0.0,0.0,0.0,0.0,0.0,0.0,0.0]},{"header":{"parameterUnit":"m.s-1","parameterCategory":1,"la1":31.0,"la2":29.5877,"lo1":-88.7671,"lo2":-86.6584,"dy":0.0162,"dx":0.0185,"nx":115,"ny":88,"refTime":"2024-02-28T06:00:00:Z","depth":0,"parameterNumber":3,"parameterNumberName":"V-component_of_WINDS"},"data":[0.0,0.0,0.0,0.0,0.0,0.0,0.0,0.0,0.0,0.0,0.0,0.0,0.0,0.0,0.0,0.0,0.0,0.0,0.0,0.0,0.0,0.0,0.0,0.0,0.0,0.0,0.0,0.0,0.0,0.0,0.0,0.0,0.0,0.0,0.0,0.0,0.0,0.0,0.0,0.0,0.0,0.0,0.0,0.0,0.0,0.0,0.0,0.0,0.0,0.0,0.0,0.0,0.0,0.0,0.0,0.0,0.0,0.0,0.0,0.0,0.0,0.0,0.0,0.0,0.0,0.0,0.0,0.0,0.0,0.0,0.0,0.0,0.0,0.0,0.0,0.0,0.0,0.0,0.0,0.0,0.0,0.0,0.0,0.0,0.0,0.0,0.0,0.0,0.0,0.0,0.0,0.0,0.0,0.0,0.0,0.0,0.0,0.0,0.0,0.0,0.0,0.0,0.0,0.0,0.0,0.0,0.0,0.0,0.0,0.0,0.0,0.0,0.0,0.0,0.0,0.0,0.0,0.0,0.0,0.0,0.0,0.0,0.0,0.0,0.0,0.0,0.0,0.0,0.0,0.0,0.0,0.0,0.0,0.0,0.0,0.0,0.0,0.0,0.0,0.0,0.0,0.0,0.0,0.0,0.0,0.0,0.0,0.0,0.0,0.0,0.0,0.0,0.0,0.0,0.0,0.0,0.0,0.0,0.0,0.0,0.0,0.0,0.0,0.0,0.0,0.0,0.0,0.0,0.0,0.0,0.0,0.0,0.0,0.0,0.0,0.0,0.0,0.0,0.0,0.0,0.0,0.0,0.0,0.0,0.0,0.0,0.0,0.0,0.0,0.0,0.0,0.0,0.0,0.0,0.0,0.0,0.0,0.0,0.0,0.0,0.0,0.0,0.0,0.0,0.0,0.0,0.0,0.0,0.0,0.0,0.0,0.0,0.0,0.0,0.0,0.0,0.0,0.0,0.0,0.0,0.0,0.0,0.0,0.0,0.0,0.0,0.0,0.0,0.0,0.0,0.0,0.0,0.0,0.0,0.0,0.0,0.0,0.0,0.0,0.0,0.0,0.0,0.0,0.0,0.0,0.0,0.0,0.0,0.0,0.0,0.0,0.0,0.0,0.0,0.0,0.0,0.0,0.0,0.0,0.0,0.0,0.0,0.0,0.0,0.0,0.0,0.0,0.0,0.0,0.0,0.0,0.0,0.0,0.0,0.0,0.0,0.0,0.0,0.0,0.0,0.0,0.0,0.0,0.0,0.0,0.0,0.0,0.0,0.0,0.0,0.0,0.0,0.0,0.0,0.0,0.0,0.0,0.0,0.0,0.0,0.0,0.0,0.0,0.0,0.0,0.0,0.0,0.0,0.0,0.0,0.0,0.0,0.0,0.0,0.0,0.0,0.0,0.0,0.0,0.0,0.0,0.0,0.0,0.0,0.0,0.0,0.0,0.0,0.0,0.0,0.0,0.0,0.0,0.0,0.0,0.0,0.0,0.0,0.0,0.0,0.0,0.0,0.0,0.0,0.0,0.0,0.0,0.0,0.0,0.0,0.0,0.0,0.0,0.0,0.0,0.0,0.0,0.0,0.0,0.0,0.0,0.0,0.0,0.0,0.0,0.0,0.0,0.0,0.0,0.0,0.0,0.0,0.0,0.0,0.0,0.0,0.0,0.0,0.0,0.0,0.0,0.0,0.0,0.0,0.0,0.0,0.0,0.0,0.0,0.0,0.0,0.0,0.0,0.0,0.0,0.0,0.0,0.0,0.0,0.0,0.0,0.0,0.0,0.0,0.0,0.0,0.0,0.0,0.0,0.0,0.0,0.0,0.0,0.0,0.0,0.0,0.0,0.0,0.0,0.0,0.0,0.0,0.0,0.0,0.0,0.0,0.0,0.0,0.0,0.0,0.0,0.0,0.0,0.0,0.0,0.0,0.0,0.0,0.0,0.0,0.0,0.0,0.0,0.0,0.0,0.0,0.0,0.0,0.0,0.0,0.0,0.0,0.0,0.0,0.0,0.0,0.0,0.0,0.0,0.0,0.0,0.0,0.0,0.0,0.0,0.0,0.0,0.0,0.0,0.0,0.0,0.0,0.0,0.0,0.0,0.0,0.0,0.0,0.0,0.0,0.0,0.0,0.0,0.0,0.0,0.0,0.0,0.0,0.0,0.0,0.0,0.0,0.0,0.0,0.0,0.0,0.0,0.0,0.0,0.0,0.0,0.0,0.0,0.0,0.0,0.0,0.0,0.0,0.0,0.0,0.0,0.0,0.0,0.0,0.0,0.0,0.0,0.0,0.0,0.0,0.0,0.0,0.0,0.0,0.0,0.0,0.0,0.0,0.0,0.0,0.0,0.0,0.0,0.0,0.0,0.0,0.0,0.0,0.0,0.0,0.0,0.0,0.0,0.0,0.0,0.0,0.0,0.0,0.0,0.0,0.0,0.0,0.0,0.0,0.0,0.0,0.0,0.0,0.0,0.0,0.0,0.0,0.0,0.0,0.0,0.0,0.0,0.0,0.0,0.0,0.0,0.0,0.0,0.0,0.0,0.0,0.0,0.0,0.0,0.0,0.0,0.0,0.0,0.0,0.0,0.0,0.0,0.0,0.0,0.0,0.0,0.0,0.0,0.0,0.0,0.0,0.0,0.0,0.0,0.0,0.0,0.0,0.0,0.0,0.0,0.0,0.0,0.0,0.0,0.0,0.0,0.0,0.0,0.0,0.0,0.0,0.0,0.0,0.0,0.0,0.0,0.0,0.0,0.0,0.0,0.0,0.0,0.0,0.0,0.0,0.0,0.0,0.0,0.0,0.0,0.0,0.0,0.0,0.0,0.0,0.0,0.0,0.0,0.0,0.0,0.0,0.0,0.0,0.0,0.0,0.0,0.0,0.0,0.0,0.0,0.0,0.0,0.0,0.0,0.0,0.0,0.0,0.0,0.0,0.0,0.0,0.0,0.0,0.0,0.0,0.0,0.0,0.0,0.0,0.0,0.0,0.0,0.0,0.0,0.0,0.0,0.0,0.0,0.0,0.0,0.0,0.0,0.0,0.0,0.0,0.0,0.0,0.0,0.0,0.0,0.0,0.0,0.0,0.0,0.0,0.0,0.0,0.0,0.0,0.0,0.0,0.0,0.0,0.0,0.0,0.0,0.0,0.0,0.0,0.0,0.0,0.0,0.0,0.0,0.0,0.0,0.0,0.0,0.0,0.0,0.0,0.0,0.0,0.0,0.0,0.0,0.0,0.0,0.0,0.0,0.0,0.0,0.0,0.0,0.0,0.0,0.0,0.0,0.0,0.0,0.0,0.0,0.0,0.0,0.0,0.0,0.0,0.0,0.0,0.0,0.0,0.0,0.0,0.0,0.0,0.0,0.0,0.0,0.0,0.0,0.0,0.0,0.0,0.0,0.0,0.0,0.0,0.0,0.0,0.0,0.0,0.0,0.0,0.0,0.0,0.0,0.0,0.0,0.0,0.0,0.0,0.0,0.0,0.0,0.0,0.0,0.0,0.0,0.0,0.0,0.0,0.0,0.0,0.0,0.0,0.0,0.0,0.0,0.0,0.0,0.0,0.0,0.0,0.0,0.0,0.0,0.0,0.0,0.0,0.0,0.0,0.0,0.0,0.0,0.0,0.0,0.0,0.0,0.0,0.0,0.0,0.0,0.0,0.0,0.0,0.0,0.0,0.0,0.0,0.0,0.0,0.0,0.0,0.0,0.0,0.0,0.0,0.0,0.0,0.0,0.0,0.0,0.0,0.0,0.0,0.0,0.0,0.0,0.0,0.0,0.0,0.0,0.0,0.0,0.0,0.0,0.0,0.0,0.0,0.0,0.0,0.0,0.0,0.0,0.0,0.0,0.0,0.0,0.0,0.0,0.0,0.0,0.0,0.0,0.0,0.0,0.0,0.0,0.0,0.0,0.0,0.0,0.0,0.0,0.0,0.0,0.0,0.0,0.0,0.0,0.0,0.0,0.0,0.0,0.0,0.0,0.0,0.0,0.0,0.0,0.0,0.0,0.0,0.0,0.0,0.0,0.0,0.0,0.0,0.0,0.0,0.0,0.0,0.0,0.0,0.0,0.0,0.0,0.0,0.0,0.0,0.0,0.0,0.0,0.0,0.0,0.0,0.0,0.0,0.0,0.0,0.0,0.0,0.0,0.0,0.0,0.0,0.0,0.0,0.0,0.0,0.0,0.0,0.0,0.0,0.0,0.0,0.0,0.0,0.0,0.0,0.0,0.0,0.0,0.0,0.0,0.0,0.0,0.0,0.0,0.0,1.9626,0.0,0.0,0.0,0.0,0.0,0.0,0.0,0.0,0.0,0.0,0.0,0.0,0.0,0.0,0.0,0.0,0.0,0.0,0.0,0.0,0.0,0.0,0.0,0.0,0.0,0.0,0.0,0.0,0.0,0.0,0.0,0.0,0.0,0.0,0.0,0.0,0.0,0.0,0.0,0.0,0.0,0.0,0.0,0.0,0.0,0.0,0.0,0.0,0.0,0.0,0.0,0.0,0.0,0.0,0.0,0.0,0.0,0.0,0.0,0.0,0.0,0.0,0.0,0.0,0.0,0.0,0.0,0.0,0.0,0.0,0.0,0.0,0.0,0.0,0.0,0.0,0.0,0.0,0.0,0.0,0.0,0.0,0.0,0.0,0.0,0.0,0.0,0.0,0.0,0.0,0.0,0.0,0.0,0.0,0.0,0.0,0.0,0.0,0.0,0.0,0.0,0.0,0.0,0.0,0.0,0.0,0.0,0.0,0.0,0.0,1.9282,1.9282,1.945,1.9773,2.0318,0.0,0.0,0.0,0.0,0.0,0.0,0.0,0.0,0.0,0.0,0.0,0.0,0.0,0.0,0.0,0.0,0.0,0.0,0.0,0.0,0.0,0.0,0.0,0.0,0.0,0.0,0.0,0.0,0.0,0.0,0.0,0.0,0.0,0.0,0.0,0.0,0.0,0.0,0.0,0.0,0.0,0.0,0.0,0.0,0.0,0.0,0.0,0.0,0.0,0.0,0.0,0.0,0.0,0.0,0.0,0.0,0.0,0.0,0.0,0.0,0.0,0.0,0.0,0.0,0.0,0.0,0.0,0.0,0.0,0.0,0.0,0.0,0.0,0.0,0.0,0.0,0.0,0.0,0.0,0.0,0.0,0.0,0.0,0.0,0.0,0.0,0.0,0.0,0.0,0.0,0.0,0.0,0.0,0.0,0.0,0.0,0.0,0.0,0.0,0.0,0.0,0.0,0.0,0.0,0.0,0.0,0.0,0.0,0.0,0.0,0.0,0.0,1.9919,2.0532,2.1536,0.0,0.0,0.0,0.0,0.0,0.0,0.0,0.0,0.0,0.0,0.0,0.0,0.0,0.0,0.0,0.0,0.0,0.0,0.0,0.0,0.0,0.0,0.0,0.0,0.0,0.0,0.0,0.0,0.0,0.0,0.0,0.0,0.0,0.0,0.0,0.0,0.0,0.0,0.0,0.0,0.0,0.0,0.0,0.0,0.0,0.0,0.0,0.0,0.0,0.0,0.0,0.0,0.0,0.0,0.0,0.0,0.0,0.0,0.0,0.0,0.0,0.0,0.0,0.0,0.0,0.0,0.0,0.0,0.0,0.0,0.0,0.0,0.0,0.0,0.0,0.0,0.0,0.0,0.0,0.0,0.0,0.0,0.0,0.0,0.0,0.0,0.0,0.0,0.0,0.0,0.0,0.0,0.0,0.0,0.0,0.0,0.0,0.0,0.0,0.0,0.0,0.0,0.0,0.0,0.0,0.0,0.0,0.0,0.0,0.0,2.0425,2.0506,2.1306,0.0,2.3403,0.0,0.0,0.0,0.0,0.0,0.0,0.0,0.0,0.0,0.0,0.0,0.0,0.0,0.0,0.0,0.0,0.0,0.0,0.0,0.0,0.0,0.0,0.0,0.0,0.0,0.0,0.0,0.0,0.0,0.0,0.0,0.0,0.0,0.0,0.0,0.0,0.0,0.0,0.0,0.0,0.0,0.0,0.0,0.0,0.0,0.0,0.0,0.0,0.0,0.0,0.0,0.0,0.0,0.0,0.0,0.0,0.0,0.0,0.0,0.0,0.0,0.0,0.0,0.0,0.0,0.0,0.0,0.0,0.0,0.0,0.0,0.0,0.0,0.0,0.0,0.0,0.0,0.0,0.0,0.0,0.0,0.0,0.0,0.0,0.0,0.0,0.0,0.0,0.0,0.0,0.0,0.0,0.0,0.0,0.0,0.0,0.0,0.0,0.0,0.0,0.0,0.0,0.0,0.0,0.0,0.0,0.0,0.0,0.0,0.0,2.0531,2.0583,2.2038,2.2887,0.0,0.0,0.0,0.0,0.0,0.0,0.0,0.0,0.0,0.0,0.0,0.0,0.0,0.0,0.0,0.0,0.0,0.0,0.0,0.0,0.0,0.0,0.0,0.0,0.0,0.0,0.0,0.0,0.0,0.0,0.0,0.0,0.0,0.0,0.0,0.0,0.0,0.0,0.0,0.0,0.0,0.0,0.0,0.0,0.0,0.0,0.0,0.0,0.0,0.0,0.0,0.0,0.0,0.0,0.0,0.0,0.0,0.0,0.0,0.0,0.0,0.0,0.0,0.0,0.0,0.0,0.0,0.0,0.0,0.0,0.0,0.0,0.0,0.0,0.0,0.0,0.0,0.0,0.0,0.0,0.0,0.0,0.0,0.0,0.0,0.0,0.0,0.0,0.0,0.0,0.0,0.0,0.0,0.0,0.0,0.0,0.0,0.0,0.0,0.0,0.0,0.0,0.0,0.0,0.0,0.0,0.0,0.0,0.0,0.0,2.0335,2.1107,2.1684,2.2805,2.3235,2.2857,0.0,0.0,0.0,0.0,0.0,0.0,0.0,0.0,0.0,0.0,0.0,0.0,0.0,0.0,0.0,0.0,0.0,0.0,0.0,0.0,0.0,0.0,0.0,0.0,0.0,0.0,0.0,0.0,0.0,0.0,0.0,0.0,0.0,0.0,0.0,0.0,0.0,0.0,0.0,0.0,0.0,0.0,0.0,0.0,0.0,0.0,0.0,0.0,0.0,0.0,0.0,0.0,0.0,0.0,0.0,0.0,0.0,0.0,0.0,0.0,0.0,0.0,0.0,0.0,0.0,0.0,0.0,0.0,0.0,0.0,0.0,0.0,0.0,0.0,0.0,0.0,0.0,0.0,0.0,0.0,0.0,0.0,0.0,0.0,0.0,0.0,0.0,0.0,0.0,0.0,0.0,0.0,0.0,0.0,0.0,0.0,0.0,0.0,0.0,0.0,0.0,0.0,0.0,0.0,0.0,0.0,0.0,0.0,1.9352,2.0898,2.2528,2.4106,2.3775,2.3531,0.0,0.0,0.0,0.0,0.0,0.0,0.0,0.0,0.0,0.0,0.0,0.0,0.0,0.0,0.0,0.0,0.0,0.0,0.0,0.0,0.0,0.0,0.0,0.0,0.0,0.0,0.0,0.0,0.0,0.0,0.0,0.0,0.0,0.0,0.0,0.0,0.0,0.0,0.0,0.0,0.0,0.0,0.0,0.0,0.0,0.0,0.0,0.0,0.0,0.0,0.0,0.0,0.0,0.0,0.0,0.0,0.0,0.0,0.0,0.0,0.0,0.0,0.0,0.0,0.0,0.0,0.0,0.0,0.0,0.0,0.0,0.0,0.0,0.0,0.0,0.0,0.0,0.0,0.0,0.0,0.0,0.0,0.0,0.0,0.0,0.0,0.0,0.0,0.0,0.0,0.0,0.0,0.0,0.0,0.0,0.0,0.0,0.0,0.0,0.0,0.0,0.0,0.0,0.0,0.0,0.0,0.0,0.0,0.0,1.9356,2.1021,2.2761,2.4385,2.3911,2.3393,0.0,0.0,0.0,0.0,0.0,0.0,0.0,0.0,0.0,0.0,0.0,0.0,0.0,0.0,0.0,0.0,0.0,0.0,0.0,0.0,0.0,0.0,0.0,0.0,0.0,0.0,0.0,0.0,0.0,0.0,0.0,0.0,0.0,0.0,0.0,0.0,0.0,0.0,0.0,0.0,0.0,0.0,0.0,0.0,0.0,0.0,0.0,0.0,0.0,0.0,0.0,0.0,0.0,0.0,0.0,0.0,0.0,0.0,0.0,0.0,0.0,0.0,0.0,0.0,0.0,0.0,0.0,0.0,0.0,0.0,0.0,0.0,0.0,0.0,0.0,0.0,0.0,0.0,0.0,0.0,0.0,0.0,0.0,0.0,0.0,0.0,0.0,0.0,0.0,0.0,0.0,0.0,0.0,0.0,0.0,0.0,0.0,0.0,0.0,0.0,0.0,0.0,0.0,0.0,0.0,0.0,0.0,0.0,0.0,2.0217,0.0,2.3115,2.4508,2.3711,2.3026,0.0,0.0,0.0,0.0,0.0,0.0,0.0,0.0,0.0,0.0,0.0,0.0,0.0,0.0,0.0,0.0,0.0,0.0,0.0,0.0,0.0,0.0,0.0,0.0,0.0,0.0,0.0,0.0,0.0,0.0,0.0,0.0,0.0,0.0,0.0,0.0,0.0,0.0,0.0,0.0,0.0,0.0,0.0,0.0,0.0,0.0,0.0,0.0,0.0,0.0,0.0,0.0,0.0,0.0,0.0,0.0,0.0,0.0,0.0,0.0,0.0,0.0,0.0,0.0,0.0,0.0,0.0,0.0,0.0,0.0,0.0,0.0,0.0,0.0,0.0,0.0,0.0,0.0,0.0,0.0,0.0,0.0,0.0,0.0,0.0,0.0,0.0,0.0,0.0,0.0,0.0,0.0,0.0,0.0,0.0,0.0,0.0,0.0,0.0,0.0,0.0,0.0,0.0,0.0,0.0,0.0,0.0,0.0,2.0378,2.1971,2.2793,2.3734,2.4628,2.3332,2.255,0.0,0.0,0.0,0.0,0.0,0.0,0.0,0.0,0.0,0.0,0.0,0.0,0.0,0.0,0.0,0.0,0.0,0.0,0.0,0.0,0.0,0.0,0.0,0.0,0.0,0.0,0.0,0.0,0.0,0.0,0.0,0.0,0.0,0.0,0.0,0.0,0.0,0.0,0.0,0.0,0.0,0.0,0.0,0.0,0.0,0.0,0.0,0.0,0.0,0.0,0.0,0.0,0.0,0.0,0.0,0.0,0.0,0.0,0.0,0.0,0.0,0.0,0.0,0.0,0.0,0.0,0.0,0.0,0.0,0.0,0.0,0.0,0.0,0.0,0.0,0.0,0.0,0.0,0.0,0.0,0.0,0.0,0.0,0.0,0.0,0.0,0.0,0.0,0.0,0.0,0.0,0.0,0.0,0.0,0.0,0.0,0.0,0.0,0.0,0.0,0.0,0.0,0.0,0.0,0.0,0.0,0.0,0.0,0.0,2.3876,2.4155,2.4716,2.5593,2.4742,2.4011,0.0,0.0,0.0,0.0,0.0,0.0,0.0,0.0,0.0,0.0,0.0,0.0,0.0,0.0,0.0,0.0,0.0,0.0,0.0,0.0,0.0,0.0,0.0,0.0,0.0,0.0,0.0,0.0,0.0,0.0,0.0,0.0,0.0,0.0,0.0,0.0,0.0,0.0,0.0,0.0,0.0,0.0,0.0,0.0,0.0,0.0,0.0,0.0,0.0,0.0,0.0,0.0,0.0,0.0,0.0,0.0,0.0,0.0,0.0,0.0,0.0,0.0,0.0,0.0,0.0,0.0,0.0,0.0,0.0,0.0,0.0,0.0,0.0,0.0,0.0,0.0,0.0,0.0,0.0,0.0,0.0,0.0,0.0,0.0,0.0,0.0,0.0,0.0,0.0,0.0,0.0,0.0,0.0,0.0,0.0,0.0,0.0,0.0,0.0,0.0,0.0,0.0,0.0,0.0,0.0,0.0,0.0,0.0,0.0,2.7146,2.6287,2.6203,2.7147,2.5838,2.4926,2.4407,0.0,0.0,0.0,0.0,0.0,0.0,0.0,0.0,0.0,0.0,0.0,0.0,0.0,0.0,0.0,0.0,0.0,0.0,0.0,0.0,0.0,0.0,0.0,0.0,0.0,0.0,0.0,0.0,0.0,0.0,0.0,0.0,0.0,0.0,0.0,0.0,0.0,0.0,0.0,0.0,0.0,0.0,0.0,0.0,0.0,0.0,0.0,0.0,0.0,0.0,0.0,0.0,0.0,0.0,0.0,0.0,0.0,0.0,0.0,0.0,0.0,0.0,0.0,0.0,0.0,0.0,0.0,0.0,0.0,0.0,0.0,0.0,0.0,0.0,0.0,0.0,0.0,0.0,0.0,0.0,0.0,0.0,0.0,0.0,0.0,0.0,0.0,0.0,0.0,0.0,0.0,0.0,0.0,0.0,0.0,0.0,0.0,0.0,0.0,0.0,0.0,0.0,0.0,0.0,0.0,0.0,0.0,0.0,3.1527,2.9142,2.8269,2.9046,2.6812,2.5491,0.0,0.0,0.0,0.0,0.0,0.0,0.0,0.0,0.0,0.0,0.0,0.0,0.0,0.0,0.0,0.0,0.0,0.0,0.0,0.0,0.0,0.0,0.0,0.0,0.0,0.0,0.0,0.0,0.0,0.0,0.0,0.0,0.0,0.0,0.0,0.0,0.0,0.0,0.0,0.0,0.0,0.0,0.0,0.0,0.0,0.0,0.0,0.0,0.0,0.0,0.0,0.0,0.0,0.0,0.0,0.0,0.0,0.0,0.0,0.0,0.0,0.0,0.0,0.0,0.0,0.0,0.0,0.0,0.0,0.0,0.0,0.0,0.0,0.0,0.0,0.0,0.0,0.0,0.0,0.0,0.0,0.0,0.0,0.0,0.0,0.0,0.0,0.0,0.0,0.0,0.0,0.0,0.0,0.0,0.0,0.0,0.0,0.0,0.0,0.0,0.0,0.0,0.0,0.0,0.0,0.0,0.0,0.0,0.0,3.2353,3.3001,3.2833,3.1764,2.9944,2.8372,0.0,0.0,0.0,0.0,0.0,0.0,0.0,0.0,0.0,0.0,0.0,0.0,0.0,0.0,0.0,0.0,0.0,0.0,0.0,0.0,0.0,0.0,0.0,0.0,0.0,0.0,0.0,0.0,0.0,0.0,0.0,0.0,0.0,0.0,0.0,0.0,0.0,0.0,0.0,0.0,0.0,0.0,0.0,0.0,0.0,0.0,0.0,0.0,0.0,0.0,0.0,0.0,0.0,0.0,0.0,0.0,0.0,0.0,0.0,0.0,0.0,0.0,0.0,0.0,0.0,0.0,0.0,0.0,0.0,0.0,0.0,0.0,0.0,0.0,0.0,0.0,0.0,0.0,0.0,0.0,0.0,0.0,0.0,0.0,0.0,0.0,0.0,0.0,0.0,0.0,0.0,0.0,0.0,0.0,0.0,0.0,0.0,0.0,0.0,0.0,0.0,0.0,0.0,0.0,0.0,0.0,0.0,0.0,3.2574,3.4917,3.5972,3.6192,3.5544,3.2497,3.0098,0.0,0.0,0.0,0.0,0.0,0.0,0.0,0.0,0.0,0.0,0.0,0.0,0.0,0.0,0.0,0.0,0.0,0.0,0.0,0.0,0.0,0.0,0.0,0.0,0.0,0.0,0.0,0.0,0.0,0.0,0.0,0.0,0.0,0.0,0.0,0.0,0.0,0.0,0.0,0.0,0.0,0.0,0.0,0.0,0.0,0.0,0.0,0.0,0.0,0.0,0.0,0.0,0.0,0.0,0.0,0.0,0.0,0.0,0.0,0.0,0.0,0.0,0.0,0.0,0.0,0.0,0.0,0.0,0.0,0.0,0.0,0.0,0.0,0.0,0.0,0.0,0.0,0.0,0.0,0.0,0.0,0.0,0.0,0.0,0.0,0.0,0.0,0.0,0.0,0.0,0.0,0.0,0.0,0.0,0.0,0.0,0.0,0.0,0.0,0.0,0.0,0.0,0.0,0.0,0.0,0.0,0.0,0.0,3.4664,3.793,3.8165,3.8627,3.9246,3.4587,3.1083,0.0,0.0,0.0,0.0,0.0,0.0,0.0,0.0,0.0,0.0,0.0,0.0,0.0,0.0,0.0,0.0,0.0,0.0,0.0,0.0,0.0,0.0,0.0,0.0,0.0,0.0,0.0,0.0,0.0,0.0,0.0,0.0,0.0,0.0,0.0,0.0,0.0,0.0,0.0,0.0,0.0,0.0,0.0,0.0,0.0,0.0,0.0,0.0,0.0,0.0,0.0,0.0,0.0,0.0,0.0,0.0,0.0,0.0,0.0,0.0,0.0,0.0,0.0,0.0,0.0,0.0,0.0,0.0,0.0,0.0,0.0,0.0,0.0,0.0,0.0,0.0,0.0,0.0,0.0,0.0,0.0,0.0,0.0,0.0,0.0,0.0,0.0,0.0,0.0,0.0,0.0,0.0,0.0,0.0,0.0,0.0,0.0,0.0,0.0,0.0,0.0,0.0,0.0,0.0,0.0,0.0,0.0,0.0,3.5241,3.793,3.9281,4.0054,4.0208,3.5972,3.2548,0.0,0.0,0.0,0.0,0.0,0.0,0.0,0.0,0.0,0.0,0.0,0.0,0.0,0.0,0.0,0.0,0.0,0.0,0.0,0.0,0.0,0.0,0.0,0.0,0.0,0.0,0.0,0.0,0.0,0.0,0.0,0.0,0.0,0.0,0.0,0.0,0.0,0.0,0.0,0.0,0.0,0.0,0.0,0.0,0.0,0.0,0.0,0.0,2.7508,0.0,0.0,0.0,0.0,0.0,0.0,0.0,0.0,0.0,0.0,0.0,0.0,0.0,0.0,0.0,0.0,0.0,0.0,0.0,0.0,0.0,0.0,0.0,0.0,0.0,0.0,0.0,0.0,0.0,0.0,0.0,0.0,0.0,0.0,0.0,0.0,0.0,0.0,0.0,0.0,0.0,0.0,0.0,0.0,0.0,0.0,0.0,0.0,0.0,0.0,0.0,0.0,0.0,0.0,0.0,0.0,0.0,0.0,0.0,3.7199,3.97,4.0666,4.0896,4.04,3.6776,3.3619,0.0,0.0,0.0,0.0,0.0,0.0,0.0,0.0,0.0,0.0,0.0,0.0,0.0,0.0,0.0,0.0,0.0,0.0,0.0,0.0,0.0,0.0,0.0,0.0,0.0,0.0,0.0,0.0,0.0,0.0,0.0,0.0,0.0,0.0,0.0,0.0,0.0,0.0,0.0,0.0,0.0,0.0,0.0,0.0,0.0,0.0,0.0,0.0,0.0,0.0,0.0,0.0,0.0,0.0,0.0,0.0,0.0,0.0,0.0,0.0,0.0,0.0,0.0,0.0,0.0,0.0,0.0,0.0,0.0,0.0,0.0,0.0,0.0,0.0,0.0,0.0,0.0,0.0,0.0,0.0,0.0,0.0,0.0,0.0,0.0,0.0,0.0,0.0,0.0,0.0,0.0,0.0,0.0,0.0,0.0,0.0,0.0,0.0,0.0,0.0,0.0,0.0,0.0,0.0,0.0,0.0,0.0,3.5853,3.9238,4.1696,4.1812,4.147,4.0669,3.7427,3.4423,3.1772,0.0,0.0,0.0,0.0,0.0,0.0,0.0,0.0,0.0,0.0,0.0,0.0,0.0,0.0,0.0,0.0,0.0,0.0,0.0,0.0,0.0,0.0,0.0,0.0,0.0,0.0,0.0,0.0,0.0,0.0,0.0,0.0,0.0,0.0,0.0,0.0,0.0,0.0,2.6115,2.8352,0.0,0.0,0.0,0.0,0.0,0.0,0.0,0.0,3.0808,0.0,0.0,0.0,0.0,0.0,0.0,0.0,0.0,0.0,0.0,0.0,0.0,0.0,0.0,0.0,0.0,0.0,0.0,0.0,0.0,0.0,0.0,0.0,0.0,0.0,0.0,0.0,0.0,0.0,0.0,0.0,0.0,0.0,0.0,0.0,0.0,0.0,0.0,0.0,0.0,0.0,0.0,0.0,0.0,0.0,0.0,0.0,0.0,0.0,0.0,0.0,0.0,0.0,0.0,0.0,0.0,3.1695,3.5853,3.9235,4.1735,4.1812,4.1735,4.1504,3.8273,3.5003,3.1811,0.0,0.0,0.0,0.0,0.0,0.0,0.0,0.0,0.0,0.0,0.0,0.0,0.0,0.0,0.0,0.0,0.0,0.0,0.0,0.0,0.0,0.0,0.0,0.0,0.0,0.0,0.0,0.0,0.0,0.0,0.0,0.0,0.0,0.0,0.0,0.0,0.0,0.0,0.0,3.224,3.3359,0.0,0.0,0.0,0.0,0.0,0.0,0.0,0.0,3.1891,0.0,0.0,0.0,0.0,0.0,0.0,0.0,0.0,0.0,0.0,0.0,0.0,0.0,0.0,0.0,0.0,0.0,0.0,0.0,0.0,0.0,0.0,0.0,0.0,0.0,0.0,0.0,0.0,0.0,0.0,0.0,0.0,0.0,0.0,0.0,0.0,0.0,0.0,0.0,0.0,0.0,0.0,0.0,0.0,0.0,0.0,0.0,0.0,0.0,0.0,0.0,0.0,0.0,0.0,0.0,3.3048,3.7165,4.0354,4.2393,4.2466,4.2043,4.1123,3.785,3.4462,0.0,0.0,0.0,0.0,0.0,0.0,0.0,0.0,0.0,0.0,0.0,0.0,0.0,0.0,0.0,0.0,0.0,0.0,0.0,0.0,0.0,0.0,0.0,0.0,0.0,0.0,0.0,0.0,0.0,0.0,0.0,0.0,0.0,0.0,0.0,0.0,0.0,0.0,0.0,0.0,3.4157,3.5503,3.5507,0.0,0.0,0.0,0.0,0.0,0.0,3.5161,3.4311,0.0,0.0,0.0,0.0,0.0,0.0,0.0,0.0,0.0,0.0,0.0,0.0,0.0,0.0,0.0,0.0,0.0,0.0,0.0,0.0,0.0,0.0,0.0,0.0,0.0,0.0,0.0,0.0,0.0,0.0,0.0,0.0,0.0,0.0,0.0,0.0,0.0,0.0,0.0,0.0,0.0,0.0,0.0,0.0,0.0,0.0,0.0,0.0,0.0,0.0,0.0,0.0,0.0,0.0,0.0,3.4472,3.878,4.1781,4.3278,4.3513,4.2628,4.0516,3.743,3.4077,0.0,0.0,0.0,0.0,0.0,0.0,0.0,0.0,0.0,0.0,0.0,0.0,0.0,0.0,0.0,0.0,0.0,0.0,0.0,0.0,0.0,0.0,0.0,0.0,0.0,0.0,0.0,0.0,0.0,0.0,0.0,0.0,0.0,0.0,0.0,0.0,0.0,0.0,0.0,0.0,0.0,3.7276,3.7469,3.82,0.0,0.0,0.0,0.0,3.8392,3.7777,0.0,0.0,0.0,0.0,0.0,0.0,0.0,0.0,0.0,0.0,0.0,0.0,0.0,0.0,0.0,0.0,0.0,0.0,0.0,0.0,0.0,0.0,0.0,0.0,0.0,0.0,0.0,0.0,0.0,0.0,0.0,0.0,0.0,0.0,0.0,0.0,0.0,0.0,0.0,0.0,0.0,0.0,0.0,0.0,0.0,0.0,0.0,0.0,0.0,0.0,0.0,0.0,0.0,0.0,0.0,0.0,3.5423,4.0277,4.3239,4.4128,4.4898,4.3786,4.0593,3.793,3.4615,0.0,0.0,0.0,0.0,0.0,0.0,0.0,0.0,0.0,0.0,0.0,0.0,0.0,0.0,0.0,0.0,0.0,0.0,0.0,0.0,0.0,0.0,0.0,0.0,0.0,0.0,0.0,0.0,0.0,0.0,0.0,0.0,0.0,0.0,0.0,0.0,0.0,0.0,0.0,0.0,0.0,3.9281,3.9977,4.0816,4.1008,0.0,0.0,4.0089,4.0204,3.9511,0.0,0.0,0.0,0.0,0.0,0.0,0.0,0.0,0.0,0.0,0.0,0.0,0.0,0.0,0.0,0.0,0.0,0.0,0.0,0.0,0.0,0.0,0.0,0.0,0.0,0.0,0.0,0.0,0.0,0.0,0.0,0.0,0.0,0.0,0.0,0.0,0.0,0.0,0.0,0.0,0.0,0.0,0.0,0.0,0.0,0.0,0.0,0.0,0.0,0.0,0.0,0.0,0.0,0.0,0.0,3.3196,3.6192,4.0735,4.3705,4.4975,4.5398,4.4436,4.2008,3.8542,3.4965,0.0,0.0,0.0,0.0,0.0,0.0,0.0,0.0,0.0,0.0,0.0,0.0,0.0,0.0,0.0,0.0,0.0,0.0,0.0,0.0,0.0,0.0,0.0,0.0,0.0,0.0,0.0,0.0,0.0,0.0,0.0,0.0,0.0,0.0,0.0,0.0,0.0,0.0,0.0,0.0,0.0,0.0,4.2474,4.3816,0.0,0.0,0.0,4.359,4.4047,0.0,0.0,0.0,0.0,0.0,0.0,0.0,0.0,0.0,0.0,0.0,0.0,0.0,0.0,0.0,0.0,0.0,0.0,0.0,0.0,0.0,0.0,0.0,0.0,0.0,0.0,0.0,0.0,0.0,0.0,0.0,0.0,0.0,0.0,0.0,0.0,0.0,0.0,0.0,0.0,0.0,0.0,0.0,0.0,0.0,0.0,0.0,0.0,0.0,0.0,0.0,0.0,0.0,0.0,0.0,0.0,0.0,3.735,4.1546,4.4513,4.6167,4.6436,4.5475,4.3124,3.9546,0.0,0.0,0.0,0.0,0.0,0.0,0.0,0.0,0.0,0.0,0.0,0.0,0.0,0.0,0.0,0.0,0.0,0.0,0.0,0.0,0.0,0.0,0.0,0.0,0.0,0.0,0.0,1.7736,0.0,0.0,0.0,0.0,0.0,0.0,0.0,0.0,0.0,0.0,0.0,0.0,0.0,0.0,4.2816,4.4701,4.6432,4.7355,0.0,0.0,4.7014,4.7471,4.6086,4.4316,0.0,0.0,0.0,0.0,0.0,0.0,0.0,0.0,0.0,0.0,0.0,0.0,0.0,0.0,0.0,0.0,0.0,0.0,0.0,0.0,0.0,0.0,0.0,0.0,0.0,0.0,0.0,0.0,0.0,0.0,0.0,0.0,0.0,0.0,0.0,0.0,0.0,0.0,0.0,0.0,0.0,0.0,0.0,0.0,0.0,0.0,0.0,0.0,0.0,0.0,0.0,0.0,0.0,0.0,0.0,3.9088,4.3282,4.6244,4.7894,4.874,4.7201,4.3239,4.1243,3.7549,0.0,0.0,0.0,0.0,0.0,0.0,0.0,0.0,0.0,0.0,0.0,0.0,0.0,0.0,0.0,0.0,0.0,0.0,0.0,0.0,0.0,0.0,0.0,0.0,0.0,0.0,0.0,0.0,0.0,0.0,0.0,0.0,0.0,0.0,0.0,0.0,0.0,0.0,0.0,0.0,0.0,4.3927,4.6389,4.8163,4.951,0.0,0.0,5.0091,4.936,4.7812,4.5889,4.3431,0.0,0.0,0.0,0.0,0.0,0.0,0.0,0.0,0.0,0.0,0.0,0.0,0.0,0.0,0.0,0.0,0.0,0.0,0.0,0.0,0.0,0.0,0.0,0.0,0.0,0.0,0.0,0.0,0.0,0.0,0.0,0.0,0.0,0.0,0.0,0.0,0.0,0.0,0.0,0.0,0.0,0.0,0.0,0.0,0.0,0.0,0.0,0.0,0.0,0.0,0.0,0.0,0.0,3.5007,3.9281,4.3436,4.6937,4.9548,4.9514,4.8355,4.6235,4.2474,3.8473,0.0,0.0,0.0,0.0,0.0,0.0,0.0,0.0,0.0,0.0,0.0,0.0,0.0,0.0,0.0,0.0,0.0,0.0,0.0,0.0,0.0,0.0,0.0,0.0,0.0,0.0,0.0,0.0,2.2932,2.3432,2.4272,0.0,0.0,0.0,0.0,0.0,0.0,0.0,0.0,0.0,0.0,4.6355,4.8899,5.0664,0.0,0.0,5.2241,5.1933,5.1048,4.9505,4.774,4.5774,4.262,0.0,0.0,0.0,0.0,0.0,0.0,0.0,0.0,0.0,0.0,0.0,0.0,0.0,0.0,0.0,0.0,0.0,0.0,0.0,0.0,0.0,0.0,0.0,0.0,0.0,0.0,0.0,0.0,0.0,0.0,0.0,0.0,0.0,0.0,0.0,0.0,0.0,0.0,0.0,0.0,0.0,0.0,0.0,0.0,0.0,0.0,0.0,0.0,0.0,0.0,0.0,0.0,3.53,4.0034,4.3754,4.7311,5.0696,5.0171,4.9208,4.7764,4.3805,3.9868,0.0,0.0,0.0,0.0,0.0,0.0,0.0,0.0,0.0,0.0,0.0,0.0,0.0,0.0,0.0,0.0,0.0,0.0,0.0,0.0,0.0,0.0,0.0,0.0,0.0,0.0,0.0,0.0,2.4856,2.4969,2.5269,0.0,0.0,0.0,0.0,0.0,0.0,0.0,0.0,0.0,0.0,4.8586,5.1092,5.2664,5.3664,5.3895,5.3933,5.3549,5.2467,5.1082,4.9466,4.7582,0.0,0.0,0.0,0.0,0.0,0.0,0.0,0.0,0.0,0.0,0.0,0.0,0.0,0.0,0.0,0.0,0.0,0.0,0.0,0.0,0.0,0.0,0.0,0.0,0.0,0.0,0.0,0.0,0.0,0.0,2.2103,0.0,0.0,0.0,0.0,0.0,0.0,0.0,0.0,0.0,0.0,0.0,0.0,0.0,0.0,0.0,0.0,0.0,0.0,0.0,0.0,0.0,0.0,3.5913,4.1743,4.4476,4.748,5.076,5.0874,4.968,4.7291,4.5359,4.2009,3.688,0.0,0.0,0.0,0.0,0.0,0.0,0.0,0.0,0.0,0.0,0.0,0.0,0.0,0.0,0.0,0.0,0.0,0.0,0.0,0.0,0.0,0.0,0.0,0.0,0.0,0.0,2.6428,2.6544,2.6236,0.0,0.0,0.0,0.0,0.0,0.0,0.0,0.0,0.0,0.0,4.6701,5.0279,5.2779,5.3933,5.4741,5.5516,5.5626,5.5049,5.3433,5.2428,5.1,0.0,0.0,0.0,0.0,0.0,0.0,0.0,0.0,0.0,0.0,0.0,0.0,0.0,0.0,0.0,0.0,0.0,0.0,0.0,0.0,0.0,0.0,0.0,0.0,0.0,0.0,0.0,2.7031,2.6712,0.0,0.0,0.0,0.0,0.0,0.0,0.0,0.0,0.0,0.0,0.0,3.5663,3.6002,0.0,0.0,0.0,0.0,0.0,0.0,0.0,0.0,0.0,0.0,0.0,0.0,3.7048,4.1787,4.5065,4.8318,5.1622,5.123,5.0579,4.9694,4.689,4.2391,3.6151,0.0,0.0,0.0,0.0,0.0,0.0,0.0,0.0,0.0,0.0,0.0,0.0,0.0,0.0,0.0,0.0,0.0,0.0,0.0,0.0,0.0,0.0,0.0,0.0,0.0,2.6505,0.0,0.0,0.0,0.0,0.0,0.0,0.0,0.0,0.0,0.0,0.0,4.297,4.6043,4.962,5.2433,5.3857,5.478,5.5395,0.0,0.0,0.0,0.0,0.0,0.0,0.0,0.0,0.0,0.0,0.0,0.0,0.0,0.0,4.4662,4.0465,3.9427,3.9277,3.9238,0.0,0.0,0.0,0.0,0.0,0.0,0.0,0.0,0.0,0.0,0.0,0.0,0.0,0.0,0.0,0.0,2.9425,0.0,0.0,0.0,0.0,0.0,0.0,0.0,0.0,3.7915,3.9286,4.0074,4.0438,4.0204,0.0,3.8586,3.616,0.0,0.0,0.0,0.0,0.0,0.0,0.0,0.0,3.8234,4.2718,4.5673,4.8674,5.1601,5.1338,5.0917,5.0561,4.6928,4.2398,3.7016,3.3532,3.0541,0.0,0.0,0.0,0.0,0.0,0.0,0.0,0.0,0.0,0.0,0.0,0.0,0.0,0.0,0.0,0.0,0.0,0.0,0.0,0.0,0.0,0.0,0.0,2.8464,0.0,0.0,0.0,0.0,0.0,0.0,0.0,0.0,0.0,3.8465,4.2196,4.5966,4.9005,5.212,5.4395,5.5247,0.0,0.0,0.0,0.0,0.0,0.0,0.0,5.4241,5.3351,5.2318,5.2049,5.3428,5.4621,5.5203,5.4626,0.0,0.0,4.5932,4.4389,4.3966,4.4004,4.4932,4.5898,4.6398,4.7432,4.8509,0.0,0.0,0.0,0.0,0.0,0.0,0.0,0.0,3.7342,3.6781,0.0,3.4412,0.0,0.0,0.0,0.0,0.0,3.4835,0.0,0.0,4.198,4.3598,4.4491,4.5376,4.5425,4.4619,4.3724,4.239,4.0391,3.4921,0.0,0.0,0.0,0.0,0.0,0.0,3.9432,4.438,4.6448,4.8615,5.1005,5.118,5.0755,4.9801,4.567,4.2188,3.9511,3.617,3.316,3.0618,2.8077,0.0,0.0,0.0,0.0,0.0,0.0,0.0,0.0,0.0,0.0,0.0,0.0,0.0,0.0,0.0,0.0,0.0,0.0,0.0,0.0,3.0737,0.0,0.0,0.0,0.0,0.0,0.0,0.0,0.0,0.0,0.0,4.2312,4.5774,4.9197,5.1697,0.0,0.0,0.0,0.0,5.8275,5.8236,5.8275,5.7973,5.717,5.7022,5.6747,5.5939,0.0,0.0,5.7006,5.8506,5.9088,5.7517,5.7786,5.6819,5.1938,4.9586,4.8432,4.8389,4.9702,5.0822,5.0976,5.2087,5.3472,4.3591,0.0,0.0,0.0,0.0,3.9471,4.0129,4.0993,4.1284,4.0818,3.9768,3.8925,0.0,0.0,0.0,0.0,0.0,0.0,4.098,4.2945,4.5448,4.7138,4.8038,4.893,4.8904,4.811,4.7249,4.5951,4.4141,4.1281,3.7851,3.4115,0.0,0.0,0.0,0.0,4.211,4.5346,4.7875,4.9809,5.1159,5.119,5.0456,4.8855,4.6394,4.3869,4.1284,3.9041,3.6357,3.324,3.0695,0.0,0.0,0.0,0.0,0.0,0.0,0.0,0.0,0.0,0.0,0.0,0.0,0.0,0.0,0.0,0.0,0.0,0.0,0.0,3.1586,3.2237,3.2699,0.0,0.0,0.0,0.0,0.0,0.0,0.0,0.0,0.0,4.962,5.0966,5.2472,0.0,0.0,5.7665,5.7896,5.8127,5.8275,5.8275,0.0,0.0,0.0,5.7934,5.805,5.8357,5.944,6.0364,6.0594,6.1512,6.2044,6.155,6.0704,5.955,5.8204,5.5511,5.3669,5.3592,5.4439,5.517,5.5252,5.6088,5.689,5.1932,4.7598,4.4772,4.3699,4.3953,4.4378,4.4901,4.5458,4.5822,4.5538,4.4673,4.3483,4.2527,4.1681,4.0507,0.0,0.0,0.0,4.4889,4.6898,4.8735,5.0134,5.1034,5.1584,5.1625,5.1182,5.0329,4.934,4.8305,4.6257,4.3694,4.0626,0.0,0.0,3.9307,4.237,4.5083,4.7378,4.9685,5.1145,5.1678,5.1,4.9927,4.8439,4.639,4.4349,4.2426,4.0381,3.8203,3.5818,3.3276,3.0731,0.0,0.0,0.0,0.0,0.0,0.0,0.0,0.0,0.0,0.0,0.0,2.1773,0.0,0.0,0.0,0.0,3.0429,3.2391,3.4237,3.4737,0.0,0.0,0.0,0.0,0.0,0.0,0.0,4.4816,4.8043,5.1125,5.3857,5.5088,5.5972,5.6665,5.7934,5.8781,5.8781,0.0,5.9281,5.9281,5.9588,5.9819,5.9819,6.0089,6.0429,6.0929,6.2127,6.3057,6.3134,6.3782,6.4199,6.3782,6.2704,6.1704,6.1364,5.9325,5.7478,5.6901,5.7396,5.7978,5.7978,5.8665,5.9281,5.9165,5.7925,5.2391,4.9515,4.8715,4.9409,4.9757,4.9874,5.0726,5.063,4.9707,4.8082,4.6894,4.5941,4.4393,0.0,4.6052,4.6966,4.8668,5.0948,5.1861,5.283,5.3713,5.3803,5.3874,5.3973,5.3127,5.2646,5.2379,4.9989,4.8777,4.8583,4.472,4.2992,4.3613,4.6167,4.8389,5.0086,5.1773,5.2552,5.2461,5.0664,4.9255,4.8395,4.5858,4.406,4.3085,4.0773,3.9057,3.8088,3.5821,3.3356,3.0811,0.0,0.0,0.0,0.0,0.0,0.0,0.0,0.0,0.0,0.0,0.0,0.0,0.0,0.0,0.0,3.4234,0.0,3.7004,3.7811,0.0,0.0,0.0,4.0977,4.1093,4.4051,4.6744,4.8389,0.0,0.0,5.578,0.0,5.9281,5.8704,5.9204,5.9627,5.9704,6.0396,6.0902,6.0973,6.1633,6.2172,6.2056,6.2666,6.3198,6.3237,6.4122,6.4628,6.4666,6.5243,6.548,6.4859,6.3929,6.3045,6.2326,6.1325,6.0319,5.8742,5.9127,5.9704,5.9588,6.0242,6.0787,6.1893,6.1015,5.9607,5.7388,5.4754,5.4304,5.4143,5.4192,5.4434,5.4054,5.3203,5.2164,5.0894,4.9442,4.9053,4.9091,4.9553,5.101,5.2073,5.282,5.489,5.6078,5.6488,5.7145,5.7162,5.6639,5.5813,5.506,5.431,5.2418,5.1444,5.1375,5.0999,4.9561,4.734,4.9741,5.1642,5.2759,5.388,5.3828,5.249,5.0073,4.8697,4.8395,4.5873,4.409,4.3204,4.1993,4.0583,3.9052,3.7826,3.6009,3.3433,3.1509,0.0,0.0,0.0,0.0,0.0,0.0,0.0,0.0,0.0,2.7546,3.0272,0.0,3.2503,0.0,3.6311,3.8273,4.0385,4.0773,0.0,0.0,4.3748,4.4898,4.6163,4.8735,5.1043,5.2779,5.4824,5.6747,5.8396,5.9127,5.9935,6.0979,6.0787,6.0742,6.1364,6.1633,6.2018,6.2551,6.2858,6.3012,6.3089,6.3743,6.4275,6.4275,6.5013,6.559,6.5596,6.5743,6.582,6.5513,6.432,6.3352,6.3045,6.182,6.0787,6.0325,6.0902,6.1248,6.0666,6.1172,6.1595,6.4749,6.4249,6.3518,6.2109,6.0195,5.8654,5.7742,5.7396,5.7396,5.6934,5.6126,5.528,5.418,5.3012,5.2978,5.32,5.3668,5.455,5.5201,5.5725,5.7129,5.7848,5.804,5.8538,5.8596,5.8269,5.7816,5.7348,5.6749,5.5056,5.437,5.4684,5.4796,5.4279,5.3249,5.449,5.5288,5.5483,5.5204,5.461,5.3579,5.0245,4.8457,4.8333,4.5504,4.3768,4.3255,4.2033,4.0928,3.9963,3.9118,3.7864,3.6006,3.4305,3.2409,0.0,0.0,0.0,0.0,0.0,0.0,0.0,0.0,0.0,0.0,0.0,3.6196,0.0,3.9738,4.1316,4.3812,4.4389,4.512,4.6432,4.8014,4.9356,5.0279,5.2626,5.4549,5.5516,5.7093,5.8594,5.9896,6.0441,6.1133,6.2474,6.2204,6.2089,6.2512,6.2627,6.282,6.3237,6.3622,6.4045,6.4397,6.4859,6.5166,6.5205,6.559,6.5904,6.5904,6.5904,6.5904,6.5782,6.4474,6.3314,6.3237,6.1935,6.0819,6.0941,6.1787,6.2243,6.155,6.205,6.2435,6.7289,6.7128,6.5718,6.5025,6.4756,6.258,6.1041,5.9985,5.9985,5.9496,5.8583,5.7714,5.6899,5.6174,5.614,5.658,5.736,5.7485,5.798,5.8777,5.8888,5.9017,5.917,5.9191,5.9241,5.9286,5.9251,5.9218,5.907,5.7579,5.7177,5.7828,5.724,5.7711,5.9275,5.9425,5.9022,5.8042,5.6209,5.5122,5.4803,5.0716,4.8491,4.8317,4.5216,4.3493,4.3445,4.191,4.1061,4.1026,4.0204,3.94,3.8603,3.6932,3.5326,0.0,3.3625,0.0,0.0,0.0,0.0,0.0,0.0,0.0,0.0,3.7969,4.0315,4.347,4.3739,4.4778,4.7312,4.8274,4.9086,5.001,5.2241,5.3703,5.378,5.5862,5.7368,5.7484,5.8863,6.0165,6.105,6.1787,6.2557,6.3275,6.3429,6.3506,6.3622,6.3545,6.3506,6.3583,6.4275,6.4974,6.559,6.5827,6.5859,6.5865,6.5859,6.5904,6.5904,6.5904,6.5904,6.575,6.4589,6.3545,6.3468,6.2243,6.121,6.1281,6.232,6.2935,6.2326,6.2826,6.3391,6.816,6.8129,6.7885,6.7365,6.6671,6.6316,6.4844,6.2666,6.2666,6.1874,6.046,5.9616,5.8833,5.8078,5.808,5.8179,5.8355,5.9086,5.953,5.976,6.0459,6.0858,6.0984,6.1056,6.075,6.0168,6.0139,5.9788,5.9119,5.8766,5.8682,5.8867,5.9373,6.016,6.1224,0.0,0.0,0.0,5.7471,5.5551,5.4047,5.0548,4.864,4.8598,4.5972,0.0,4.4486,4.3493,4.2928,4.2866,4.2039,0.0,0.0,0.0,0.0,0.0,0.0,0.0,0.0,0.0,0.0,0.0,4.1008,4.1546,4.0773,4.2782,4.4975,4.6932,4.7158,4.8197,5.0697,5.1736,5.2587,5.3472,5.517,5.6285,5.6362,5.794,5.9281,6.0017,6.0979,6.1903,6.2666,6.3006,6.3391,6.4205,6.4359,6.4666,6.5282,6.4743,6.4628,6.5282,6.5487,6.5673,6.5859,6.591,6.5929,6.5904,6.5904,6.5904,6.5904,6.5904,6.5904,6.5904,6.5051,6.4352,6.4314,6.3506,6.2698,6.2814,6.3083,6.3045,6.2326,6.3326,6.4166,6.9629,0.0,6.8828,6.8237,0.0,6.7983,6.7034,6.5368,6.4562,6.3525,6.2364,6.1965,6.1303,6.0577,6.0558,6.0377,6.0054,6.0498,6.0736,6.0794,6.1232,6.147,6.1568,6.1624,6.1414,6.1045,6.1049,6.0816,6.0386,5.9956,5.9955,6.0382,6.0382,6.1047,6.23,6.3198,6.2999,6.1704,5.8272,5.5926,5.4507,5.0749,4.8744,4.8683,0.0,0.0,0.0,0.0,0.0,0.0,0.0,0.0,0.0,0.0,0.0,4.1196,4.1112,4.1123,4.1162,4.232,4.3397,4.4205,4.6624,4.7158,4.5081,4.6898,4.8629,4.9851,5.0351,5.1467,5.3549,5.4549,5.5439,5.6319,5.7473,5.8363,5.8902,6.0017,6.1089,6.1897,6.2397,6.3012,6.382,6.3929,6.4282,6.5089,6.525,6.5404,6.5782,6.5551,6.5448,6.587,6.597,6.6005,6.6005,6.6034,6.6034,6.6017,6.6005,6.5982,6.596,6.5954,6.5941,6.5871,6.5205,6.4622,6.4551,6.3891,6.3314,6.3352,6.366,6.3832,6.3478,6.4037,6.4628,7.1283,7.1021,6.9721,6.8988,6.8769,6.8916,6.8514,6.766,0.0,0.0,0.0,6.3918,6.3493,6.2883,6.2893,6.2483,6.1781,6.1749,6.1693,6.161,6.1622,6.1598,6.1612,6.166,6.1709,6.1717,6.1717,6.1718,6.168,6.0976,6.1015,6.1562,6.0976,6.1406,6.289,6.3008,6.2929,6.2611,5.8865,5.6247,5.5027,5.1238,4.9204,4.904,4.6809,4.559,4.5615,4.4887,4.4504,4.4427,4.4258,4.4189,4.422,4.402,4.3897,4.4056,4.4773,4.5201,4.524,4.6129,4.7437,4.912,5.1274,5.1505,4.8966,5.0394,5.1707,5.2505,5.3351,5.4511,5.6011,5.694,5.7709,5.8467,5.9396,6.0242,6.0941,6.1787,6.2589,6.3352,6.3506,6.3852,6.4705,6.4833,6.507,6.573,6.5877,6.596,6.596,6.5915,6.587,6.5976,6.6069,6.6112,6.6095,6.6175,6.6195,6.6155,6.6134,6.6096,6.6057,6.6023,6.5993,6.5964,6.5317,6.5015,6.4855,6.4405,6.3848,6.3809,6.4233,6.4674,6.4716,6.4582,6.4701,7.2706,7.1989,7.1923,7.1049,6.9717,6.9908,6.9575,6.877,6.636,6.5211,6.505,6.4359,6.399,6.3879,6.3936,6.3517,6.2706,6.2679,6.2342,0.0,6.1693,6.1663,6.1675,6.1715,6.1717,6.1719,6.1719,6.1719,6.168,6.1562,6.1601,6.168,6.1601,6.2031,6.293,6.3008,6.2617,6.1836,5.914,5.6562,5.4218,5.2109,5.0702,4.9997,4.8902,4.8351,4.8339,4.8125,4.806,4.8027,4.725,4.7051,4.7684,4.6897,4.6797,4.7528,4.8295,4.8663,4.8702,5.0159,5.1774,5.3433,5.4593,5.4087,5.1697,5.2972,5.4323,5.5088,5.5901,5.6863,5.7857,5.8627,5.9165,5.9396,6.0787,6.1787,6.1941,6.2627,6.3474,6.4282,6.4436,6.4743,6.5487,6.5684,6.5759,6.597,6.6046,6.608,6.6135,6.6052,6.5988,6.6034,6.6102,6.6185,6.6225,6.6253,6.6294,6.6276,6.621,6.622,6.6182,6.6185,6.6155,6.6139,6.5974,6.5902,6.5902,6.5912,6.5631,6.5549,6.5278,6.4941,6.4946,6.4448,6.4302,7.3937,7.3528,7.3207,7.2322,7.1152,7.0485,7.0056,6.9712,6.8193,6.7243,6.6736,6.5948,6.53,6.4878,6.4883,6.4463,6.3654,6.3657,6.3467,6.312,6.3121,6.3122,6.3085,6.2656,6.2422,6.2383,6.1914,6.1719,6.1719,6.1719,6.1719,6.1719,6.2148,6.2617,6.2969,6.3008,6.2344,6.0976,5.8945,5.7109,5.543,5.3242,5.168,5.0859,5.0039,4.9373,4.8895,4.8841,4.8816,4.8815,4.8306,4.8377,4.9132,4.8745,4.9038,5.0276,5.0647,5.1015,5.1477,5.3025,5.4511,5.5747,5.6626,5.6659,5.5467,5.6088,5.6703,5.7126,5.7857,5.8511,5.8934,5.9704,6.0204,6.0204,6.1364,6.2249,6.2743,6.3474,6.4314,6.5128,6.532,6.5448,6.5915,6.597,6.604,6.6102,6.617,6.6206,6.6239,6.6269,6.6206,6.6216,6.6329,6.6388,6.6433,6.6488,6.6504,6.6471,6.6411,6.6364,6.6333,6.6321,6.6294,6.6244,6.6273,6.6235,6.6239,6.6235,6.6235,6.6235,6.6002,6.5668,6.5592,6.5066,6.4606,7.4899,7.463,7.4091,7.3381,7.2527,7.1324,7.0845,7.0883,7.0075,6.9291,6.8585,6.7587,6.6738,6.6119,6.5924,6.5344,6.4647,6.4608,6.4492,6.4336,6.4297,6.4297,6.4258,6.3594,6.3281,6.3203,6.2422,6.1992,6.1953,6.1797,6.1797,6.2031,6.2695,6.3086,6.3281,6.3086,6.2344,6.0976,5.9336,5.7851,5.6601,5.4609,5.3086,5.2031,5.1406,5.0741,5.007,5.002,4.9957,4.9947,4.9837,5.0037,5.0635,5.0611,5.1231,5.2549,5.2854,5.3374,5.44,5.5584,5.6718,5.7538,5.8215,5.8792,5.915,5.9177,5.8957,5.8748,5.9473,6.0089,6.0242,6.0896,6.1358,6.1396,6.2127,6.2935,6.3545,6.4371,6.5153,6.5807,6.5909,6.5952,6.6005,6.6041,6.6121,6.6263,6.6342,6.6396,6.6384,6.6443,6.6464,6.6513,6.6567,6.661,6.6646,6.6687,6.6695,6.6631,6.6619,6.6579,6.6513,6.6478,6.6454,6.6414,6.6396,6.6403,6.6392,6.6392,6.64,6.6407,6.6333,6.622,6.5683,6.5025,6.4487,7.5438,7.4752,7.47,7.4302,7.3595,7.2846,7.2597,7.2483,7.1168,7.0477,7.0258,6.8787,6.8047,6.7851,6.7148,6.6367,6.5586,6.5508,6.5117,6.4453,6.4297,6.4297,6.4375,6.4258,6.418,6.4062,6.3281,6.289,6.2812,6.2109,6.2148,6.2812,6.2969,6.3359,6.3945,6.3398,6.289,6.2695,6.1055,5.9023,5.6758,5.6367,5.543,5.3789,5.3672,5.3632,5.3314,5.3541,5.3479,5.3421,5.3258,5.3324,5.3386,5.3295,5.3659,5.4625,5.5245,5.6334,5.7791,5.8124,5.8548,5.9432,5.9557,6.028,6.1667,6.1829,6.1098,6.0134,6.0952,6.1766,6.1903,6.2524,6.2909,6.2909,6.3717,6.4397,6.4531,6.5299,6.5919,6.5958,6.6052,6.608,6.6112,6.6201,6.6367,6.6484,6.6534,6.6574,6.6612,6.6644,6.6668,6.6716,6.6746,6.6683,6.6703,6.6733,6.679,6.6748,6.6736,6.6681,6.6662,6.665,6.6642,6.6607,6.6624,6.6622,6.6665,6.6681,6.6672,6.6612,6.6539,6.6209,6.4772,6.3959,6.3599,7.5813,7.5548,7.5537,7.5195,7.4569,7.3906,7.3412,7.3002,7.2439,7.1933,7.1361,7.0195,6.9414,6.8906,6.8515,6.8203,6.793,6.789,6.7383,6.664,6.6601,6.6328,6.582,6.5273,6.5078,6.5,6.418,6.375,6.3633,6.289,6.289,6.3594,6.3281,6.3203,6.3476,6.3164,6.2773,6.2226,6.1523,6.043,5.8984,5.8398,5.7305,5.5742,5.5508,5.5,5.4098,5.3977,5.3963,5.3932,5.4321,5.4827,5.5334,5.5744,5.6329,5.7181,5.7504,5.8165,5.925,5.9306,5.9886,6.1298,6.1362,6.189,6.296,6.3096,6.2718,6.2248,6.2611,6.2987,6.2992,6.3279,6.3477,6.3521,6.4209,6.4721,6.4717,6.5511,6.6091,6.6123,6.6136,6.6201,6.6303,6.6414,6.6576,6.6658,6.6695,6.6801,6.6777,6.6752,6.6762,6.6807,6.6803,6.6808,6.6811,6.6822,6.6865,6.6863,6.686,6.6817,6.6763,6.6757,6.6749,6.6741,6.6741,6.6741,6.6735,6.6777,6.6777,6.678,6.6709,6.6362,6.5152,6.4691,6.436,7.6272,7.6449,7.6282,7.5969,7.5526,7.4843,7.4292,7.3783,7.3469,7.2955,7.2302,7.1445,7.0703,7.0117,6.9648,6.9453,6.9492,6.9453,6.9101,6.8515,6.832,6.7851,6.7187,6.6367,6.5937,6.582,6.5078,6.4531,6.4258,6.3711,6.3789,6.4414,6.3789,6.3476,6.3633,6.332,6.2695,6.2109,6.1836,6.1406,6.0742,6.0195,5.9062,5.75,5.7305,5.6718,5.5506,5.5426,5.538,5.5326,5.5887,5.6486,5.7088,5.7682,5.8359,5.9202,5.9466,5.9759,6.0321,6.0533,6.1193,6.2411,6.275,6.3239,6.3965,6.4139,6.4243,6.4433,6.4433,6.4346,6.3936,6.4173,6.4283,6.4286,6.486,6.5185,6.5255,6.5832,6.6206,6.6238,6.6579,6.6843,6.7155,6.7382,6.7526,6.7554,6.7539,6.7516,6.7519,6.7603,6.7606,6.7528,6.7574,6.738,6.7029,6.6874,6.6914,6.6913,6.6873,6.6871,6.6826,6.6825,6.6824,6.682,6.6817,6.6816,6.6818,6.6817,6.6836,6.6836,6.6797,6.6523,6.5613,6.5547,6.4805,7.6751,7.7359,7.672,7.6423,7.6488,7.5735,7.5459,7.5296,7.4021,7.3307,7.3123,7.2382,7.1953,7.1797,7.039,6.957,6.9531,6.9609,6.9531,6.9297,6.8633,6.8203,6.8086,6.7265,6.6875,6.6875,6.5976,6.5156,6.4453,6.4297,6.4687,6.543,6.4609,6.4609,6.4961,6.3711,6.2969,6.2773,6.2109,6.164,6.1601,6.1562,6.0703,5.9258,5.9062,5.8906,5.8787,5.8904,5.8823,5.8809,5.8768,5.8881,5.8947,5.8973,5.9388,6.0187,6.0928,6.1369,6.1515,6.2099,6.2677,6.2912,6.3584,6.4309,6.5086,6.5286,6.5609,6.6261,6.6379,6.6066,6.5358,6.5562,6.5943,6.6002,6.607,6.6153,6.6201,6.6475,6.6408,6.6651,6.7334,6.8045,6.8901,6.9167,6.9029,6.9045,6.9173,6.9137,6.9023,6.918,6.914,6.9101,6.8984,6.8711,6.7342,6.7304,6.7187,6.7187,6.7383,6.6992,6.6914,6.6914,6.6914,6.6914,6.6875,6.6875,6.6875,6.6875,6.6875,6.6875,6.6875,6.6523,6.6015,6.5742,6.5,7.7943,7.7724,7.7002,7.6745,7.6771,7.6539,7.6213,7.5748,7.522,7.4644,7.414,7.3789,7.3672,7.3594,7.2461,7.164,7.1133,7.1094,7.0781,7.0273,6.9922,6.9492,6.8906,6.8125,6.8047,6.832,6.7148,6.6289,6.5937,6.543,6.5273,6.539,6.4726,6.4492,6.4531,6.3594,6.3008,6.293,6.2148,6.1719,6.1758,6.1719,6.1367,6.082,6.0234,5.9726,5.9218,5.9218,5.9179,5.9138,5.9644,5.9915,5.999,6.0453,6.0834,6.1214,6.1985,6.2443,6.2509,6.32,6.3902,6.4499,6.4764,6.5336,6.6079,6.6693,6.7153,6.7467,6.8022,6.8089,6.7713,6.7049,6.6691,6.7114,6.7223,6.7443,6.7956,6.8157,6.8196,6.8293,6.8665,6.9013,6.93,6.9395,6.9366,6.9408,6.9412,6.9492,6.9492,6.9492,6.957,6.9453,6.9375,6.9219,6.875,6.8515,6.8476,6.8359,6.8281,6.793,6.7734,6.7187,6.707,6.6914,6.6914,6.6914,6.6914,6.6914,6.6914,6.6914,6.6914,6.6797,6.6484,6.625,6.5469,7.8995,7.8016,7.7554,7.718,7.6979,7.7017,7.6733,7.6242,7.6011,7.5545,7.5039,7.4726,7.457,7.4492,7.3984,7.3437,7.2773,7.2305,7.168,7.1133,7.082,7.039,6.9765,6.8984,6.8906,6.9258,6.832,6.7617,6.7265,6.6719,6.6328,6.6015,6.5156,6.4726,6.457,6.3867,6.3398,6.3281,6.2812,6.2578,6.2539,6.2539,6.2539,6.2461,6.1953,6.1133,6.0078,6.0,6.0,6.0078,6.0546,6.0936,6.1249,6.1794,6.226,6.2569,6.3074,6.3384,6.3456,6.4155,6.5014,6.5878,6.6225,6.6689,6.7504,6.8126,6.8397,6.8593,6.8909,6.9345,6.9185,6.8261,6.7744,6.8198,6.8299,6.851,6.9131,6.9226,6.9377,6.9607,6.9743,6.9907,7.0156,7.023,7.0311,7.0233,7.0234,7.0273,7.0312,7.0312,7.0273,7.0234,7.0351,7.039,7.0234,7.0234,6.9531,6.9258,6.9023,6.8711,6.8281,6.7656,6.7187,6.6992,6.6914,6.6914,6.6914,6.6914,6.6914,6.6914,6.6914,6.6836,6.6758,6.6836,6.5937,7.9823,7.8513,7.8286,7.7799,7.7236,7.7124,7.7134,7.6949,7.6325,7.5975,7.582,7.5117,7.4883,7.4726,7.4687,7.457,7.4258,7.2969,7.2265,7.207,7.1289,7.0898,7.0781,6.9922,6.9453,6.9531,6.9414,6.8945,6.8203,6.8086,6.7695,6.6875,6.6133,6.5742,6.5625,6.4765,6.4297,6.4258,6.414,6.414,6.4297,6.4101,6.4062,6.4101,6.4023,6.3281,6.1797,6.1719,6.1719,6.1719,6.1758,6.2148,6.2773,6.3008,6.3359,6.3984,6.4257,6.4334,6.445,6.5228,6.6126,6.6949,6.7649,6.8312,6.89,6.9289,6.9403,6.9403,6.9524,6.9566,6.964,6.9484,6.9358,6.9326,6.9307,6.9349,6.9476,6.9458,6.975,7.0502,7.07,7.1053,7.168,7.1719,7.1601,7.164,7.168,7.164,7.1601,7.1562,7.1836,7.1836,7.1562,7.1328,7.164,7.1836,7.082,7.0,6.9687,6.9336,6.8867,6.832,6.7695,6.7422,6.6992,6.6953,6.6914,6.6914,6.6914,6.6914,6.6914,6.6914,6.6914,6.6797,6.6406,8.0621,8.0002,7.8846,7.823,7.7922,7.7418,7.7186,7.7187,7.6875,7.6797,7.6758,7.6484,7.6367,7.6211,7.5781,7.5508,7.539,7.4336,7.3789,7.3633,7.289,7.2461,7.2187,7.1015,7.0039,6.9687,7.0039,6.9844,6.918,6.9062,6.8633,6.789,6.7539,6.707,6.6484,6.5664,6.5195,6.5117,6.4609,6.4297,6.4297,6.4336,6.4336,6.4297,6.4297,6.3984,6.3555,6.3476,6.3476,6.3437,6.3476,6.3633,6.3828,6.3906,6.4023,6.4336,6.4883,6.5507,6.6133,6.6875,6.7734,6.8515,6.8906,6.9101,6.9414,7.0,7.0273,7.039,7.082,7.121,7.1171,7.121,7.0856,7.0333,7.0291,7.0489,7.0884,7.1087,7.1287,7.1484,7.1601,7.1758,7.1914,7.1992,7.1992,7.1992,7.1992,7.1992,7.1992,7.1992,7.1992,7.1992,7.1992,7.1992,7.1992,7.1992,7.1484,7.0859,7.0508,7.0078,6.957,6.9062,6.8398,6.7695,6.7265,6.6953,6.6914,6.6914,6.6914,6.6914,6.6914,6.6914,6.6914,6.6719,6.6406,8.1278,8.0889,7.9841,7.8983,7.8436,7.789,7.7461,7.7226,7.7226,7.7226,7.7187,7.7187,7.7226,7.7109,7.6601,7.6406,7.6328,7.582,7.5547,7.5351,7.4258,7.3789,7.3594,7.2383,7.125,7.0625,7.0937,7.0742,6.9922,6.9883,6.9492,6.8789,6.8633,6.8203,6.7422,6.6836,6.6445,6.6055,6.5547,6.5273,6.5273,6.5273,6.5273,6.5273,6.5273,6.5273,6.5273,6.5273,6.4961,6.4453,6.4297,6.4414,6.4726,6.4765,6.4922,6.539,6.6055,6.6836,6.7383,6.8086,6.9023,6.9726,6.9883,7.0078,7.0351,7.0937,7.1172,7.1289,7.164,7.1992,7.1953,7.1992,7.1719,7.1247,7.1167,7.1442,7.1913,7.1992,7.1953,7.1953,7.1953,7.1992,7.1992,7.1992,7.1992,7.1992,7.1992,7.1992,7.1992,7.1992,7.1992,7.1992,7.1992,7.1992,7.1992,7.1992,7.1992,7.1719,7.1406,7.0898,7.039,6.9922,6.9336,6.8125,6.7461,6.6992,6.6914,6.6914,6.6914,6.6914,6.6914,6.6914,6.6914,6.6914,6.668,8.1836,8.1094,8.0976,8.0039,7.8828,7.8633,7.8164,7.75,7.7461,7.7461,7.7383,7.7383,7.7305,7.7226,7.7109,7.707,7.7187,7.7031,7.6914,7.6562,7.5547,7.4765,7.4336,7.3594,7.2851,7.2265,7.2187,7.1758,7.1015,7.0976,7.0351,6.957,6.9453,6.9062,6.8398,6.8242,6.7812,6.7226,6.707,6.7031,6.7031,6.7031,6.7031,6.7031,6.7031,6.7031,6.7031,6.7031,6.625,6.4765,6.4687,6.5078,6.5625,6.5742,6.6172,6.6992,6.7812,6.8203,6.8476,6.9062,6.9844,7.0664,7.082,7.1094,7.164,7.1758,7.1836,7.1875,7.207,7.2148,7.2148,7.2344,7.2305,7.2187,7.1992,7.1953,7.1953,7.1992,7.1992,7.1992,7.1992,7.1992,7.1992,7.1992,7.1992,7.1992,7.1992,7.1992,7.1992,7.1992,7.1992,7.1992,7.1992,7.1992,7.1992,7.1992,7.1992,7.1914,7.1758,7.1484,7.1055,7.0547,6.9726,6.8555,6.7812,6.7305,6.6914,6.6914,6.6914,6.6914,6.6914,6.6914,6.6914,6.6914,6.6875,8.2148,8.1914,8.125,8.0742,8.0273,7.9687,7.9258,7.9062,7.9023,7.8594,7.8281,7.8164,7.7812,7.7265,7.7265,7.7226,7.7305,7.7265,7.7226,7.7148,7.6797,7.5742,7.4805,7.4414,7.4101,7.3867,7.3711,7.3476,7.2656,7.2539,7.1797,7.039,7.043,6.9961,6.9258,6.9101,6.9023,6.8828,6.8789,6.875,6.8672,6.8672,6.875,6.8828,6.8711,6.8711,6.8789,6.8789,6.7969,6.6406,6.6211,6.664,6.7344,6.7461,6.7773,6.8515,6.8945,6.9375,6.9922,7.0195,7.0781,7.1523,7.164,7.1758,7.1953,7.1992,7.1992,7.2109,7.2539,7.2969,7.3047,7.3476,7.3789,7.375,7.2851,7.2148,7.2109,7.1992,7.1992,7.1992,7.2031,7.1992,7.1992,7.1992,7.1992,7.1992,7.207,7.207,7.2187,7.2148,7.2226,7.207,7.2031,7.1992,7.1992,7.1992,7.1992,7.1992,7.1953,7.1875,7.1445,7.1015,6.9883,6.8594,6.8359,6.793,6.7305,6.6953,6.6953,6.7265,6.707,6.7109,6.6992,6.6914,6.6914,8.2304,8.2265,8.1758,8.1328,8.0976,8.0469,8.0039,7.9765,7.9687,7.9453,7.9062,7.9023,7.8711,7.8281,7.8242,7.8281,7.8242,7.8242,7.8281,7.8281,7.8242,7.7109,7.5625,7.5156,7.4961,7.4609,7.4609,7.4297,7.3906,7.3828,7.3047,7.207,7.1797,7.1211,7.0039,6.9961,6.9805,6.9531,6.9492,6.9492,6.9453,6.9414,6.9414,6.9453,6.9414,6.9414,6.9492,6.9414,6.8906,6.8125,6.8008,6.8203,6.8633,6.8711,6.8945,6.9453,6.9726,7.0195,7.0625,7.1015,7.1484,7.1953,7.2265,7.25,7.2656,7.2812,7.3086,7.3203,7.3594,7.3789,7.3906,7.4336,7.4531,7.4414,7.3672,7.3086,7.3086,7.2812,7.2578,7.2461,7.2226,7.1992,7.1992,7.2031,7.2031,7.207,7.2422,7.25,7.2617,7.2539,7.2539,7.2539,7.2226,7.2109,7.207,7.2031,7.1992,7.1992,7.1992,7.1992,7.1758,7.1367,7.0469,6.9453,6.9023,6.8594,6.8047,6.7773,6.8125,6.8203,6.7734,6.7461,6.7461,6.7305,6.7226,8.2304,8.2304,8.2304,8.1836,8.1211,8.1133,8.0781,8.0117,8.0156,8.0,7.9883,7.9844,7.9687,7.9726,7.9375,7.9609,7.9609,7.9414,7.9531,7.9492,7.9336,7.8359,7.6797,7.6601,7.6289,7.5703,7.5156,7.5078,7.5,7.4883,7.4258,7.3476,7.332,7.2617,7.168,7.1289,7.0742,7.0547,7.0625,7.0664,7.0586,7.0469,7.0351,7.0312,7.0039,7.0,7.0,6.9961,6.9922,6.9844,6.9609,6.9414,6.9453,6.9531,6.9687,6.9883,7.0508,7.0898,7.1094,7.1836,7.2226,7.2539,7.3125,7.3398,7.3555,7.3945,7.4297,7.4258,7.4648,7.4805,7.4961,7.4922,7.4961,7.5039,7.4883,7.4726,7.4687,7.4023,7.3437,7.3398,7.2734,7.2383,7.2265,7.2265,7.2344,7.2969,7.3203,7.3359,7.3437,7.3437,7.3437,7.3437,7.293,7.2265,7.2187,7.2109,7.2031,7.1992,7.1992,7.1992,7.1914,7.1523,7.1055,7.0469,6.9844,6.9414,6.9062,6.9062,6.9219,6.9062,6.8555,6.8398,6.832,6.8047,6.793,8.2304,8.2304,8.2304,8.2187,8.2031,8.1992,8.1914,8.1679,8.1719,8.125,8.082,8.0742,8.0351,7.9805,7.9883,7.9726,7.9883,7.9883,7.9726,7.9726,7.9726,7.9531,7.8867,7.8828,7.8711,7.8281,7.7851,7.7305,7.6719,7.5976,7.5195,7.4492,7.4336,7.4101,7.3711,7.3398,7.3711,7.3476,7.3398,7.3203,7.3008,7.2578,7.2305,7.2265,7.1758,7.1484,7.1601,7.2109,7.2461,7.1992,7.0781,7.0078,7.0508,7.0586,7.0859,7.1367,7.1601,7.2031,7.2617,7.289,7.332,7.3828,7.4101,7.4336,7.4297,7.4531,7.4648,7.4726,7.5195,7.5859,7.6406,7.5976,7.6015,7.625,7.6015,7.5859,7.6172,7.5234,7.4414,7.4258,7.4101,7.4023,7.3984,7.3828,7.3867,7.4023,7.414,7.4297,7.4336,7.4336,7.4336,7.4297,7.3633,7.2969,7.2578,7.2344,7.2031,7.1992,7.1992,7.1992,7.1914,7.1836,7.1406,7.1015,7.0586,7.0234,7.0,6.9726,6.9805,6.957,6.9453,6.9297,6.9101,6.8828,6.8555,8.2304,8.2304,8.2304,8.2304,8.2304,8.2304,8.2304,8.2304,8.2304,8.2031,8.1679,8.1601,8.1328,8.0937,8.0937,8.0937,8.0937,8.0898,8.0937,8.0976,8.0937,8.0937,8.0937,8.0781,8.0625,7.9844,7.9258,7.875,7.8242,7.75,7.6719,7.582,7.5469,7.4922,7.4648,7.4648,7.4492,7.4453,7.457,7.457,7.4492,7.418,7.3906,7.3906,7.3476,7.3242,7.3281,7.3633,7.3867,7.3555,7.2617,7.1992,7.2383,7.25,7.2773,7.3086,7.3242,7.3398,7.3789,7.3906,7.4101,7.4609,7.4961,7.5156,7.5351,7.5547,7.582,7.5898,7.6289,7.6836,7.7656,7.75,7.7461,7.7461,7.7031,7.6797,7.6875,7.6015,7.5195,7.5117,7.4805,7.457,7.457,7.4805,7.4687,7.4453,7.5039,7.5234,7.5195,7.5195,7.5195,7.5039,7.4375,7.375,7.3164,7.2656,7.207,7.1992,7.1992,7.1992,7.1953,7.1914,7.1836,7.1484,7.1133,7.1211,7.1015,7.0703,7.0508,7.0664,7.0625,7.0273,6.9883,6.957,6.9297,8.2304,8.2304,8.2304,8.2304,8.2304,8.2304,8.2304,8.2304,8.2304,8.2265,8.2304,8.2304,8.2109,8.2226,8.2187,8.2265,8.2226,8.2187,8.1992,8.2031,8.1992,8.1992,8.2031,8.1914,8.1484,8.0156,7.9961,7.9844,7.9609,7.9101,7.8203,7.7539,7.6914,7.6523,7.5703,7.5273,7.5508,7.5625,7.539,7.5234,7.5117,7.4961,7.4765,7.4453,7.4414,7.4336,7.4375,7.4609,7.4805,7.4805,7.4922,7.5,7.4961,7.4648,7.457,7.4531,7.4375,7.4492,7.4726,7.4805,7.4883,7.4961,7.5625,7.6172,7.6445,7.6914,7.7305,7.7539,7.7773,7.7969,7.8594,7.8594,7.8594,7.8555,7.7969,7.7656,7.7422,7.6797,7.6406,7.6015,7.5781,7.5547,7.539,7.543,7.5156,7.5078,7.5664,7.6094,7.6055,7.6055,7.6055,7.5859,7.5273,7.4492,7.3867,7.3555,7.289,7.2695,7.2539,7.2422,7.2383,7.2383,7.2383,7.2031,7.1797,7.1797,7.1758,7.1523,7.1523,7.1836,7.1601,7.1055,7.0664,7.0312,7.0117,8.2304,8.2304,8.2304,8.2304,8.2304,8.2304,8.2304,8.2304,8.2304,8.2304,8.2304,8.2304,8.2304,8.2304,8.2304,8.2304,8.2304,8.2304,8.2304,8.2304,8.2304,8.2304,8.2304,8.2304,8.207,8.1758,8.1211,8.0781,8.0586,7.9961,7.9414,7.9219,7.8945,7.8633,7.832,7.8242,7.7578,7.7383,7.7031,7.6758,7.664,7.6211,7.5664,7.5195,7.5195,7.5078,7.5078,7.543,7.5703,7.5742,7.6406,7.668,7.6523,7.5586,7.5,7.4805,7.4844,7.5195,7.5703,7.5781,7.6094,7.6562,7.6953,7.7383,7.7851,7.8164,7.8476,7.8945,7.914,7.9336,7.9453,7.9531,7.9492,7.9414,7.9297,7.9101,7.8984,7.8437,7.7617,7.707,7.6836,7.6562,7.6328,7.6172,7.6133,7.6094,7.6406,7.668,7.668,7.6758,7.6836,7.6601,7.6211,7.539,7.457,7.4414,7.4062,7.3906,7.375,7.3476,7.3359,7.3164,7.2969,7.2734,7.2265,7.1914,7.1953,7.2031,7.2148,7.2226,7.2031,7.1797,7.1562,7.1328,7.1289,8.2304,8.2304,8.2304,8.2304,8.2304,8.2304,8.2304,8.2304,8.2304,8.2304,8.2304,8.2304,8.2304,8.2304,8.2304,8.2304,8.2304,8.2304,8.2304,8.2304,8.2304,8.2304,8.2304,8.2304,8.2304,8.2187,8.1836,8.164,8.1601,8.082,8.0429,8.0234,7.9961,7.9726,7.9648,7.9219,7.914,7.8984,7.8672,7.8437,7.8476,7.7969,7.7578,7.7344,7.7148,7.7226,7.7305,7.7539,7.789,7.7969,7.8281,7.8437,7.8203,7.7695,7.6797,7.6133,7.5937,7.6328,7.7031,7.7265,7.7656,7.8359,7.8437,7.8633,7.8984,7.914,7.9375,7.9687,8.0273,8.0351,8.0351,8.039,8.0351,8.0273,8.0039,7.9805,7.9648,7.9375,7.875,7.8008,7.7422,7.7148,7.7031,7.7031,7.7148,7.7226,7.7226,7.7226,7.7226,7.7226,7.7226,7.6953,7.6562,7.6055,7.5312,7.5117,7.5039,7.4961,7.4844,7.457,7.4297,7.4062,7.3867,7.3711,7.3125,7.2383,7.2265,7.2383,7.25,7.2695,7.2656,7.2656,7.2539,7.2422,7.2344,8.2304,8.2304,8.2304,8.2304,8.2304,8.2304,8.2304,8.2304,8.2304,8.2304,8.2304,8.2304,8.2304,8.2304,8.2304,8.2304,8.2304,8.2304,8.2304,8.2304,8.2304,8.2304,8.2304,8.2304,8.2304,8.2304,8.2226,8.2304,8.2109,8.1601,8.1328,8.1133,8.0508,8.0234,8.0312,8.0156,8.0039,7.9922,7.9726,7.9726,7.9726,7.9726,7.9726,7.9726,7.9726,7.9531,7.9297,7.9336,7.9375,7.9414,7.957,7.9648,7.9687,7.9687,7.9062,7.7969,7.7734,7.8125,7.8476,7.8672,7.8828,7.9336,7.9609,7.9765,8.0039,8.0195,8.0351,8.0351,8.0781,8.125,8.125,8.125,8.125,8.1172,8.0742,8.0273,8.0351,8.0156,7.9805,7.9023,7.8164,7.7656,7.7461,7.7226,7.7226,7.7226,7.7226,7.7226,7.7226,7.7226,7.7187,7.707,7.6797,7.6484,7.6055,7.582,7.5781,7.5781,7.5703,7.5508,7.5195,7.4883,7.4687,7.4453,7.375,7.3125,7.293,7.2969,7.332,7.3555,7.3555,7.3515,7.3476,7.332,7.3203,8.2304,8.2304,8.2304,8.2304,8.2304,8.2304,8.2304,8.2304,8.2304,8.2304,8.2304,8.2304,8.2304,8.2304,8.2304,8.2304,8.2304,8.2304,8.2304,8.2304,8.2304,8.2304,8.2304,8.2304,8.2304,8.2304,8.2304,8.2304,8.2265,8.2109,8.207,8.1953,8.1875,8.1914,8.1562,8.1094,8.0859,8.0703,8.0156,7.9844,7.9844,7.9883,7.9883,7.9883,7.9883,7.9961,8.0039,8.0039,8.0,7.9922,7.9805,7.9765,7.9726,7.9726,7.9687,7.9453,7.9414,7.9453,7.9531,7.957,7.9687,8.0,7.9961,8.0156,8.0703,8.1406,8.1719,8.1992,8.207,8.2031,8.1992,8.207,8.2109,8.2031,8.1758,8.1719,8.1719,8.1054,8.0664,8.0234,7.9414,7.8398,7.7773,7.7461,7.7226,7.7226,7.7226,7.7226,7.7226,7.7226,7.7226,7.7109,7.707,7.6797,7.664,7.6445,7.6367,7.6445,7.6406,7.6328,7.6055,7.5703,7.5351,7.5,7.4414,7.4297,7.4414,7.4492,7.4492,7.4453,7.4453,7.4453,7.4453,7.4258,7.3984,8.2304,8.2304,8.2304,8.2304,8.2304,8.2304,8.2304,8.2304,8.2304,8.2304,8.2304,8.2304,8.2304,8.2304,8.2304,8.2304,8.2304,8.2304,8.2304,8.2304,8.2304,8.2304,8.2304,8.2304,8.2304,8.2304,8.2304,8.2304,8.2304,8.2304,8.2304,8.2304,8.2304,8.2226,8.2304,8.1914,8.1758,8.164,8.1406,8.1211,8.1172,8.1172,8.1133,8.1133,8.1094,8.1094,8.1094,8.1172,8.1172,8.1172,8.1172,8.1172,8.1172,8.1211,8.1172,8.1172,8.1172,8.0937,8.0547,8.0429,8.0625,8.1054,8.1133,8.1406,8.1758,8.2031,8.2304,8.2265,8.2304,8.2304,8.2304,8.2304,8.2304,8.2304,8.2304,8.2304,8.2265,8.2031,8.1562,8.1094,8.0625,7.9687,7.8789,7.8359,7.8125,7.793,7.7617,7.7305,7.7265,7.7226,7.7226,7.7187,7.7187,7.7109,7.707,7.6953,7.6836,7.6875,7.6875,7.6836,7.6797,7.6523,7.6133,7.6172,7.6094,7.6015,7.5976,7.5664,7.5351,7.5312,7.5312,7.543,7.5508,7.4844,7.4609,8.2304,8.2304,8.2304,8.2304,8.2304,8.2304,8.2304,8.2304,8.2304,8.2304,8.2304,8.2304,8.2304,8.2304,8.2304,8.2304,8.2304,8.2304,8.2304,8.2304,8.2304,8.2304,8.2304,8.2304,8.2304,8.2304,8.2304,8.2304,8.2304,8.2304,8.2304,8.2304,8.2304,8.2304,8.2304,8.2226,8.2187,8.2148,8.2148,8.2148,8.2148,8.2187,8.2187,8.2226,8.2304,8.2304,8.2304,8.2226,8.2187,8.2187,8.2109,8.2031,8.2109,8.2031,8.2031,8.2031,8.2031,8.1836,8.1484,8.1367,8.1679,8.2031,8.2304,8.207,8.2187,8.2304,8.2304,8.2304,8.2304,8.2304,8.2304,8.2304,8.2304,8.2304,8.2304,8.2304,8.2265,8.2148,8.2031,8.1758,8.1406,8.1172,8.0312,7.9609,7.914,7.875,7.8203,7.7578,7.7383,7.7383,7.7305,7.7305,7.7265,7.7265,7.7226,7.7226,7.7226,7.7344,7.7344,7.7265,7.7187,7.7109,7.6875,7.707,7.7344,7.7031,7.6562,7.6367,7.6211,7.6289,7.6406,7.6601,7.6484,7.5859,7.5859,8.2304,8.2304,8.2304,8.2304,8.2304,8.2304,8.2304,8.2304,8.2304,8.2304,8.2304,8.2304,8.2304,8.2304,8.2304,8.2304,8.2304,8.2304,8.2304,8.2304,8.2304,8.2304,8.2304,8.2304,8.2304,8.2304,8.2304,8.2304,8.2304,8.2304,8.2304,8.2304,8.2304,8.2304,8.2304,8.2304,8.2304,8.2304,8.2304,8.2304,8.2304,8.2304,8.2304,8.2304,8.2304,8.2304,8.2304,8.2304,8.2304,8.2304,8.2304,8.2304,8.2304,8.2304,8.2304,8.2304,8.2304,8.2226,8.2187,8.207,8.2187,8.2265,8.2304,8.2304,8.2304,8.2304,8.2304,8.2304,8.2304,8.2304,8.2304,8.2304,8.2304,8.2304,8.2304,8.2304,8.2304,8.2304,8.2226,8.2226,8.2031,8.1758,8.1601,8.082,8.0117,7.9687,7.8945,7.832,7.793,7.7812,7.7539,7.7461,7.7383,7.7344,7.7305,7.7383,7.7656,7.7851,7.793,7.7734,7.7539,7.7461,7.7773,7.7695,7.789,7.7539,7.7344,7.7422,7.7461,7.7422,7.75,7.7773,7.8047,7.789,7.8164,8.2304,8.2304,8.2304,8.2304,8.2304,8.2304,8.2304,8.2304,8.2304,8.2304,8.2304,8.2304,8.2304,8.2304,8.2304,8.2304,8.2304,8.2304,8.2304,8.2304,8.2304,8.2304,8.2304,8.2304,8.2304,8.2304,8.2304,8.2304,8.2304,8.2383,8.2304,8.2304,8.2383,8.2304,8.2304,8.2304,8.2304,8.2304,8.2304,8.2304,8.2304,8.2304,8.2304,8.2304,8.2304,8.2304,8.2304,8.2304,8.2304,8.2304,8.2304,8.2304,8.2304,8.2304,8.2304,8.2304,8.2304,8.25,8.2812,8.2617,8.2304,8.2304,8.2304,8.2304,8.2344,8.2304,8.2304,8.2304,8.2304,8.2304,8.2344,8.2304,8.2304,8.2304,8.2383,8.2461,8.25,8.2617,8.25,8.2539,8.2383,8.2148,8.207,8.1914,8.125,8.0625,7.9805,7.9101,7.8672,7.8398,7.8203,7.8047,7.8008,7.8008,7.7969,7.8086,7.8164,7.8359,7.8555,7.8437,7.832,7.875,7.8945,7.875,7.8594,7.8555,7.8594,7.8711,7.8594,7.8281,7.8555,7.9062,7.9336,7.9648,7.9883,8.2304,8.2304,8.2304,8.2304,8.2304,8.2304,8.2304,8.2304,8.2304,8.2304,8.2304,8.2304,8.2304,8.2304,8.2304,8.2304,8.2304,8.2304,8.2304,8.2304,8.2304,8.2304,8.2304,8.2304,8.2304,8.2304,8.2304,8.2304,8.2304,8.2539,8.2734,8.2773,8.2656,8.2656,8.2304,8.2304,8.2304,8.2304,8.2304,8.2304,8.2304,8.2304,8.2304,8.2304,8.2304,8.2304,8.2304,8.2304,8.2304,8.2304,8.2304,8.2304,8.2304,8.2304,8.2304,8.2304,8.2383,8.2617,8.2929,8.332,8.289,8.2851,8.2773,8.2617,8.2383,8.2304,8.2304,8.2304,8.2304,8.2383,8.2578,8.2773,8.3125,8.332,8.3476,8.3515,8.332,8.3281,8.3008,8.2851,8.2617,8.2344,8.2304,8.2187,8.1797,8.1172,8.0547,7.9844,7.9375,7.918,7.914,7.8984,7.8828,7.8828,7.8867,7.8906,7.8945,7.9023,7.918,7.9336,7.9414,7.9805,7.9765,7.9375,7.9336,7.9648,7.9687,7.9609,7.9336,7.8984,7.9492,8.0078,8.0664,8.0937,8.0781,8.2304,8.2304,8.2304,8.2304,8.2304,8.2304,8.2304,8.2304,8.2304,8.2304,8.2304,8.2304,8.2304,8.2304,8.2304,8.2304,8.2304,8.2304,8.2304,8.2304,8.2304,8.2304,8.2304,8.2304,8.2304,8.2304,8.2304,8.2344,8.2461,8.3008,8.3359,8.3554,8.3515,8.3203,8.2422,8.2344,8.2344,8.2383,8.25,8.2578,8.2617,8.2617,8.25,8.2539,8.2344,8.2304,8.2304,8.2304,8.2304,8.2304,8.2304,8.2304,8.2304,8.2304,8.2304,8.2304,8.2304,8.2383,8.25,8.3945,8.414,8.3515,8.3242,8.3164,8.2617,8.2461,8.2656,8.2969,8.2734,8.2969,8.3242,8.3633,8.4023,8.4219,8.4336,8.4336,8.4062,8.3945,8.3672,8.3554,8.289,8.2383,8.2422,8.2344,8.207,8.164,8.1172,8.0664,8.0234,8.0117,8.0195,7.9844,7.9687,7.9687,7.9726,7.9687,7.9726,7.9765,8.0,8.0273,8.0312,8.039,8.0234,7.9922,8.0156,8.0547,8.0508,8.039,8.0273,8.0273,8.0547,8.1094,8.1758,8.1992,8.1679,8.2304,8.2304,8.2304,8.2304,8.2304,8.2304,8.2304,8.2304,8.2304,8.2304,8.2304,8.2304,8.2304,8.2304,8.2304,8.2304,8.2304,8.2304,8.2304,8.2304,8.2304,8.2304,8.2304,8.2304,8.2304,8.2304,8.2344,8.2734,8.3203,8.3672,8.4062,8.4297,8.4492,8.3984,8.3594,8.3594,8.4023,8.4062,8.4062,8.4023,8.3945,8.3476,8.3164,8.3164,8.2695,8.2461,8.2422,8.2422,8.2383,8.2344,8.2304,8.2304,8.2304,8.2304,8.2304,8.2304,8.2344,8.2617,8.3359,8.4531,8.4961,8.4219,8.3711,8.3867,8.3906,8.4023,8.4023,8.3945,8.3789,8.4062,8.4414,8.4453,8.4687,8.4687,8.4726,8.4726,8.4609,8.457,8.4453,8.4453,8.4062,8.3867,8.3789,8.3515,8.3164,8.2851,8.25,8.1992,8.1562,8.1445,8.1445,8.0859,8.0547,8.0547,8.0547,8.0547,8.0781,8.1015,8.1289,8.1601,8.1523,8.1133,8.1211,8.1172,8.1328,8.1445,8.1367,8.1328,8.1562,8.1679,8.164,8.164,8.1992,8.2226,8.2148,8.2304,8.2304,8.2304,8.2304,8.2304,8.2304,8.2304,8.2304,8.2304,8.2304,8.2304,8.2304,8.2304,8.2304,8.2304,8.2304,8.2304,8.2304,8.2304,8.2304,8.2304,8.2304,8.2304,8.2344,8.2304,8.2383,8.2695,8.3125,8.3594,8.4219,8.4804,8.5312,8.5625,8.5351,8.4922,8.4804,8.4765,8.4726,8.4648,8.4726,8.4609,8.4375,8.4062,8.3906,8.3594,8.3164,8.289,8.2734,8.2617,8.2461,8.2344,8.2304,8.2304,8.2304,8.2304,8.2304,8.2695,8.3008,8.3789,8.4726,8.5,8.4804,8.4492,8.4609,8.4883,8.4687,8.4726,8.4765,8.4961,8.5156,8.5273,8.5312,8.5429,8.5469,8.5703,8.5742,8.5703,8.5664,8.5351,8.5351,8.5078,8.5039,8.5039,8.4804,8.4414,8.4179,8.3906,8.3359,8.2812,8.2578,8.2383,8.1797,8.1445,8.1406,8.1445,8.1445,8.1758,8.2226,8.2304,8.2304,8.2226,8.1797,8.2109,8.2304,8.207,8.1914,8.2109,8.2226,8.2109,8.2109,8.2109,8.2187,8.2304,8.2304,8.2304,8.2304,8.2304,8.2304,8.2304,8.2304,8.2304,8.2304,8.2304,8.2304,8.2304,8.2304,8.2304,8.2304,8.2304,8.2304,8.2383,8.25,8.2461,8.2617,8.2617,8.2851,8.2695,8.2695,8.2695,8.289,8.2929,8.3203,8.3828,8.3945,8.5234,8.6094,8.6367,8.6758,8.6523,8.6054,8.5664,8.5429,8.5508,8.5508,8.5508,8.5469,8.5117,8.4961,8.4844,8.4609,8.414,8.3867,8.3633,8.3164,8.2812,8.2461,8.2383,8.2344,8.2344,8.2344,8.2656,8.332,8.3594,8.3945,8.4844,8.5429,8.5664,8.6054,8.5703,8.5469,8.5469,8.5547,8.5508,8.5586,8.5859,8.6054,8.6289,8.6523,8.6758,8.7109,8.7109,8.707,8.6836,8.6367,8.6054,8.5625,8.5508,8.5547,8.5429,8.5547,8.5429,8.5117,8.4609,8.4023,8.3242,8.3008,8.2617,8.2304,8.2265,8.2226,8.207,8.207,8.2304,8.2304,8.2304,8.2304,8.2304,8.2304,8.2304,8.2304,8.2304,8.2304,8.2304,8.2265,8.2304,8.2304,8.2304,8.2304,8.2304,8.2304,8.2304,8.2304,8.2304,8.2304,8.2304,8.2304,8.2304,8.2304,8.2304,8.2304,8.2304,8.2304,8.2304,8.2304,8.2304,8.2695,8.3008,8.332,8.3711,8.3828,8.3867,8.4062,8.4062,8.3984,8.4101,8.414,8.4414,8.4765,8.5508,8.664,8.707,8.7226,8.7344,8.7226,8.707,8.6836,8.6679,8.6562,8.6484,8.6484,8.6367,8.6094,8.5937,8.5742,8.5351,8.4922,8.4648,8.4531,8.4062,8.3398,8.3242,8.3047,8.2304,8.2851,8.3359,8.4101,8.4414,8.457,8.4687,8.5351,8.5976,8.6367,8.6758,8.7031,8.6797,8.6601,8.6562,8.6406,8.6367,8.664,8.6758,8.6953,8.707,8.7265,8.75,8.7461,8.7422,8.7304,8.6875,8.6797,8.6367,8.6328,8.6328,8.6484,8.6562,8.6523,8.625,8.5781,8.5117,8.4336,8.3711,8.332,8.3203,8.3164,8.2656,8.2383,8.2304,8.2304,8.2422,8.2422,8.2304,8.2304,8.2304,8.2304,8.2304,8.2304,8.2304,8.2304,8.2304,8.2304,8.2304,8.2304,8.2304,8.2304,8.2304,8.2304,8.2304,8.2304,8.2304,8.2304,8.2304,8.2304,8.2304,8.2304,8.2304,8.2304,8.2304,8.2304,8.2383,8.2695,8.3125,8.3515,8.3984,8.4375,8.457,8.5,8.4804,8.4883,8.4961,8.4765,8.4961,8.5273,8.5625,8.6406,8.7031,8.7461,8.7461,8.75,8.75,8.7422,8.7344,8.7383,8.7383,8.7422,8.75,8.7265,8.6992,8.6836,8.6562,8.6015,8.5781,8.5429,8.539,8.4922,8.4258,8.4101,8.3945,8.3398,8.3906,8.4179,8.4804,8.5234,8.5351,8.5547,8.6211,8.6562,8.6836,8.7226,8.7344,8.7422,8.7226,8.7265,8.7265,8.7344,8.7461,8.7461,8.75,8.75,8.75,8.75,8.75,8.75,8.75,8.7461,8.7461,8.7383,8.7344,8.7422,8.75,8.7461,8.7187,8.7031,8.6797,8.6054,8.5195,8.4609,8.4179,8.4062,8.4023,8.3476,8.3047,8.3086,8.3086,8.2969,8.289,8.2539,8.2304,8.2304,8.2304,8.2304,8.2304,8.2304,8.2304,8.2304,8.2304,8.2304,8.2304,8.2304,8.2304,8.2304,8.2304,8.2304,8.2304,8.2304,8.2304,8.2304,8.2304,8.2304,8.2304,8.2304,8.2304,8.2422,8.25,8.2734,8.332,8.3828,8.4297,8.4765,8.5195,8.5117,8.5469,8.5508,8.5469,8.5156,8.5586,8.5586,8.582,8.6484,8.6719,8.75,8.8125,8.7695,8.7695,8.7773,8.7812,8.7578,8.75,8.75,8.7656,8.7734,8.7539,8.7461,8.75,8.7422,8.7265,8.707,8.6484,8.6172,8.5898,8.5312,8.5,8.4961,8.4961,8.4922,8.5039,8.5429,8.6015,8.6367,8.6679,8.7226,8.7617,8.7734,8.7734,8.8008,8.8164,8.7656,8.7539,8.75,8.75,8.75,8.75,8.75,8.75,8.75,8.75,8.75,8.75,8.75,8.75,8.75,8.75,8.75,8.75,8.75,8.75,8.7461,8.7461,8.7344,8.6953,8.6054,8.5547,8.5039,8.5,8.4883,8.4492,8.414,8.4101,8.4023,8.3789,8.332,8.2969,8.2617,8.2304,8.2304,8.2304,8.2304,8.2304,8.2304,8.2304,8.2304,8.2304,8.2304,8.2304,8.2344,8.2304,8.2304,8.2304,8.2304,8.2304,8.2304,8.2304,8.2304,8.2304,8.2304,8.2304,8.2422,8.2969,8.3281,8.3398,8.4179,8.4804,8.5429,8.5664,8.625,8.6523,8.6679,8.6484,8.6758,8.6562,8.6758,8.6914,8.7187,8.7539,8.8047,8.875,8.9297,8.9258,8.8828,8.8437,8.8398,8.8047,8.7773,8.7851,8.8164,8.8125,8.7812,8.7578,8.75,8.7539,8.75,8.7461,8.7148,8.707,8.664,8.6054,8.5937,8.5859,8.5859,8.5898,8.625,8.6758,8.707,8.75,8.789,8.8281,8.8594,8.9101,8.9258,8.9375,8.9062,8.8086,8.7578,8.7578,8.7539,8.7578,8.75,8.75,8.75,8.75,8.75,8.75,8.75,8.75,8.75,8.75,8.75,8.75,8.75,8.75,8.75,8.75,8.75,8.7461,8.7422,8.6914,8.6484,8.6054,8.5898,8.5742,8.539,8.5195,8.5117,8.4883,8.4648,8.4062,8.3437,8.2969,8.2617,8.2383,8.2304,8.2304,8.2304,8.2304,8.2304,8.2461,8.25,8.2617,8.25,8.25,8.2383,8.2304,8.2304,8.2304,8.2304,8.2304,8.2304,8.2304,8.2304,8.2304,8.25,8.289,8.3398,8.3789,8.4219,8.5078,8.5625,8.6289,8.664,8.6914,8.7344,8.75,8.7422,8.75,8.7539,8.7734,8.789,8.8476,8.8945,8.9336,8.957,8.9883,9.0,8.9492,8.9258,8.9219,8.8789,8.8554,8.8672,8.9062,8.8945,8.8554,8.8554,8.832,8.8242,8.8008,8.7929,8.7539,8.75,8.7226,8.6914,8.6797,8.6797,8.6914,8.7148,8.7539,8.7969,8.8359,8.8828,8.914,8.9336,8.9531,8.9961,9.0039,8.9844,8.9765,8.8906,8.8515,8.8476,8.8203,8.8164,8.7656,8.75,8.75,8.75,8.75,8.75,8.75,8.75,8.75,8.75,8.75,8.75,8.75,8.75,8.75,8.75,8.75,8.75,8.75,8.75,8.7148,8.6914,8.6679,8.6679,8.6562,8.6289,8.6094,8.582,8.5469,8.4961,8.4336,8.3476,8.289,8.289,8.2695,8.2304,8.2304,8.2539,8.2773,8.2969,8.3008,8.2969,8.289,8.2851,8.2773,8.2304,8.2304,8.2304,8.2304,8.2304,8.2304,8.2304,8.2304,8.2304,8.289,8.3711,8.3789,8.4297,8.5117,8.5937,8.6211,8.6562,8.7031,8.7422,8.7461,8.75,8.75,8.7578,8.7695,8.8242,8.8945,8.9648,8.9922,9.0156,9.0508,9.0664,9.0351,9.0234,9.0156,9.0156,9.0,8.9765,8.9765,8.9922,9.0117,9.0117,9.0039,8.9453,8.9023,8.8789,8.8476,8.8047,8.7851,8.7851,8.7773,8.7773,8.7656,8.7773,8.8086,8.8515,8.8906,8.9336,8.9726,9.0117,9.0156,9.0312,9.039,9.0273,9.0312,9.0312,9.0156,8.9765,8.9375,8.914,8.8594,8.8086,8.7695,8.7695,8.75,8.75,8.75,8.75,8.75,8.75,8.75,8.75,8.75,8.75,8.75,8.75,8.75,8.75,8.75,8.75,8.75,8.7344,8.7265,8.7148,8.7226,8.7344,8.7109,8.6758,8.6679,8.6289,8.582,8.5234,8.4375,8.3828,8.3672,8.3398,8.3125,8.3008,8.3164,8.3359,8.3633,8.3711,8.3789,8.375,8.3672,8.3398,8.2304,8.2304,8.2304,8.2304,8.2304,8.2304,8.2304,8.2304,8.2344,8.3164,8.4297,8.4687,8.5156,8.6015,8.6875,8.7187,8.707,8.7461,8.7461,8.75,8.75,8.75,8.7734,8.8203,8.8945,8.9765,9.0547,9.0976,9.1094,9.164,9.2031,9.1914,9.1211,9.1015,9.0937,9.0664,9.0312,9.0469,9.082,9.1054,9.082,9.0547,9.0,8.9765,8.9765,8.9648,8.9531,8.9531,8.9531,8.9336,8.8867,8.8594,8.8633,8.8828,8.9258,8.9765,9.0156,9.0586,9.0859,9.1015,9.1172,9.1679,9.1679,9.1758,9.1758,9.1797,9.1328,9.0742,9.0312,8.9453,8.8906,8.8476,8.832,8.7734,8.75,8.75,8.75,8.75,8.75,8.75,8.75,8.75,8.75,8.75,8.75,8.75,8.75,8.75,8.75,8.75,8.75,8.75,8.75,8.75,8.7461,8.7422,8.7226,8.7226,8.7109,8.6601,8.5976,8.5234,8.4765,8.4609,8.4531,8.4336,8.4219,8.3867,8.4258,8.4531,8.4609,8.4648,8.4648,8.457,8.4336]}]]